[[{"header":{"parameterUnit":"m.s-1","parameterCategory":1,"la1":31.0,"la2":29.5877,"lo1":-88.7671,"lo2":-86.6584,"dy":0.0162,"dx":0.0185,"nx":115,"ny":88,"refTime":"2025-12-21T00:00:00:Z","depth":0,"parameterNumber":2,"parameterNumberName":"U-component_of_WINDS"},"data":[0.0,0.0,0.0,0.0,0.0,0.0,0.0,0.0,0.0,0.0,0.0,0.0,0.0,0.0,0.0,0.0,0.0,0.0,0.0,0.0,0.0,0.0,0.0,0.0,0.0,0.0,0.0,0.0,0.0,0.0,0.0,0.0,0.0,0.0,0.0,0.0,0.0,0.0,0.0,0.0,0.0,0.0,0.0,0.0,0.0,0.0,0.0,0.0,0.0,0.0,0.0,0.0,0.0,0.0,0.0,0.0,0.0,0.0,0.0,0.0,0.0,0.0,0.0,0.0,0.0,0.0,0.0,0.0,0.0,0.0,0.0,0.0,0.0,0.0,0.0,0.0,0.0,0.0,0.0,0.0,0.0,0.0,0.0,0.0,0.0,0.0,0.0,0.0,0.0,0.0,0.0,0.0,0.0,0.0,0.0,0.0,0.0,0.0,0.0,0.0,0.0,0.0,0.0,0.0,0.0,0.0,0.0,0.0,0.0,0.0,0.0,0.0,0.0,0.0,0.0,0.0,0.0,0.0,0.0,0.0,0.0,0.0,0.0,0.0,0.0,0.0,0.0,0.0,0.0,0.0,0.0,0.0,0.0,0.0,0.0,0.0,0.0,0.0,0.0,0.0,0.0,0.0,0.0,0.0,0.0,0.0,0.0,0.0,0.0,0.0,0.0,0.0,0.0,0.0,0.0,0.0,0.0,0.0,0.0,0.0,0.0,0.0,0.0,0.0,0.0,0.0,0.0,0.0,0.0,0.0,0.0,0.0,0.0,0.0,0.0,0.0,0.0,0.0,0.0,0.0,0.0,0.0,0.0,0.0,0.0,0.0,0.0,0.0,0.0,0.0,0.0,0.0,0.0,0.0,0.0,0.0,0.0,0.0,0.0,0.0,0.0,0.0,0.0,0.0,0.0,0.0,0.0,0.0,0.0,0.0,0.0,0.0,0.0,0.0,0.0,0.0,0.0,0.0,0.0,0.0,0.0,0.0,0.0,0.0,0.0,0.0,0.0,0.0,0.0,0.0,0.0,0.0,0.0,0.0,0.0,0.0,0.0,0.0,0.0,0.0,0.0,0.0,0.0,0.0,0.0,0.0,0.0,0.0,0.0,0.0,0.0,0.0,0.0,0.0,0.0,0.0,0.0,0.0,0.0,0.0,0.0,0.0,0.0,0.0,0.0,0.0,0.0,0.0,0.0,0.0,0.0,0.0,0.0,0.0,0.0,0.0,0.0,0.0,0.0,0.0,0.0,0.0,0.0,0.0,0.0,0.0,0.0,0.0,0.0,0.0,0.0,0.0,0.0,0.0,0.0,0.0,0.0,0.0,0.0,0.0,0.0,0.0,0.0,0.0,0.0,0.0,0.0,0.0,0.0,0.0,0.0,0.0,0.0,0.0,0.0,0.0,0.0,0.0,0.0,0.0,0.0,0.0,0.0,0.0,0.0,0.0,0.0,0.0,0.0,0.0,0.0,0.0,0.0,0.0,0.0,0.0,0.0,0.0,0.0,0.0,0.0,0.0,0.0,0.0,0.0,0.0,0.0,0.0,0.0,0.0,0.0,0.0,0.0,0.0,0.0,0.0,0.0,0.0,0.0,0.0,0.0,0.0,0.0,0.0,0.0,0.0,0.0,0.0,0.0,0.0,0.0,0.0,0.0,0.0,0.0,0.0,0.0,0.0,0.0,0.0,0.0,0.0,0.0,0.0,0.0,0.0,0.0,0.0,0.0,0.0,0.0,0.0,0.0,0.0,0.0,0.0,0.0,0.0,0.0,0.0,0.0,0.0,0.0,0.0,0.0,0.0,0.0,0.0,0.0,0.0,0.0,0.0,0.0,0.0,0.0,0.0,0.0,0.0,0.0,0.0,0.0,0.0,0.0,0.0,0.0,0.0,0.0,0.0,0.0,0.0,0.0,0.0,0.0,0.0,0.0,0.0,0.0,0.0,0.0,0.0,0.0,0.0,0.0,0.0,0.0,0.0,0.0,0.0,0.0,0.0,0.0,0.0,0.0,0.0,0.0,0.0,0.0,0.0,0.0,0.0,0.0,0.0,0.0,0.0,0.0,0.0,0.0,0.0,0.0,0.0,0.0,0.0,0.0,0.0,0.0,0.0,0.0,0.0,0.0,0.0,0.0,0.0,0.0,0.0,0.0,0.0,0.0,0.0,0.0,0.0,0.0,0.0,0.0,0.0,0.0,0.0,0.0,0.0,0.0,0.0,0.0,0.0,0.0,0.0,0.0,0.0,0.0,0.0,0.0,0.0,0.0,0.0,0.0,0.0,0.0,0.0,0.0,0.0,0.0,0.0,0.0,0.0,0.0,0.0,0.0,0.0,0.0,0.0,0.0,0.0,0.0,0.0,0.0,0.0,0.0,0.0,0.0,0.0,0.0,0.0,0.0,0.0,0.0,0.0,0.0,0.0,0.0,0.0,0.0,0.0,0.0,0.0,0.0,0.0,0.0,0.0,0.0,0.0,0.0,0.0,0.0,0.0,0.0,0.0,0.0,0.0,0.0,0.0,0.0,0.0,0.0,0.0,0.0,0.0,0.0,0.0,0.0,0.0,0.0,0.0,0.0,0.0,0.0,0.0,0.0,0.0,0.0,0.0,0.0,0.0,0.0,0.0,0.0,0.0,0.0,0.0,0.0,0.0,0.0,0.0,0.0,0.0,0.0,0.0,0.0,0.0,0.0,0.0,0.0,0.0,0.0,0.0,0.0,0.0,0.0,0.0,0.0,0.0,0.0,0.0,0.0,0.0,0.0,0.0,0.0,0.0,0.0,0.0,0.0,0.0,0.0,0.0,0.0,0.0,0.0,0.0,0.0,0.0,0.0,0.0,0.0,0.0,0.0,0.0,0.0,0.0,0.0,0.0,0.0,0.0,0.0,0.0,0.0,0.0,0.0,0.0,0.0,0.0,0.0,0.0,0.0,0.0,0.0,0.0,0.0,0.0,0.0,0.0,0.0,0.0,0.0,0.0,0.0,0.0,0.0,0.0,0.0,0.0,0.0,0.0,0.0,0.0,0.0,0.0,0.0,0.0,0.0,0.0,0.0,0.0,0.0,0.0,0.0,0.0,0.0,0.0,0.0,0.0,0.0,0.0,0.0,0.0,0.0,0.0,0.0,0.0,0.0,0.0,0.0,0.0,0.0,0.0,0.0,0.0,0.0,0.0,0.0,0.0,0.0,0.0,0.0,0.0,0.0,0.0,0.0,0.0,0.0,0.0,0.0,0.0,0.0,0.0,0.0,0.0,0.0,0.0,0.0,0.0,0.0,0.0,0.0,0.0,0.0,0.0,0.0,0.0,0.0,0.0,0.0,0.0,0.0,0.0,0.0,0.0,0.0,0.0,0.0,0.0,0.0,0.0,0.0,0.0,0.0,0.0,0.0,0.0,0.0,0.0,0.0,0.0,0.0,0.0,0.0,0.0,0.0,0.0,0.0,0.0,0.0,0.0,0.0,0.0,0.0,0.0,0.0,0.0,0.0,0.0,0.0,0.0,0.0,0.0,0.0,0.0,0.0,0.0,0.0,0.0,0.0,0.0,0.0,0.0,0.0,0.0,0.0,0.0,0.0,0.0,0.0,0.0,0.0,0.0,0.0,0.0,0.0,0.0,0.0,0.0,0.0,0.0,0.0,0.0,0.0,0.0,0.0,0.0,0.0,0.0,0.0,0.0,0.0,0.0,0.0,0.0,0.0,0.0,0.0,0.0,0.0,0.0,0.0,0.0,0.0,0.0,0.0,0.0,0.0,0.0,0.0,0.0,0.0,0.0,0.0,0.0,0.0,0.0,0.0,0.0,0.0,0.0,0.0,0.0,0.0,0.0,0.0,0.0,0.0,0.0,0.0,0.0,0.0,0.0,0.0,0.0,0.0,0.0,0.0,0.0,0.0,0.0,0.0,0.0,0.0,0.0,0.0,0.0,0.0,0.0,0.0,0.0,0.0,0.0,0.0,0.0,0.0,0.0,0.0,0.0,0.0,0.0,0.0,0.0,0.0,0.0,0.0,0.0,0.0,0.0,0.0,0.0,0.0,0.0,0.0,0.0,0.0,0.0,0.0,0.0,0.0,0.0,0.0,0.0,0.0,0.0,0.0,0.0,0.0,0.0,0.0,0.0,0.0,0.0,0.0,0.0,0.0,0.0,0.0,0.0,0.0,0.0,0.0,0.0,0.0,0.0,0.0,0.0,0.0,0.0,0.0,0.0,0.0,0.0,0.0,0.0,0.0,0.0,0.0,0.0,0.0,0.0,0.0,0.0,0.0,0.0,0.0,0.0,0.2022,0.0,0.0,0.0,0.0,0.0,0.0,0.0,0.0,0.0,0.0,0.0,0.0,0.0,0.0,0.0,0.0,0.0,0.0,0.0,0.0,0.0,0.0,0.0,0.0,0.0,0.0,0.0,0.0,0.0,0.0,0.0,0.0,0.0,0.0,0.0,0.0,0.0,0.0,0.0,0.0,0.0,0.0,0.0,0.0,0.0,0.0,0.0,0.0,0.0,0.0,0.0,0.0,0.0,0.0,0.0,0.0,0.0,0.0,0.0,0.0,0.0,0.0,0.0,0.0,0.0,0.0,0.0,0.0,0.0,0.0,0.0,0.0,0.0,0.0,0.0,0.0,0.0,0.0,0.0,0.0,0.0,0.0,0.0,0.0,0.0,0.0,0.0,0.0,0.0,0.0,0.0,0.0,0.0,0.0,0.0,0.0,0.0,0.0,0.0,0.0,0.0,0.0,0.0,0.0,0.0,0.0,0.0,0.0,0.0,0.0,0.4,0.3993,0.3372,0.2575,0.165,0.0,0.0,0.0,0.0,0.0,0.0,0.0,0.0,0.0,0.0,0.0,0.0,0.0,0.0,0.0,0.0,0.0,0.0,0.0,0.0,0.0,0.0,0.0,0.0,0.0,0.0,0.0,0.0,0.0,0.0,0.0,0.0,0.0,0.0,0.0,0.0,0.0,0.0,0.0,0.0,0.0,0.0,0.0,0.0,0.0,0.0,0.0,0.0,0.0,0.0,0.0,0.0,0.0,0.0,0.0,0.0,0.0,0.0,0.0,0.0,0.0,0.0,0.0,0.0,0.0,0.0,0.0,0.0,0.0,0.0,0.0,0.0,0.0,0.0,0.0,0.0,0.0,0.0,0.0,0.0,0.0,0.0,0.0,0.0,0.0,0.0,0.0,0.0,0.0,0.0,0.0,0.0,0.0,0.0,0.0,0.0,0.0,0.0,0.0,0.0,0.0,0.0,0.0,0.0,0.0,0.0,0.0,0.0,0.0,0.0,0.0,0.0,0.3687,0.2769,0.1471,0.0,0.0,0.0,0.0,0.0,0.0,0.0,0.0,0.0,0.0,0.0,0.0,0.0,0.0,0.0,0.0,0.0,0.0,0.0,0.0,0.0,0.0,0.0,0.0,0.0,0.0,0.0,0.0,0.0,0.0,0.0,0.0,0.0,0.0,0.0,0.0,0.0,0.0,0.0,0.0,0.0,0.0,0.0,0.0,0.0,0.0,0.0,0.0,0.0,0.0,0.0,0.0,0.0,0.0,0.0,0.0,0.0,0.0,0.0,0.0,0.0,0.0,0.0,0.0,0.0,0.0,0.0,0.0,0.0,0.0,0.0,0.0,0.0,0.0,0.0,0.0,0.0,0.0,0.0,0.0,0.0,0.0,0.0,0.0,0.0,0.0,0.0,0.0,0.0,0.0,0.0,0.0,0.0,0.0,0.0,0.0,0.0,0.0,0.0,0.0,0.0,0.0,0.0,0.0,0.0,0.0,0.0,0.0,0.0,0.0,0.4305,0.4785,0.4121,0.0,0.1796,0.0,0.0,0.0,0.0,0.0,0.0,0.0,0.0,0.0,0.0,0.0,0.0,0.0,0.0,0.0,0.0,0.0,0.0,0.0,0.0,0.0,0.0,0.0,0.0,0.0,0.0,0.0,0.0,0.0,0.0,0.0,0.0,0.0,0.0,0.0,0.0,0.0,0.0,0.0,0.0,0.0,0.0,0.0,0.0,0.0,0.0,0.0,0.0,0.0,0.0,0.0,0.0,0.0,0.0,0.0,0.0,0.0,0.0,0.0,0.0,0.0,0.0,0.0,0.0,0.0,0.0,0.0,0.0,0.0,0.0,0.0,0.0,0.0,0.0,0.0,0.0,0.0,0.0,0.0,0.0,0.0,0.0,0.0,0.0,0.0,0.0,0.0,0.0,0.0,0.0,0.0,0.0,0.0,0.0,0.0,0.0,0.0,0.0,0.0,0.0,0.0,0.0,0.0,0.0,0.0,0.0,0.0,0.0,0.0,0.0,0.5093,0.4612,0.3306,0.2369,0.0,0.0,0.0,0.0,0.0,0.0,0.0,0.0,0.0,0.0,0.0,0.0,0.0,0.0,0.0,0.0,0.0,0.0,0.0,0.0,0.0,0.0,0.0,0.0,0.0,0.0,0.0,0.0,0.0,0.0,0.0,0.0,0.0,0.0,0.0,0.0,0.0,0.0,0.0,0.0,0.0,0.0,0.0,0.0,0.0,0.0,0.0,0.0,0.0,0.0,0.0,0.0,0.0,0.0,0.0,0.0,0.0,0.0,0.0,0.0,0.0,0.0,0.0,0.0,0.0,0.0,0.0,0.0,0.0,0.0,0.0,0.0,0.0,0.0,0.0,0.0,0.0,0.0,0.0,0.0,0.0,0.0,0.0,0.0,0.0,0.0,0.0,0.0,0.0,0.0,0.0,0.0,0.0,0.0,0.0,0.0,0.0,0.0,0.0,0.0,0.0,0.0,0.0,0.0,0.0,0.0,0.0,0.0,0.0,0.0,0.5932,0.5609,0.4607,0.2674,0.1665,0.179,0.0,0.0,0.0,0.0,0.0,0.0,0.0,0.0,0.0,0.0,0.0,0.0,0.0,0.0,0.0,0.0,0.0,0.0,0.0,0.0,0.0,0.0,0.0,0.0,0.0,0.0,0.0,0.0,0.0,0.0,0.0,0.0,0.0,0.0,0.0,0.0,0.0,0.0,0.0,0.0,0.0,0.0,0.0,0.0,0.0,0.0,0.0,0.0,0.0,0.0,0.0,0.0,0.0,0.0,0.0,0.0,0.0,0.0,0.0,0.0,0.0,0.0,0.0,0.0,0.0,0.0,0.0,0.0,0.0,0.0,0.0,0.0,0.0,0.0,0.0,0.0,0.0,0.0,0.0,0.0,0.0,0.0,0.0,0.0,0.0,0.0,0.0,0.0,0.0,0.0,0.0,0.0,0.0,0.0,0.0,0.0,0.0,0.0,0.0,0.0,0.0,0.0,0.0,0.0,0.0,0.0,0.0,0.0,0.6403,0.5981,0.5556,0.5194,0.2576,0.1333,0.0,0.0,0.0,0.0,0.0,0.0,0.0,0.0,0.0,0.0,0.0,0.0,0.0,0.0,0.0,0.0,0.0,0.0,0.0,0.0,0.0,0.0,0.0,0.0,0.0,0.0,0.0,0.0,0.0,0.0,0.0,0.0,0.0,0.0,0.0,0.0,0.0,0.0,0.0,0.0,0.0,0.0,0.0,0.0,0.0,0.0,0.0,0.0,0.0,0.0,0.0,0.0,0.0,0.0,0.0,0.0,0.0,0.0,0.0,0.0,0.0,0.0,0.0,0.0,0.0,0.0,0.0,0.0,0.0,0.0,0.0,0.0,0.0,0.0,0.0,0.0,0.0,0.0,0.0,0.0,0.0,0.0,0.0,0.0,0.0,0.0,0.0,0.0,0.0,0.0,0.0,0.0,0.0,0.0,0.0,0.0,0.0,0.0,0.0,0.0,0.0,0.0,0.0,0.0,0.0,0.0,0.0,0.0,0.0,0.5087,0.4727,0.4744,0.5184,0.2941,0.1786,0.0,0.0,0.0,0.0,0.0,0.0,0.0,0.0,0.0,0.0,0.0,0.0,0.0,0.0,0.0,0.0,0.0,0.0,0.0,0.0,0.0,0.0,0.0,0.0,0.0,0.0,0.0,0.0,0.0,0.0,0.0,0.0,0.0,0.0,0.0,0.0,0.0,0.0,0.0,0.0,0.0,0.0,0.0,0.0,0.0,0.0,0.0,0.0,0.0,0.0,0.0,0.0,0.0,0.0,0.0,0.0,0.0,0.0,0.0,0.0,0.0,0.0,0.0,0.0,0.0,0.0,0.0,0.0,0.0,0.0,0.0,0.0,0.0,0.0,0.0,0.0,0.0,0.0,0.0,0.0,0.0,0.0,0.0,0.0,0.0,0.0,0.0,0.0,0.0,0.0,0.0,0.0,0.0,0.0,0.0,0.0,0.0,0.0,0.0,0.0,0.0,0.0,0.0,0.0,0.0,0.0,0.0,0.0,0.0,0.4751,0.0,0.4583,0.512,0.3098,0.1896,0.0,0.0,0.0,0.0,0.0,0.0,0.0,0.0,0.0,0.0,0.0,0.0,0.0,0.0,0.0,0.0,0.0,0.0,0.0,0.0,0.0,0.0,0.0,0.0,0.0,0.0,0.0,0.0,0.0,0.0,0.0,0.0,0.0,0.0,0.0,0.0,0.0,0.0,0.0,0.0,0.0,0.0,0.0,0.0,0.0,0.0,0.0,0.0,0.0,0.0,0.0,0.0,0.0,0.0,0.0,0.0,0.0,0.0,0.0,0.0,0.0,0.0,0.0,0.0,0.0,0.0,0.0,0.0,0.0,0.0,0.0,0.0,0.0,0.0,0.0,0.0,0.0,0.0,0.0,0.0,0.0,0.0,0.0,0.0,0.0,0.0,0.0,0.0,0.0,0.0,0.0,0.0,0.0,0.0,0.0,0.0,0.0,0.0,0.0,0.0,0.0,0.0,0.0,0.0,0.0,0.0,0.0,0.0,0.3986,0.5574,0.5388,0.5168,0.5049,0.2976,0.1613,0.0,0.0,0.0,0.0,0.0,0.0,0.0,0.0,0.0,0.0,0.0,0.0,0.0,0.0,0.0,0.0,0.0,0.0,0.0,0.0,0.0,0.0,0.0,0.0,0.0,0.0,0.0,0.0,0.0,0.0,0.0,0.0,0.0,0.0,0.0,0.0,0.0,0.0,0.0,0.0,0.0,0.0,0.0,0.0,0.0,0.0,0.0,0.0,0.0,0.0,0.0,0.0,0.0,0.0,0.0,0.0,0.0,0.0,0.0,0.0,0.0,0.0,0.0,0.0,0.0,0.0,0.0,0.0,0.0,0.0,0.0,0.0,0.0,0.0,0.0,0.0,0.0,0.0,0.0,0.0,0.0,0.0,0.0,0.0,0.0,0.0,0.0,0.0,0.0,0.0,0.0,0.0,0.0,0.0,0.0,0.0,0.0,0.0,0.0,0.0,0.0,0.0,0.0,0.0,0.0,0.0,0.0,0.0,0.0,0.5063,0.4808,0.4769,0.4901,0.3231,0.215,0.0,0.0,0.0,0.0,0.0,0.0,0.0,0.0,0.0,0.0,0.0,0.0,0.0,0.0,0.0,0.0,0.0,0.0,0.0,0.0,0.0,0.0,0.0,0.0,0.0,0.0,0.0,0.0,0.0,0.0,0.0,0.0,0.0,0.0,0.0,0.0,0.0,0.0,0.0,0.0,0.0,0.0,0.0,0.0,0.0,0.0,0.0,0.0,0.0,0.0,0.0,0.0,0.0,0.0,0.0,0.0,0.0,0.0,0.0,0.0,0.0,0.0,0.0,0.0,0.0,0.0,0.0,0.0,0.0,0.0,0.0,0.0,0.0,0.0,0.0,0.0,0.0,0.0,0.0,0.0,0.0,0.0,0.0,0.0,0.0,0.0,0.0,0.0,0.0,0.0,0.0,0.0,0.0,0.0,0.0,0.0,0.0,0.0,0.0,0.0,0.0,0.0,0.0,0.0,0.0,0.0,0.0,0.0,0.0,0.4953,0.4741,0.4566,0.4373,0.3092,0.2222,0.188,0.0,0.0,0.0,0.0,0.0,0.0,0.0,0.0,0.0,0.0,0.0,0.0,0.0,0.0,0.0,0.0,0.0,0.0,0.0,0.0,0.0,0.0,0.0,0.0,0.0,0.0,0.0,0.0,0.0,0.0,0.0,0.0,0.0,0.0,0.0,0.0,0.0,0.0,0.0,0.0,0.0,0.0,0.0,0.0,0.0,0.0,0.0,0.0,0.0,0.0,0.0,0.0,0.0,0.0,0.0,0.0,0.0,0.0,0.0,0.0,0.0,0.0,0.0,0.0,0.0,0.0,0.0,0.0,0.0,0.0,0.0,0.0,0.0,0.0,0.0,0.0,0.0,0.0,0.0,0.0,0.0,0.0,0.0,0.0,0.0,0.0,0.0,0.0,0.0,0.0,0.0,0.0,0.0,0.0,0.0,0.0,0.0,0.0,0.0,0.0,0.0,0.0,0.0,0.0,0.0,0.0,0.0,0.0,0.5036,0.5009,0.4486,0.351,0.2629,0.1878,0.0,0.0,0.0,0.0,0.0,0.0,0.0,0.0,0.0,0.0,0.0,0.0,0.0,0.0,0.0,0.0,0.0,0.0,0.0,0.0,0.0,0.0,0.0,0.0,0.0,0.0,0.0,0.0,0.0,0.0,0.0,0.0,0.0,0.0,0.0,0.0,0.0,0.0,0.0,0.0,0.0,0.0,0.0,0.0,0.0,0.0,0.0,0.0,0.0,0.0,0.0,0.0,0.0,0.0,0.0,0.0,0.0,0.0,0.0,0.0,0.0,0.0,0.0,0.0,0.0,0.0,0.0,0.0,0.0,0.0,0.0,0.0,0.0,0.0,0.0,0.0,0.0,0.0,0.0,0.0,0.0,0.0,0.0,0.0,0.0,0.0,0.0,0.0,0.0,0.0,0.0,0.0,0.0,0.0,0.0,0.0,0.0,0.0,0.0,0.0,0.0,0.0,0.0,0.0,0.0,0.0,0.0,0.0,0.0,0.4434,0.3905,0.3429,0.3054,0.2207,0.1503,0.0,0.0,0.0,0.0,0.0,0.0,0.0,0.0,0.0,0.0,0.0,0.0,0.0,0.0,0.0,0.0,0.0,0.0,0.0,0.0,0.0,0.0,0.0,0.0,0.0,0.0,0.0,0.0,0.0,0.0,0.0,0.0,0.0,0.0,0.0,0.0,0.0,0.0,0.0,0.0,0.0,0.0,0.0,0.0,0.0,0.0,0.0,0.0,0.0,0.0,0.0,0.0,0.0,0.0,0.0,0.0,0.0,0.0,0.0,0.0,0.0,0.0,0.0,0.0,0.0,0.0,0.0,0.0,0.0,0.0,0.0,0.0,0.0,0.0,0.0,0.0,0.0,0.0,0.0,0.0,0.0,0.0,0.0,0.0,0.0,0.0,0.0,0.0,0.0,0.0,0.0,0.0,0.0,0.0,0.0,0.0,0.0,0.0,0.0,0.0,0.0,0.0,0.0,0.0,0.0,0.0,0.0,0.0,0.4694,0.4314,0.2905,0.1972,0.1564,0.1408,0.1096,0.0,0.0,0.0,0.0,0.0,0.0,0.0,0.0,0.0,0.0,0.0,0.0,0.0,0.0,0.0,0.0,0.0,0.0,0.0,0.0,0.0,0.0,0.0,0.0,0.0,0.0,0.0,0.0,0.0,0.0,0.0,0.0,0.0,0.0,0.0,0.0,0.0,0.0,0.0,0.0,0.0,0.0,0.0,0.0,0.0,0.0,0.0,0.0,0.0,0.0,0.0,0.0,0.0,0.0,0.0,0.0,0.0,0.0,0.0,0.0,0.0,0.0,0.0,0.0,0.0,0.0,0.0,0.0,0.0,0.0,0.0,0.0,0.0,0.0,0.0,0.0,0.0,0.0,0.0,0.0,0.0,0.0,0.0,0.0,0.0,0.0,0.0,0.0,0.0,0.0,0.0,0.0,0.0,0.0,0.0,0.0,0.0,0.0,0.0,0.0,0.0,0.0,0.0,0.0,0.0,0.0,0.0,0.0,0.4115,0.4272,0.2081,0.0493,-0.0303,0.0396,0.064,0.0,0.0,0.0,0.0,0.0,0.0,0.0,0.0,0.0,0.0,0.0,0.0,0.0,0.0,0.0,0.0,0.0,0.0,0.0,0.0,0.0,0.0,0.0,0.0,0.0,0.0,0.0,0.0,0.0,0.0,0.0,0.0,0.0,0.0,0.0,0.0,0.0,0.0,0.0,0.0,0.0,0.0,0.0,0.0,0.0,0.0,0.0,0.0,0.0,0.0,0.0,0.0,0.0,0.0,0.0,0.0,0.0,0.0,0.0,0.0,0.0,0.0,0.0,0.0,0.0,0.0,0.0,0.0,0.0,0.0,0.0,0.0,0.0,0.0,0.0,0.0,0.0,0.0,0.0,0.0,0.0,0.0,0.0,0.0,0.0,0.0,0.0,0.0,0.0,0.0,0.0,0.0,0.0,0.0,0.0,0.0,0.0,0.0,0.0,0.0,0.0,0.0,0.0,0.0,0.0,0.0,0.0,0.0,0.397,0.3083,0.1665,0.0375,-0.0751,-0.0141,-0.0042,0.0,0.0,0.0,0.0,0.0,0.0,0.0,0.0,0.0,0.0,0.0,0.0,0.0,0.0,0.0,0.0,0.0,0.0,0.0,0.0,0.0,0.0,0.0,0.0,0.0,0.0,0.0,0.0,0.0,0.0,0.0,0.0,0.0,0.0,0.0,0.0,0.0,0.0,0.0,0.0,0.0,0.0,0.0,0.0,0.0,0.0,0.0,0.0,0.6029,0.0,0.0,0.0,0.0,0.0,0.0,0.0,0.0,0.0,0.0,0.0,0.0,0.0,0.0,0.0,0.0,0.0,0.0,0.0,0.0,0.0,0.0,0.0,0.0,0.0,0.0,0.0,0.0,0.0,0.0,0.0,0.0,0.0,0.0,0.0,0.0,0.0,0.0,0.0,0.0,0.0,0.0,0.0,0.0,0.0,0.0,0.0,0.0,0.0,0.0,0.0,0.0,0.0,0.0,0.0,0.0,0.0,0.0,0.0,0.3557,0.2702,0.1299,0.0104,-0.0837,-0.0584,-0.0596,0.0,0.0,0.0,0.0,0.0,0.0,0.0,0.0,0.0,0.0,0.0,0.0,0.0,0.0,0.0,0.0,0.0,0.0,0.0,0.0,0.0,0.0,0.0,0.0,0.0,0.0,0.0,0.0,0.0,0.0,0.0,0.0,0.0,0.0,0.0,0.0,0.0,0.0,0.0,0.0,0.0,0.0,0.0,0.0,0.0,0.0,0.0,0.0,0.0,0.0,0.0,0.0,0.0,0.0,0.0,0.0,0.0,0.0,0.0,0.0,0.0,0.0,0.0,0.0,0.0,0.0,0.0,0.0,0.0,0.0,0.0,0.0,0.0,0.0,0.0,0.0,0.0,0.0,0.0,0.0,0.0,0.0,0.0,0.0,0.0,0.0,0.0,0.0,0.0,0.0,0.0,0.0,0.0,0.0,0.0,0.0,0.0,0.0,0.0,0.0,0.0,0.0,0.0,0.0,0.0,0.0,0.0,0.3883,0.306,0.2345,0.0961,-0.0141,-0.0927,-0.0885,-0.0975,-0.1209,0.0,0.0,0.0,0.0,0.0,0.0,0.0,0.0,0.0,0.0,0.0,0.0,0.0,0.0,0.0,0.0,0.0,0.0,0.0,0.0,0.0,0.0,0.0,0.0,0.0,0.0,0.0,0.0,0.0,0.0,0.0,0.0,0.0,0.0,0.0,0.0,0.0,0.0,0.2731,0.4281,0.0,0.0,0.0,0.0,0.0,0.0,0.0,0.0,0.6436,0.0,0.0,0.0,0.0,0.0,0.0,0.0,0.0,0.0,0.0,0.0,0.0,0.0,0.0,0.0,0.0,0.0,0.0,0.0,0.0,0.0,0.0,0.0,0.0,0.0,0.0,0.0,0.0,0.0,0.0,0.0,0.0,0.0,0.0,0.0,0.0,0.0,0.0,0.0,0.0,0.0,0.0,0.0,0.0,0.0,0.0,0.0,0.0,0.0,0.0,0.0,0.0,0.0,0.0,0.0,0.0,0.368,0.3484,0.259,0.0924,0.0595,-0.0074,-0.1153,-0.0852,-0.0851,-0.1209,0.0,0.0,0.0,0.0,0.0,0.0,0.0,0.0,0.0,0.0,0.0,0.0,0.0,0.0,0.0,0.0,0.0,0.0,0.0,0.0,0.0,0.0,0.0,0.0,0.0,0.0,0.0,0.0,0.0,0.0,0.0,0.0,0.0,0.0,0.0,0.0,0.0,0.0,0.0,0.4941,0.5928,0.0,0.0,0.0,0.0,0.0,0.0,0.0,0.0,0.5869,0.0,0.0,0.0,0.0,0.0,0.0,0.0,0.0,0.0,0.0,0.0,0.0,0.0,0.0,0.0,0.0,0.0,0.0,0.0,0.0,0.0,0.0,0.0,0.0,0.0,0.0,0.0,0.0,0.0,0.0,0.0,0.0,0.0,0.0,0.0,0.0,0.0,0.0,0.0,0.0,0.0,0.0,0.0,0.0,0.0,0.0,0.0,0.0,0.0,0.0,0.0,0.0,0.0,0.0,0.0,0.2955,0.2655,0.1835,0.0454,0.0162,-0.0332,-0.1057,-0.1025,-0.0997,0.0,0.0,0.0,0.0,0.0,0.0,0.0,0.0,0.0,0.0,0.0,0.0,0.0,0.0,0.0,0.0,0.0,0.0,0.0,0.0,0.0,0.0,0.0,0.0,0.0,0.0,0.0,0.0,0.0,0.0,0.0,0.0,0.0,0.0,0.0,0.0,0.0,0.0,0.0,0.0,0.5034,0.5506,0.636,0.0,0.0,0.0,0.0,0.0,0.0,0.6291,0.6004,0.0,0.0,0.0,0.0,0.0,0.0,0.0,0.0,0.0,0.0,0.0,0.0,0.0,0.0,0.0,0.0,0.0,0.0,0.0,0.0,0.0,0.0,0.0,0.0,0.0,0.0,0.0,0.0,0.0,0.0,0.0,0.0,0.0,0.0,0.0,0.0,0.0,0.0,0.0,0.0,0.0,0.0,0.0,0.0,0.0,0.0,0.0,0.0,0.0,0.0,0.0,0.0,0.0,0.0,0.0,0.2351,0.1865,0.1186,0.0342,-0.0106,-0.0528,-0.0942,-0.0917,-0.0864,0.0,0.0,0.0,0.0,0.0,0.0,0.0,0.0,0.0,0.0,0.0,0.0,0.0,0.0,0.0,0.0,0.0,0.0,0.0,0.0,0.0,0.0,0.0,0.0,0.0,0.0,0.0,0.0,0.0,0.0,0.0,0.0,0.0,0.0,0.0,0.0,0.0,0.0,0.0,0.0,0.0,0.533,0.5979,0.6216,0.0,0.0,0.0,0.0,0.7445,0.6754,0.0,0.0,0.0,0.0,0.0,0.0,0.0,0.0,0.0,0.0,0.0,0.0,0.0,0.0,0.0,0.0,0.0,0.0,0.0,0.0,0.0,0.0,0.0,0.0,0.0,0.0,0.0,0.0,0.0,0.0,0.0,0.0,0.0,0.0,0.0,0.0,0.0,0.0,0.0,0.0,0.0,0.0,0.0,0.0,0.0,0.0,0.0,0.0,0.0,0.0,0.0,0.0,0.0,0.0,0.0,0.0,0.189,0.1474,0.0953,0.0323,0.0071,-0.0437,-0.1203,-0.0087,0.0186,0.0,0.0,0.0,0.0,0.0,0.0,0.0,0.0,0.0,0.0,0.0,0.0,0.0,0.0,0.0,0.0,0.0,0.0,0.0,0.0,0.0,0.0,0.0,0.0,0.0,0.0,0.0,0.0,0.0,0.0,0.0,0.0,0.0,0.0,0.0,0.0,0.0,0.0,0.0,0.0,0.0,0.6355,0.6286,0.6545,0.6935,0.0,0.0,0.6162,0.6815,0.6406,0.0,0.0,0.0,0.0,0.0,0.0,0.0,0.0,0.0,0.0,0.0,0.0,0.0,0.0,0.0,0.0,0.0,0.0,0.0,0.0,0.0,0.0,0.0,0.0,0.0,0.0,0.0,0.0,0.0,0.0,0.0,0.0,0.0,0.0,0.0,0.0,0.0,0.0,0.0,0.0,0.0,0.0,0.0,0.0,0.0,0.0,0.0,0.0,0.0,0.0,0.0,0.0,0.0,0.0,0.0,0.1972,0.1779,0.0946,0.0271,-0.02,-0.0567,-0.0967,-0.1462,-0.022,0.0167,0.0,0.0,0.0,0.0,0.0,0.0,0.0,0.0,0.0,0.0,0.0,0.0,0.0,0.0,0.0,0.0,0.0,0.0,0.0,0.0,0.0,0.0,0.0,0.0,0.0,0.0,0.0,0.0,0.0,0.0,0.0,0.0,0.0,0.0,0.0,0.0,0.0,0.0,0.0,0.0,0.0,0.0,0.6566,0.6622,0.0,0.0,0.0,0.7047,0.8061,0.0,0.0,0.0,0.0,0.0,0.0,0.0,0.0,0.0,0.0,0.0,0.0,0.0,0.0,0.0,0.0,0.0,0.0,0.0,0.0,0.0,0.0,0.0,0.0,0.0,0.0,0.0,0.0,0.0,0.0,0.0,0.0,0.0,0.0,0.0,0.0,0.0,0.0,0.0,0.0,0.0,0.0,0.0,0.0,0.0,0.0,0.0,0.0,0.0,0.0,0.0,0.0,0.0,0.0,0.0,0.0,0.0,0.1697,0.0529,-0.0285,-0.0662,-0.1154,-0.151,-0.1639,-0.0545,0.0,0.0,0.0,0.0,0.0,0.0,0.0,0.0,0.0,0.0,0.0,0.0,0.0,0.0,0.0,0.0,0.0,0.0,0.0,0.0,0.0,0.0,0.0,0.0,0.0,0.0,0.0,0.1915,0.0,0.0,0.0,0.0,0.0,0.0,0.0,0.0,0.0,0.0,0.0,0.0,0.0,0.0,0.5958,0.6956,0.6737,0.6636,0.0,0.0,0.7501,0.8384,0.721,0.6446,0.0,0.0,0.0,0.0,0.0,0.0,0.0,0.0,0.0,0.0,0.0,0.0,0.0,0.0,0.0,0.0,0.0,0.0,0.0,0.0,0.0,0.0,0.0,0.0,0.0,0.0,0.0,0.0,0.0,0.0,0.0,0.0,0.0,0.0,0.0,0.0,0.0,0.0,0.0,0.0,0.0,0.0,0.0,0.0,0.0,0.0,0.0,0.0,0.0,0.0,0.0,0.0,0.0,0.0,0.0,0.1478,0.0265,-0.0539,-0.0885,-0.146,-0.1814,-0.1851,-0.0886,-0.0228,0.0,0.0,0.0,0.0,0.0,0.0,0.0,0.0,0.0,0.0,0.0,0.0,0.0,0.0,0.0,0.0,0.0,0.0,0.0,0.0,0.0,0.0,0.0,0.0,0.0,0.0,0.0,0.0,0.0,0.0,0.0,0.0,0.0,0.0,0.0,0.0,0.0,0.0,0.0,0.0,0.0,0.6847,0.756,0.6886,0.6268,0.0,0.0,0.6805,0.6494,0.6408,0.6452,0.6648,0.0,0.0,0.0,0.0,0.0,0.0,0.0,0.0,0.0,0.0,0.0,0.0,0.0,0.0,0.0,0.0,0.0,0.0,0.0,0.0,0.0,0.0,0.0,0.0,0.0,0.0,0.0,0.0,0.0,0.0,0.0,0.0,0.0,0.0,0.0,0.0,0.0,0.0,0.0,0.0,0.0,0.0,0.0,0.0,0.0,0.0,0.0,0.0,0.0,0.0,0.0,0.0,0.0,0.1122,0.128,-0.019,-0.1141,-0.1524,-0.1859,-0.2117,-0.2253,-0.1038,-0.0214,0.0,0.0,0.0,0.0,0.0,0.0,0.0,0.0,0.0,0.0,0.0,0.0,0.0,0.0,0.0,0.0,0.0,0.0,0.0,0.0,0.0,0.0,0.0,0.0,0.0,0.0,0.0,0.0,0.3283,0.3638,0.4301,0.0,0.0,0.0,0.0,0.0,0.0,0.0,0.0,0.0,0.0,0.679,0.6659,0.6388,0.0,0.0,0.6897,0.751,0.8306,0.748,0.7118,0.8097,0.792,0.0,0.0,0.0,0.0,0.0,0.0,0.0,0.0,0.0,0.0,0.0,0.0,0.0,0.0,0.0,0.0,0.0,0.0,0.0,0.0,0.0,0.0,0.0,0.0,0.0,0.0,0.0,0.0,0.0,0.0,0.0,0.0,0.0,0.0,0.0,0.0,0.0,0.0,0.0,0.0,0.0,0.0,0.0,0.0,0.0,0.0,0.0,0.0,0.0,0.0,0.0,0.0,0.0929,0.1179,-0.0496,-0.1553,-0.1902,-0.2157,-0.2353,-0.2468,-0.1405,-0.0578,0.0,0.0,0.0,0.0,0.0,0.0,0.0,0.0,0.0,0.0,0.0,0.0,0.0,0.0,0.0,0.0,0.0,0.0,0.0,0.0,0.0,0.0,0.0,0.0,0.0,0.0,0.0,0.0,0.3993,0.412,0.4634,0.0,0.0,0.0,0.0,0.0,0.0,0.0,0.0,0.0,0.0,0.6621,0.6819,0.6631,0.673,0.7446,0.7931,0.8519,0.9334,0.8612,0.822,0.9012,0.0,0.0,0.0,0.0,0.0,0.0,0.0,0.0,0.0,0.0,0.0,0.0,0.0,0.0,0.0,0.0,0.0,0.0,0.0,0.0,0.0,0.0,0.0,0.0,0.0,0.0,0.0,0.0,0.0,0.0,0.0,0.0,0.0,0.0,0.0,0.0,0.0,0.0,0.0,0.0,0.0,0.0,0.0,0.0,0.0,0.0,0.0,0.0,0.0,0.0,0.0,0.0,0.0,0.093,0.115,-0.0656,-0.1689,-0.1905,-0.2297,-0.249,-0.2468,-0.2029,-0.1476,-0.0851,0.0,0.0,0.0,0.0,0.0,0.0,0.0,0.0,0.0,0.0,0.0,0.0,0.0,0.0,0.0,0.0,0.0,0.0,0.0,0.0,0.0,0.0,0.0,0.0,0.0,0.0,0.5384,0.4764,0.4211,0.0,0.0,0.0,0.0,0.0,0.0,0.0,0.0,0.0,0.0,0.6636,0.6479,0.8434,0.7945,0.7834,0.9011,0.9707,0.9795,0.8931,0.9504,0.9823,0.0,0.0,0.0,0.0,0.0,0.0,0.0,0.0,0.0,0.0,0.0,0.0,0.0,0.0,0.0,0.0,0.0,0.0,0.0,0.0,0.0,0.0,0.0,0.0,0.0,0.0,0.0,-0.0783,-0.0846,0.0,0.0,0.0,0.0,0.0,0.0,0.0,0.0,0.0,0.0,0.0,0.121,0.139,0.0,0.0,0.0,0.0,0.0,0.0,0.0,0.0,0.0,0.0,0.0,0.0,0.0869,0.1029,-0.0781,-0.1832,-0.1907,-0.2277,-0.2375,-0.2101,-0.1908,-0.1342,-0.0395,0.0,0.0,0.0,0.0,0.0,0.0,0.0,0.0,0.0,0.0,0.0,0.0,0.0,0.0,0.0,0.0,0.0,0.0,0.0,0.0,0.0,0.0,0.0,0.0,0.0,0.406,0.0,0.0,0.0,0.0,0.0,0.0,0.0,0.0,0.0,0.0,0.0,0.8334,0.8254,0.8655,0.9053,0.9371,0.9137,0.8855,0.0,0.0,0.0,0.0,0.0,0.0,0.0,0.0,0.0,0.0,0.0,0.0,0.0,0.0,1.1606,1.0308,0.9554,0.9269,0.9779,0.0,0.0,0.0,0.0,0.0,0.0,0.0,0.0,0.0,0.0,0.0,0.0,0.0,0.0,-0.1472,0.0,-0.1517,0.0,0.0,0.0,0.0,0.0,0.0,0.0,0.0,0.1186,0.0891,0.044,0.0526,0.0403,0.0,0.0447,0.1094,0.0,0.0,0.0,0.0,0.0,0.0,0.0,0.0,0.0978,0.111,-0.0699,-0.171,-0.1808,-0.2061,-0.2101,-0.1905,-0.178,-0.1318,-0.0479,0.0281,0.0836,0.0,0.0,0.0,0.0,0.0,0.0,0.0,0.0,0.0,0.0,0.0,0.0,0.0,0.0,0.0,0.0,0.0,0.0,0.0,0.0,0.0,0.0,0.0,0.4341,0.0,0.0,0.0,0.0,0.0,0.0,0.0,0.0,0.0,0.7094,0.8088,0.875,0.8627,0.9181,0.9821,1.0506,0.0,0.0,0.0,0.0,0.0,0.0,0.0,1.1336,1.2215,1.1413,1.053,1.0189,1.0711,1.113,1.1043,0.0,0.0,1.0862,1.0329,1.0124,1.0651,1.124,1.1756,1.214,1.2481,1.2643,0.0,0.0,0.0,0.0,0.0,0.0,0.0,0.0,-0.2623,-0.2152,0.0,-0.2253,0.0,0.0,0.0,0.0,0.0,0.0418,0.0,0.0,-0.0749,-0.1243,-0.0679,-0.0566,-0.0691,-0.0993,0.0185,0.0513,0.0016,-0.004,0.0,0.0,0.0,0.0,0.0,0.0,0.1259,0.1263,-0.0424,-0.1396,-0.1592,-0.1632,-0.1708,-0.1863,-0.1631,-0.1353,-0.1094,-0.0449,-0.0158,-0.0241,0.0938,0.0,0.0,0.0,0.0,0.0,0.0,0.0,0.0,0.0,0.0,0.0,0.0,0.0,0.0,0.0,0.0,0.0,0.0,0.0,0.0,0.5191,0.0,0.0,0.0,0.0,0.0,0.0,0.0,0.0,0.0,0.0,0.8319,0.8421,0.8544,0.8934,0.0,0.0,0.0,0.0,1.1479,1.4337,1.4603,1.4244,1.3892,1.3163,1.2222,1.1025,0.0,0.0,0.875,1.0034,1.1039,1.0587,1.0833,1.1355,1.2095,1.1781,1.1554,1.1705,1.1761,1.2034,1.251,1.2951,1.3335,-0.3142,0.0,0.0,0.0,0.0,-0.2604,-0.3122,-0.398,-0.384,-0.3713,-0.3599,-0.3721,0.0,0.0,0.0,0.0,0.0,0.0,0.0091,-0.0379,-0.102,-0.1614,-0.2174,-0.2231,-0.2351,-0.2537,-0.2178,-0.2003,-0.2019,-0.1915,-0.0754,0.1399,0.0,0.0,0.0,0.0,0.0924,0.0298,-0.089,-0.1533,-0.1592,-0.1749,-0.1734,-0.1608,-0.1396,-0.1226,-0.1092,-0.0812,-0.0403,0.0178,0.0432,0.0,0.0,0.0,0.0,0.0,0.0,0.0,0.0,0.0,0.0,0.0,0.0,0.0,0.0,0.0,0.0,0.0,0.0,0.0,0.426,0.3904,0.4121,0.0,0.0,0.0,0.0,0.0,0.0,0.0,0.0,0.0,0.7818,0.8266,0.8628,0.0,0.0,1.1861,1.2919,1.2954,1.2865,1.2776,0.0,0.0,0.0,1.0561,1.0615,1.0724,1.028,0.9903,0.986,0.9793,0.9809,1.001,1.0346,1.0702,1.0891,1.1101,1.1217,1.1405,1.1459,1.1685,1.2308,1.261,1.2836,-0.4924,-0.4336,-0.3458,-0.3414,-0.3932,-0.3812,-0.429,-0.5164,-0.494,-0.4698,-0.4433,-0.4697,-0.3955,-0.2458,-0.2139,0.0,0.0,0.0,-0.1166,-0.1978,-0.2345,-0.2868,-0.351,-0.3571,-0.362,-0.3703,-0.3534,-0.3325,-0.3105,-0.243,-0.1265,0.0383,0.0,0.0,0.1739,0.1152,0.0522,-0.0091,-0.0899,-0.1357,-0.1474,-0.1612,-0.16,-0.1423,-0.1371,-0.1269,-0.1159,-0.1205,-0.0941,-0.0341,-0.0125,0.0319,0.0,0.0,0.0,0.0,0.0,0.0,0.0,0.0,0.0,0.0,0.0,0.1795,0.2035,0.0,0.0,0.0,0.3434,0.3829,0.3695,0.3575,0.0,0.0,0.0,0.0,0.0,0.0,0.0,0.9213,0.8097,0.7315,0.7552,0.7603,0.7859,0.8585,1.0136,1.1491,1.2344,0.0,1.1801,1.1411,1.1378,1.0951,0.9695,0.93,0.9196,0.9222,0.8952,0.8882,0.9193,0.8877,0.8769,0.9163,0.9545,0.9895,1.0193,1.0571,1.0959,1.1315,1.151,1.1791,1.2443,1.2556,1.2726,-0.6579,-0.6592,-0.4597,-0.4339,-0.5209,-0.4922,-0.5352,-0.6213,-0.5926,-0.5311,-0.4605,-0.532,-0.4604,-0.2753,-0.196,0.0,-0.2768,-0.2495,-0.2826,-0.3675,-0.4275,-0.4554,-0.4608,-0.4534,-0.4511,-0.448,-0.4026,-0.3733,-0.3434,-0.2144,-0.1411,-0.1218,-0.0804,-0.01,0.0781,0.0549,0.025,-0.0091,-0.0556,-0.0962,-0.1317,-0.1317,-0.1317,-0.1335,-0.1442,-0.1423,-0.1286,-0.1539,-0.162,-0.1386,-0.0703,-0.0368,-0.0448,0.0,0.0,0.0,0.0,0.0,0.0,0.0,0.0,0.0,0.0,0.0,0.0,0.0,0.0,0.0,0.3365,0.0,0.346,0.3775,0.0,0.0,0.0,0.6051,0.6734,0.7347,0.7858,0.8321,0.0,0.0,0.7431,0.0,0.6565,0.7962,0.8272,0.8954,1.0543,0.9809,0.9311,1.0228,1.0315,1.0135,0.946,0.8664,0.778,0.7156,0.6856,0.7013,0.7466,0.7658,0.7851,0.8174,0.8596,0.9116,0.9787,1.0263,1.0765,1.1335,1.1666,1.2075,1.2543,1.2677,1.278,-0.7131,-0.7275,-0.6731,-0.6539,-0.6534,-0.646,-0.6584,-0.6792,-0.6717,-0.6568,-0.6369,-0.6414,-0.5698,-0.4386,-0.3641,-0.3324,-0.3404,-0.3824,-0.4086,-0.416,-0.4652,-0.4813,-0.468,-0.473,-0.4596,-0.435,-0.4182,-0.3889,-0.3502,-0.316,-0.2192,-0.0739,-0.0486,0.0185,0.122,0.1275,0.0844,-0.0019,0.0,-0.0489,-0.1492,-0.1533,-0.1533,-0.1514,-0.1562,-0.1603,-0.1649,-0.1724,-0.1678,-0.1483,-0.1303,-0.0971,-0.0428,0.0578,0.0,0.0,0.0,0.0,0.0,0.0,0.0,0.0,0.0,0.268,0.2492,0.0,0.3099,0.0,0.2795,0.2745,0.3,0.2994,0.0,0.0,0.5579,0.6147,0.7534,0.7165,0.6942,0.7335,0.6742,0.6274,0.6107,0.5877,0.5738,0.5909,0.721,0.8325,0.8733,0.8786,0.8684,0.8618,0.8063,0.7372,0.6979,0.6514,0.6193,0.5971,0.5942,0.6041,0.6407,0.6735,0.7065,0.7453,0.8253,0.8946,0.9274,0.9824,1.0459,1.0999,1.128,1.1538,1.2069,1.2182,1.2422,-0.7584,-0.7776,-0.7872,-0.78,-0.7603,-0.7325,-0.7237,-0.7229,-0.7164,-0.713,-0.7112,-0.6597,-0.6072,-0.5504,-0.4836,-0.4438,-0.4361,-0.501,-0.5227,-0.5084,-0.5597,-0.5728,-0.5521,-0.557,-0.5352,-0.4838,-0.4638,-0.428,-0.3734,-0.3522,-0.2846,-0.1635,-0.1452,-0.0674,0.0706,0.1586,0.1675,0.0994,0.0606,-0.0297,-0.174,-0.1667,-0.1406,-0.0984,-0.1069,-0.0858,-0.0324,-0.0426,-0.042,-0.0224,-0.0207,-0.0017,0.0378,0.1234,0.1809,0.0,0.0,0.0,0.0,0.0,0.0,0.0,0.0,0.0,0.0,0.0,0.3338,0.0,0.2884,0.0,0.3121,0.3159,0.3635,0.4885,0.504,0.5456,0.6429,0.6082,0.5873,0.6147,0.5659,0.5241,0.5109,0.5039,0.4905,0.4735,0.5681,0.6527,0.6768,0.6981,0.6981,0.6695,0.6219,0.5704,0.5253,0.5166,0.5197,0.5366,0.5411,0.5559,0.5909,0.6307,0.6626,0.6879,0.7655,0.8378,0.8652,0.9275,0.9947,1.0413,1.0731,1.1162,1.1938,1.2101,1.2308,-0.8023,-0.8233,-0.8425,-0.8511,-0.852,-0.8006,-0.7723,-0.7607,-0.7445,-0.7395,-0.7315,-0.643,-0.6098,-0.6175,-0.5559,-0.5227,-0.5219,-0.5844,-0.6072,-0.5954,-0.6497,-0.6636,-0.6384,-0.6418,-0.6084,-0.5387,-0.511,-0.4599,-0.3945,-0.3619,-0.3199,-0.2703,-0.2548,-0.1599,0.0122,0.1651,0.2319,0.2135,0.1061,-0.0261,-0.1795,-0.14,-0.0753,0.0019,-0.0128,0.0318,0.1484,0.1263,0.1198,0.1363,0.1401,0.1372,0.1261,0.2013,0.242,0.0,0.2923,0.0,0.0,0.0,0.0,0.0,0.0,0.0,0.0,0.3386,0.3809,0.3777,0.32,0.2994,0.3332,0.3519,0.3668,0.3731,0.4066,0.4378,0.448,0.4613,0.4772,0.5003,0.4618,0.4385,0.4451,0.4277,0.4215,0.4262,0.4389,0.4718,0.5023,0.5168,0.5149,0.4857,0.4856,0.488,0.4652,0.4572,0.4708,0.5039,0.5125,0.5251,0.5591,0.6003,0.6333,0.6406,0.705,0.7702,0.7996,0.8646,0.9266,0.9771,1.0119,1.0653,1.1599,1.1929,1.2259,-0.8527,-0.8909,-0.8929,-0.9162,-0.9446,-0.9327,-0.888,-0.8211,-0.8024,-0.7844,-0.7631,-0.6733,-0.6324,-0.6214,-0.5482,-0.5097,-0.5065,-0.5621,-0.5761,-0.5538,-0.5917,-0.593,-0.5698,-0.57,-0.5411,-0.4867,-0.4777,-0.4367,-0.3603,-0.3623,-0.2754,-0.1076,-0.112,-0.0313,0.1288,0.0,0.0,0.0,0.0663,-0.0141,-0.0427,0.0699,0.1398,0.1559,0.1276,0.0,0.1263,0.122,0.12,0.1253,0.149,0.0,0.0,0.0,0.0,0.0,0.0,0.0,0.0,0.0,0.0,0.0,0.2849,0.2991,0.3043,0.3512,0.3632,0.3226,0.3084,0.2907,0.2618,0.2648,0.2722,0.2855,0.3154,0.3384,0.3493,0.3826,0.4094,0.4153,0.4105,0.4104,0.4165,0.4172,0.4234,0.4278,0.43,0.4336,0.4456,0.449,0.4487,0.449,0.4617,0.4646,0.4589,0.463,0.4693,0.4791,0.4794,0.4833,0.4953,0.5501,0.5898,0.5974,0.6805,0.7602,0.7675,0.8037,0.8584,0.9266,0.9482,0.9807,1.0635,1.1038,1.1361,-0.9007,0.0,-0.9607,-0.9807,0.0,-0.9999,-0.9697,-0.9153,-0.8775,-0.8348,-0.7915,-0.7142,-0.6651,-0.6404,-0.5682,-0.5275,-0.5139,-0.5619,-0.5776,-0.567,-0.5946,-0.5938,-0.5696,-0.5696,-0.54,-0.4845,-0.4615,-0.4244,-0.3755,-0.3486,-0.2811,-0.1793,-0.175,-0.1258,-0.0356,-0.0212,0.0085,0.0606,0.0103,-0.052,-0.1212,-0.0428,0.0295,0.0844,0.0,0.0,0.0,0.0,0.0,0.0,0.0,0.0,0.0,0.0,0.0,0.0887,0.1212,0.148,0.1593,0.1811,0.2007,0.2142,0.2428,0.2732,0.3023,0.3251,0.3153,0.269,0.2613,0.2425,0.2143,0.2091,0.2127,0.2236,0.264,0.2996,0.3108,0.3564,0.3899,0.391,0.4008,0.4061,0.4091,0.4174,0.427,0.4303,0.4305,0.4308,0.4311,0.4333,0.4382,0.4471,0.4594,0.4652,0.4657,0.4677,0.4701,0.4701,0.4701,0.4701,0.4701,0.532,0.5789,0.5861,0.6624,0.7276,0.7353,0.7607,0.8,0.8398,0.8765,0.9157,0.9807,1.0498,1.1116,-0.9506,-0.9917,-1.0233,-1.0418,-1.048,-1.048,-1.0316,-1.0009,0.0,0.0,0.0,-0.7485,-0.7007,-0.6641,-0.5964,-0.5538,-0.5354,-0.5717,-0.5861,-0.5876,-0.6034,-0.6014,-0.5816,-0.5729,-0.5416,-0.4882,-0.4434,-0.41,-0.385,-0.3298,-0.3022,-0.298,-0.2831,-0.2661,-0.2494,-0.2317,-0.1834,-0.1023,-0.0469,-0.0837,-0.209,-0.1645,-0.0943,0.0,0.0019,0.0566,0.1706,0.1746,0.175,0.1759,0.1818,0.1669,0.13,0.1272,0.1265,0.1265,0.1286,0.1259,0.1251,0.1433,0.1583,0.1671,0.1973,0.2353,0.2849,0.2784,0.259,0.2295,0.2068,0.1898,0.1797,0.1809,0.1825,0.1884,0.2429,0.2873,0.3008,0.3507,0.3897,0.392,0.3989,0.4093,0.4096,0.4199,0.4305,0.4305,0.4305,0.4319,0.4341,0.4384,0.4447,0.4581,0.4649,0.4699,0.4701,0.4699,0.4701,0.4701,0.4701,0.4701,0.481,0.532,0.5752,0.5789,0.6482,0.6918,0.7027,0.728,0.753,0.7602,0.8145,0.8765,0.9266,1.0173,1.1002,-1.0131,-1.0554,-1.0606,-1.0826,-1.1166,-1.1145,-1.0815,-1.02,-0.9396,-0.8857,-0.8565,-0.7619,-0.7161,-0.7065,-0.6228,-0.5834,-0.5801,-0.5795,-0.5773,0.0,-0.548,-0.5404,-0.5432,-0.506,-0.4696,-0.4395,-0.4082,-0.3728,-0.3333,-0.3219,-0.3089,-0.2936,-0.2892,-0.287,-0.2828,-0.2791,-0.2727,-0.2546,-0.1003,-0.0411,-0.0827,0.0374,0.1073,0.1225,0.0926,0.0928,0.1205,0.114,0.1144,0.1212,0.1495,0.1261,0.0451,0.0356,0.013,-0.0405,-0.0378,-0.0292,-0.0094,0.0541,0.1124,0.1584,0.1866,0.212,0.2283,0.2136,0.2077,0.2101,0.1882,0.176,0.1774,0.1801,0.1912,0.2203,0.2616,0.2981,0.3268,0.3653,0.3909,0.3895,0.402,0.4093,0.4109,0.4234,0.4305,0.4305,0.4313,0.4343,0.4431,0.4501,0.4534,0.4597,0.466,0.4696,0.4701,0.4701,0.4701,0.4701,0.4701,0.4701,0.4701,0.532,0.5752,0.5789,0.6442,0.6918,0.699,0.7027,0.7244,0.7494,0.7933,0.8403,0.9121,0.9993,1.072,-1.0575,-1.0857,-1.0974,-1.1145,-1.1284,-1.1176,-1.0962,-1.0602,-0.9871,-0.9172,-0.8473,-0.7813,-0.7326,-0.6999,-0.6518,-0.6151,-0.5886,-0.5967,-0.5889,-0.5689,-0.5454,-0.5284,-0.5142,-0.4701,-0.4348,-0.4058,-0.3585,-0.3247,-0.3045,-0.2892,-0.276,-0.2695,-0.2807,-0.2897,-0.2897,-0.2897,-0.2897,-0.2872,-0.2086,-0.1657,-0.1612,-0.0996,-0.0595,-0.0463,-0.0646,-0.0633,-0.0434,-0.0469,-0.0493,-0.0482,-0.031,-0.0467,-0.1043,-0.0955,-0.0979,-0.1149,-0.106,-0.0812,-0.0417,0.0345,0.0967,0.1337,0.163,0.1815,0.1873,0.1935,0.2001,0.2096,0.1856,0.1723,0.1797,0.1801,0.1939,0.227,0.2672,0.3017,0.3347,0.3699,0.39,0.3966,0.4039,0.4104,0.4139,0.422,0.4305,0.4308,0.4333,0.4401,0.4512,0.457,0.4553,0.4649,0.4682,0.4699,0.4701,0.4701,0.4701,0.4701,0.4701,0.4701,0.4738,0.5317,0.5716,0.5861,0.6478,0.6918,0.699,0.699,0.7099,0.7244,0.7752,0.8295,0.891,1.0003,1.1002,-1.1006,-1.1165,-1.1262,-1.1284,-1.1284,-1.1132,-1.1046,-1.0939,-1.0392,-0.9604,-0.8716,-0.8214,-0.7699,-0.7192,-0.6957,-0.665,-0.6291,-0.6291,-0.6163,-0.5898,-0.5635,-0.5327,-0.4959,-0.4456,-0.4076,-0.379,-0.3183,-0.2892,-0.2869,-0.2693,-0.2603,-0.2626,-0.2807,-0.2897,-0.2897,-0.2897,-0.2897,-0.2897,-0.2911,-0.2796,-0.2603,-0.2615,-0.2504,-0.2307,-0.2345,-0.2259,-0.1979,-0.2022,-0.2044,-0.2026,-0.1887,-0.1936,-0.2159,-0.1916,-0.1673,-0.1519,-0.1268,-0.0842,-0.0252,0.0353,0.0833,0.1086,0.1289,0.1442,0.155,0.1704,0.1906,0.1961,0.1844,0.1738,0.1786,0.1793,0.1929,0.2285,0.2579,0.2925,0.3275,0.3554,0.3725,0.3776,0.3832,0.3891,0.3947,0.4103,0.421,0.4301,0.439,0.4477,0.4589,0.4619,0.4652,0.4682,0.4701,0.4701,0.4701,0.4701,0.4701,0.4701,0.4701,0.4701,0.481,0.532,0.5756,0.5898,0.6446,0.6918,0.699,0.699,0.699,0.7063,0.7534,0.816,0.8884,0.9964,1.1164,-1.1607,-1.1597,-1.1392,-1.1284,-1.1284,-1.1262,-1.1176,-1.0982,-1.0731,-1.026,-0.9563,-0.8893,-0.8396,-0.7988,-0.7775,-0.7509,-0.7202,-0.684,-0.661,-0.6416,-0.5798,-0.5327,-0.4959,-0.4295,-0.3831,-0.3611,-0.3163,-0.2917,-0.2894,-0.2875,-0.2875,-0.2875,-0.2897,-0.2897,-0.2897,-0.2897,-0.2897,-0.2897,-0.2969,-0.2947,-0.288,-0.2924,-0.2924,-0.2847,-0.2896,-0.2849,-0.2652,-0.2773,-0.2756,-0.2689,-0.2345,-0.2159,-0.2151,-0.1781,-0.1547,-0.1575,-0.1114,-0.0495,0.0227,0.0404,0.0555,0.0808,0.0858,0.1017,0.1291,0.1347,0.1461,0.165,0.1757,0.1785,0.1791,0.1796,0.1968,0.2317,0.2447,0.2606,0.2975,0.3081,0.3072,0.3087,0.3233,0.3211,0.3327,0.3641,0.4026,0.435,0.4474,0.4583,0.4616,0.4655,0.4685,0.4699,0.4701,0.4701,0.4701,0.4701,0.4701,0.4701,0.4701,0.4701,0.4847,0.5283,0.5789,0.5861,0.6478,0.6954,0.699,0.699,0.699,0.7063,0.743,0.8029,0.9103,0.9855,1.0528,-1.1607,-1.1456,-1.1348,-1.1219,-1.1165,-1.1251,-1.1197,-1.1003,-1.0909,-1.0717,-1.045,-1.0053,-0.9354,-0.8456,-0.823,-0.8024,-0.7785,-0.7419,-0.7077,-0.6739,-0.6144,-0.5637,-0.5186,-0.4474,-0.3965,-0.3611,-0.323,-0.3029,-0.2936,-0.3006,-0.3163,-0.3275,-0.3163,-0.3074,-0.3074,-0.2962,-0.2897,-0.2897,-0.2919,-0.2942,-0.2905,-0.2975,-0.2955,-0.2908,-0.2952,-0.2944,-0.2875,-0.2939,-0.2874,-0.2645,-0.2456,-0.2316,-0.22,-0.1896,-0.1667,-0.1536,-0.0922,-0.0351,0.0126,0.0303,0.0429,0.0555,0.0707,0.0866,0.1011,0.1179,0.1354,0.1456,0.1661,0.1789,0.1794,0.1838,0.2019,0.2303,0.2439,0.2603,0.2958,0.2991,0.3018,0.3056,0.3087,0.3126,0.3224,0.3546,0.4006,0.4372,0.4523,0.4619,0.4655,0.4685,0.4699,0.4701,0.4701,0.4701,0.4701,0.4701,0.4701,0.4701,0.4701,0.4701,0.481,0.5317,0.5789,0.5789,0.6478,0.6954,0.699,0.699,0.699,0.7063,0.7353,0.7924,0.8945,0.9356,0.9861,-1.1499,-1.1284,-1.1197,-1.1046,-1.0938,-1.1068,-1.1046,-1.0927,-1.0897,-1.0866,-1.0801,-1.0705,-1.0066,-0.9119,-0.8876,-0.8652,-0.8312,-0.8023,-0.7584,-0.7037,-0.6524,-0.5991,-0.5436,-0.4812,-0.43,-0.3898,-0.3563,-0.3294,-0.3135,-0.3224,-0.3428,-0.354,-0.3406,-0.3272,-0.3183,-0.3051,-0.2939,-0.29,-0.2925,-0.2953,-0.2911,-0.2992,-0.2994,-0.2933,-0.2975,-0.2978,-0.29,-0.2867,-0.2756,-0.2516,-0.237,-0.2262,-0.2122,-0.1927,-0.1698,-0.1408,-0.0852,-0.0379,-0.0126,0.0151,0.0278,0.0303,0.0482,0.0616,0.0705,0.0903,0.1135,0.1318,0.1514,0.169,0.1795,0.185,0.2031,0.2244,0.2332,0.2467,0.2683,0.2716,0.2747,0.2822,0.2741,0.2908,0.3094,0.3458,0.3887,0.4256,0.449,0.4646,0.4688,0.4699,0.4701,0.4701,0.4701,0.4701,0.4701,0.4701,0.4701,0.4701,0.4701,0.4701,0.4738,0.5353,0.5789,0.5861,0.6551,0.6918,0.699,0.699,0.699,0.7063,0.7285,0.7688,0.8415,0.8673,0.896,-1.1327,-1.1241,-1.0895,-1.0733,-1.0711,-1.0754,-1.0722,-1.0692,-1.0636,-1.0522,-1.0417,-1.0543,-1.0333,-0.9821,-0.9805,-0.9522,-0.8899,-0.8585,-0.8104,-0.7467,-0.6937,-0.6368,-0.5675,-0.5186,-0.4835,-0.4527,-0.4121,-0.3805,-0.363,-0.3585,-0.3585,-0.363,-0.363,-0.3473,-0.3294,-0.3227,-0.3096,-0.2978,-0.3042,-0.303,-0.295,-0.3033,-0.303,-0.2936,-0.2972,-0.2975,-0.2883,-0.2653,-0.2518,-0.2493,-0.2078,-0.1862,-0.1903,-0.1723,-0.1509,-0.1232,-0.0933,-0.0656,-0.0379,-0.0101,0.0,0.0,0.0,0.0157,0.0398,0.0486,0.0741,0.123,0.1286,0.1428,0.1718,0.1851,0.1913,0.1948,0.2001,0.2065,0.2069,0.2165,0.2098,0.2178,0.2231,0.2401,0.273,0.3126,0.3582,0.3985,0.44,0.466,0.4623,0.4665,0.4665,0.4701,0.4701,0.4701,0.4701,0.4701,0.4701,0.4701,0.4701,0.4738,0.4956,0.5208,0.5571,0.597,0.6587,0.6918,0.6954,0.699,0.699,0.7027,0.7027,0.7413,0.7936,0.7948,0.8232,-1.137,-1.1079,-1.0959,-1.0711,-1.0463,-1.0624,-1.0608,-1.0466,-1.0553,-1.0564,-1.0511,-1.0572,-1.0439,-1.0161,-1.0046,-0.9769,-0.931,-0.8662,-0.8201,-0.7848,-0.6981,-0.6324,-0.5947,-0.5458,-0.5062,-0.4728,-0.4634,-0.4563,-0.4496,-0.4496,-0.45,-0.4433,-0.4188,-0.4009,-0.3875,-0.3607,-0.3451,-0.3409,-0.33,-0.3225,-0.3212,-0.3109,-0.2974,-0.2905,-0.2939,-0.2849,-0.2628,-0.2536,-0.237,-0.2081,-0.189,-0.1761,-0.1718,-0.1634,-0.1479,-0.1212,-0.0959,-0.0682,-0.0404,-0.0126,0.0,0.0,0.0,0.0,0.016,0.0298,0.0524,0.0726,0.0953,0.1182,0.1513,0.1775,0.1885,0.1894,0.1969,0.2008,0.2012,0.2024,0.2019,0.2091,0.2127,0.2305,0.2643,0.3113,0.3439,0.3641,0.4028,0.4291,0.4335,0.4335,0.4447,0.4629,0.4701,0.4701,0.4701,0.4701,0.4701,0.4701,0.4738,0.4883,0.5065,0.5462,0.5825,0.6155,0.6664,0.6954,0.699,0.699,0.699,0.699,0.699,0.7133,0.7452,0.7586,0.7841,-1.1241,-1.0916,-1.0808,-1.0581,-1.0332,-1.0429,-1.0322,-1.0112,-1.0221,-1.0264,-1.027,-1.0299,-1.0219,-1.0059,-0.9898,-0.9623,-0.9264,-0.8567,-0.8158,-0.7865,-0.6864,-0.6368,-0.6214,-0.5775,-0.5466,-0.5275,-0.523,-0.5142,-0.5008,-0.5008,-0.5008,-0.4964,-0.4679,-0.4433,-0.4281,-0.3991,-0.3835,-0.3697,-0.3558,-0.348,-0.3415,-0.3357,-0.3176,-0.3006,-0.3026,-0.2869,-0.2516,-0.2424,-0.222,-0.1842,-0.1745,-0.1667,-0.1602,-0.1579,-0.1516,-0.1314,-0.0985,-0.0732,-0.053,-0.0202,0.0,0.0,0.0,0.0,0.0,0.0164,0.0277,0.0419,0.0589,0.0903,0.1321,0.1605,0.1801,0.1873,0.1945,0.2008,0.2009,0.2001,0.2034,0.2076,0.2154,0.2321,0.258,0.3044,0.3365,0.3419,0.392,0.426,0.4299,0.4299,0.4374,0.4629,0.4701,0.4701,0.4738,0.481,0.492,0.492,0.4956,0.5065,0.5356,0.572,0.6047,0.6373,0.6631,0.6881,0.699,0.699,0.699,0.699,0.6998,0.708,0.7232,0.7277,0.7676,-1.0916,-1.0711,-1.0429,-1.0364,-1.0289,-1.0147,-0.9881,-0.9695,-0.9668,-0.9706,-0.9724,-0.9704,-0.9704,-0.9587,-0.9457,-0.9145,-0.8714,-0.8365,-0.7978,-0.743,-0.6729,-0.6452,-0.6525,-0.6128,-0.6057,-0.6229,-0.5897,-0.5475,-0.5119,-0.5102,-0.508,-0.5035,-0.4991,-0.4728,-0.4326,-0.434,-0.4135,-0.3881,-0.3864,-0.3774,-0.3567,-0.3723,-0.3599,-0.3204,-0.3289,-0.3098,-0.2548,-0.2318,-0.2092,-0.1834,-0.1626,-0.1528,-0.1599,-0.1615,-0.1617,-0.1491,-0.1112,-0.0858,-0.0732,-0.0329,0.0,0.0,0.0,0.0,0.0,0.0,0.014,0.0308,0.0393,0.065,0.1209,0.1375,0.1543,0.1837,0.1958,0.2006,0.2013,0.2003,0.2044,0.2098,0.2172,0.22,0.2366,0.2918,0.3375,0.3521,0.404,0.4519,0.4519,0.4483,0.4629,0.4701,0.4701,0.4701,0.481,0.4959,0.5101,0.5211,0.5247,0.5356,0.572,0.6083,0.6264,0.6555,0.6736,0.699,0.699,0.699,0.699,0.699,0.7003,0.7023,0.7113,0.7244,0.7591,-1.1089,-1.0894,-1.0829,-1.0581,-1.0311,-1.0224,-0.9975,-0.9606,-0.9611,-0.9518,-0.9415,-0.9423,-0.9346,-0.9154,-0.899,-0.861,-0.8082,-0.7737,-0.7501,-0.7278,-0.6654,-0.6441,-0.655,-0.6469,-0.6474,-0.6593,-0.6346,-0.6035,-0.5769,-0.5569,-0.5463,-0.5441,-0.5146,-0.4961,-0.4795,-0.4564,-0.4371,-0.4378,-0.4238,-0.4128,-0.4037,-0.3957,-0.3739,-0.3439,-0.3432,-0.3222,-0.2668,-0.2357,-0.2122,-0.1948,-0.1652,-0.152,-0.1605,-0.1756,-0.1768,-0.1617,-0.1465,-0.1162,-0.0809,-0.0485,-0.018,0.0,0.0,0.0,0.0,0.0,0.0,0.0,0.0,0.0402,0.0963,0.1127,0.135,0.184,0.1958,0.2008,0.2015,0.2051,0.2107,0.2161,0.2183,0.2193,0.2344,0.2896,0.3297,0.318,0.381,0.4335,0.4335,0.4374,0.441,0.4629,0.4665,0.481,0.4992,0.525,0.5505,0.5647,0.5683,0.5756,0.6119,0.6337,0.6555,0.67,0.6881,0.6954,0.699,0.699,0.699,0.699,0.6994,0.7043,0.7109,0.729,0.7548,-1.1327,-1.1089,-1.1035,-1.0829,-1.0559,-1.0494,-1.0139,-0.9672,-0.9663,-0.9458,-0.921,-0.9018,-0.8932,-0.8818,-0.8532,-0.8112,-0.7691,-0.7334,-0.7211,-0.7143,-0.6661,-0.6571,-0.6865,-0.7046,-0.6982,-0.688,-0.6745,-0.6457,-0.6108,-0.593,-0.5774,-0.5552,-0.528,-0.5088,-0.5005,-0.4726,-0.4656,-0.4667,-0.4564,-0.4432,-0.4333,-0.4284,-0.4013,-0.3606,-0.3602,-0.3385,-0.2912,-0.2559,-0.232,-0.215,-0.1927,-0.1814,-0.1787,-0.2009,-0.207,-0.1918,-0.1691,-0.1415,-0.1114,-0.0796,-0.0521,-0.0342,-0.0215,0.0,0.0,0.0,0.0,0.0,0.0,0.0203,0.0711,0.0809,0.1058,0.1492,0.1842,0.1981,0.2026,0.2066,0.2105,0.2141,0.2185,0.2159,0.2313,0.2871,0.3275,0.3194,0.3763,0.4335,0.4335,0.4371,0.4519,0.4701,0.4847,0.4992,0.5174,0.5505,0.5868,0.6014,0.6119,0.6301,0.6555,0.6627,0.6773,0.6845,0.699,0.699,0.699,0.699,0.699,0.699,0.699,0.7019,0.7064,0.7076,0.7335,-1.1543,-1.1284,-1.11,-1.1013,-1.0938,-1.0776,-1.032,-0.9764,-0.9714,-0.9429,-0.899,-0.8665,-0.8532,-0.8513,-0.8159,-0.7776,-0.748,-0.7296,-0.715,-0.7013,-0.6822,-0.7002,-0.7509,-0.7764,-0.765,-0.7268,-0.7136,-0.6745,-0.6197,-0.608,-0.5863,-0.5463,-0.5352,-0.5187,-0.4889,-0.4857,-0.4777,-0.472,-0.4744,-0.4651,-0.4454,-0.458,-0.4404,-0.3695,-0.374,-0.3635,-0.3196,-0.2865,-0.2622,-0.2437,-0.2319,-0.221,-0.2118,-0.2297,-0.2395,-0.232,-0.1918,-0.1695,-0.1523,-0.1187,-0.0919,-0.0801,-0.057,-0.0413,-0.0391,0.0,0.0,0.0,0.0,0.0117,0.0389,0.0514,0.07,0.1015,0.1574,0.1894,0.2015,0.2042,0.2093,0.21,0.21,0.2113,0.2152,0.2884,0.3288,0.3518,0.4092,0.4506,0.4629,0.4592,0.4701,0.4847,0.5032,0.5323,0.5541,0.5829,0.6159,0.641,0.6519,0.6627,0.6773,0.6845,0.6881,0.6954,0.699,0.699,0.699,0.699,0.699,0.699,0.699,0.699,0.7015,0.7068,0.7343,-1.1554,-1.1305,-1.1241,-1.1132,-1.1013,-1.0938,-1.0457,-0.9754,-0.9714,-0.9369,-0.8846,-0.8665,-0.8475,-0.8255,-0.8102,-0.7757,-0.7392,-0.7238,-0.7277,-0.7355,-0.7612,-0.7908,-0.8261,-0.8395,-0.8245,-0.7863,-0.7518,-0.7003,-0.6368,-0.6191,-0.5886,-0.5419,-0.5218,-0.5058,-0.4891,-0.4746,-0.4727,-0.4752,-0.4768,-0.4759,-0.4688,-0.4562,-0.4311,-0.3956,-0.3764,-0.3538,-0.3254,-0.314,-0.2857,-0.2454,-0.2412,-0.237,-0.2322,-0.2549,-0.2624,-0.2473,-0.2423,-0.221,-0.1777,-0.1543,-0.1305,-0.0922,-0.0854,-0.0753,-0.0756,-0.0482,-0.0457,-0.0491,-0.0293,0.0,0.0151,0.0335,0.0614,0.0986,0.1329,0.1709,0.1918,0.2026,0.2038,0.2092,0.2114,0.2108,0.2309,0.2807,0.3359,0.355,0.4068,0.4665,0.4629,0.4774,0.481,0.5032,0.525,0.5577,0.5905,0.6195,0.6482,0.6773,0.6845,0.6845,0.6918,0.6954,0.6954,0.699,0.699,0.699,0.699,0.699,0.699,0.699,0.699,0.699,0.699,0.7059,0.7471,-1.1629,-1.1284,-1.1284,-1.1241,-1.1132,-1.1121,-1.0678,-1.0039,-0.9836,-0.9438,-0.8894,-0.8627,-0.8437,-0.8217,-0.8044,-0.7795,-0.7477,-0.745,-0.7526,-0.77,-0.8187,-0.8626,-0.8837,-0.8825,-0.8552,-0.8179,-0.7848,-0.7253,-0.6634,-0.6346,-0.5947,-0.5436,-0.5146,-0.494,-0.4765,-0.4672,-0.4683,-0.4773,-0.4784,-0.4784,-0.4784,-0.4663,-0.4361,-0.4085,-0.3833,-0.361,-0.3279,-0.3206,-0.3002,-0.27,-0.2675,-0.27,-0.2599,-0.2826,-0.2876,-0.275,-0.2675,-0.2416,-0.2098,-0.1844,-0.1582,-0.131,-0.1167,-0.1092,-0.1012,-0.0797,-0.072,-0.0786,-0.0565,-0.0453,-0.0366,-0.0123,0.0216,0.0525,0.0869,0.1251,0.1734,0.1936,0.2045,0.2098,0.2091,0.2121,0.2185,0.2793,0.3094,0.3353,0.39,0.4252,0.4447,0.4701,0.4956,0.5177,0.5541,0.5941,0.6232,0.6446,0.6627,0.6918,0.699,0.699,0.699,0.699,0.699,0.699,0.699,0.699,0.699,0.699,0.699,0.699,0.699,0.699,0.7027,0.7172,0.7583,-1.1748,-1.1348,-1.1327,-1.1284,-1.1284,-1.1284,-1.089,-1.0325,-1.005,-0.9597,-0.9009,-0.8599,-0.8437,-0.836,-0.8102,-0.7861,-0.7784,-0.7827,-0.7944,-0.8221,-0.8704,-0.9175,-0.933,-0.9126,-0.8771,-0.8354,-0.8069,-0.7496,-0.6922,-0.6567,-0.608,-0.5547,-0.5191,-0.4922,-0.4748,-0.4644,-0.4691,-0.4777,-0.4784,-0.4784,-0.4784,-0.4709,-0.4437,-0.4059,-0.3833,-0.3607,-0.3305,-0.3181,-0.3078,-0.2876,-0.3053,-0.2952,-0.2826,-0.3027,-0.3053,-0.2957,-0.2635,-0.2428,-0.2366,-0.1987,-0.1778,-0.1674,-0.1476,-0.1348,-0.1298,-0.1117,-0.1018,-0.1121,-0.1019,-0.0913,-0.086,-0.0648,-0.034,0.0031,0.0314,0.0788,0.1301,0.1793,0.2065,0.2103,0.2097,0.2127,0.2268,0.252,0.286,0.309,0.3663,0.4109,0.4447,0.4774,0.5065,0.532,0.5792,0.6341,0.6555,0.6736,0.6845,0.699,0.699,0.699,0.699,0.699,0.699,0.699,0.699,0.699,0.699,0.699,0.699,0.699,0.699,0.7027,0.7099,0.7317,0.767,-1.1855,-1.1597,-1.137,-1.1284,-1.1284,-1.1284,-1.0911,-1.0324,-1.0101,-0.9647,-0.9048,-0.8742,-0.8551,-0.8399,-0.8302,-0.8102,-0.7915,-0.8151,-0.8511,-0.9024,-0.9287,-0.9599,-0.974,-0.9559,-0.9187,-0.8749,-0.8332,-0.776,-0.7165,-0.6789,-0.6346,-0.5697,-0.5394,-0.514,-0.4847,-0.4681,-0.4659,-0.4777,-0.4784,-0.4784,-0.4759,-0.4612,-0.4361,-0.3984,-0.3632,-0.3358,-0.3257,-0.3206,-0.3181,-0.3106,-0.2957,-0.2863,-0.2808,-0.2679,-0.2656,-0.2614,-0.2536,-0.2388,-0.2222,-0.2125,-0.1998,-0.1807,-0.1709,-0.1692,-0.1659,-0.1452,-0.1446,-0.1529,-0.1279,-0.1106,-0.1018,-0.071,-0.0497,-0.0282,0.0126,0.0542,0.0778,0.1264,0.1719,0.2002,0.2096,0.2165,0.2218,0.2567,0.2825,0.2967,0.3415,0.3969,0.4374,0.4738,0.5174,0.5538,0.6083,0.6555,0.6736,0.6845,0.6918,0.699,0.699,0.699,0.699,0.699,0.699,0.699,0.699,0.699,0.699,0.699,0.7027,0.699,0.7063,0.7208,0.7389,0.7566,0.7788,-1.1866,-1.1693,-1.1554,-1.1499,-1.1478,-1.1499,-1.1164,-1.0641,-1.0273,-0.9766,-0.9201,-0.8922,-0.8732,-0.8541,-0.8537,-0.8398,-0.8345,-0.8535,-0.8959,-0.9373,-0.9564,-0.9731,-0.9935,-0.9842,-0.9537,-0.9078,-0.8618,-0.8039,-0.7518,-0.7054,-0.6567,-0.5908,-0.5599,-0.5239,-0.4935,-0.4753,-0.4732,-0.4781,-0.4784,-0.4784,-0.4759,-0.4663,-0.4386,-0.4034,-0.361,-0.3344,-0.3273,-0.3094,-0.3161,-0.3151,-0.2923,-0.2757,-0.279,-0.2606,-0.2461,-0.2434,-0.2327,-0.229,-0.2174,-0.2067,-0.1926,-0.1821,-0.1808,-0.1794,-0.179,-0.1673,-0.1701,-0.1782,-0.1651,-0.1421,-0.1236,-0.0926,-0.0715,-0.0441,-0.0032,0.0322,0.0524,0.0949,0.1446,0.1808,0.1942,0.2078,0.2293,0.2539,0.2593,0.2654,0.3237,0.3791,0.4155,0.4592,0.5356,0.5829,0.6373,0.6736,0.6881,0.6954,0.6954,0.699,0.699,0.699,0.699,0.699,0.699,0.699,0.699,0.699,0.699,0.699,0.7135,0.728,0.7389,0.7534,0.7715,0.8,0.8218,-1.1952,-1.1801,-1.1769,-1.1748,-1.1748,-1.1736,-1.1458,-1.1006,-1.0597,-1.0053,-0.9439,-0.918,-0.8999,-0.8789,-0.8784,-0.8797,-0.8865,-0.8964,-0.9266,-0.9705,-0.9712,-0.9862,-1.0019,-0.9973,-0.9798,-0.9371,-0.8947,-0.8442,-0.7937,-0.743,-0.697,-0.6349,-0.585,-0.5585,-0.5204,-0.4856,-0.4818,-0.4897,-0.4834,-0.4784,-0.4784,-0.4759,-0.4508,-0.4059,-0.3758,-0.3477,-0.3308,-0.3171,-0.3119,-0.3326,-0.2937,-0.2808,-0.2774,-0.2598,-0.2378,-0.2364,-0.2153,-0.2068,-0.2061,-0.1948,-0.1826,-0.1795,-0.1794,-0.1813,-0.1829,-0.1865,-0.1866,-0.1883,-0.181,-0.1699,-0.1514,-0.105,-0.0748,-0.0506,-0.0193,0.0097,0.0395,0.0727,0.1139,0.161,0.1801,0.1928,0.2138,0.2386,0.2361,0.2478,0.3099,0.3646,0.401,0.4592,0.5392,0.5974,0.6446,0.6809,0.6954,0.6978,0.6982,0.6982,0.6982,0.7022,0.7022,0.699,0.699,0.699,0.699,0.7027,0.7099,0.7208,0.7349,0.7566,0.7747,0.7824,0.8114,0.8476,0.8657,-1.2326,-1.2262,-1.2037,-1.1952,-1.1963,-1.1952,-1.171,-1.1269,-1.1004,-1.0467,-0.9837,-0.9587,-0.9323,-0.9076,-0.9145,-0.9295,-0.9428,-0.9457,-0.9632,-1.0041,-1.0048,-1.0074,-1.0149,-1.0103,-0.9951,-0.9798,-0.9406,-0.8925,-0.8442,-0.7937,-0.7507,-0.7086,-0.6511,-0.6123,-0.5864,-0.5435,-0.5102,-0.5102,-0.496,-0.4834,-0.4809,-0.4759,-0.4591,-0.4098,-0.3859,-0.3595,-0.3387,-0.3321,-0.335,-0.3361,-0.3137,-0.3017,-0.2899,-0.249,-0.2152,-0.1964,-0.1889,-0.1876,-0.1887,-0.1857,-0.1814,-0.1801,-0.1798,-0.1826,-0.1851,-0.1881,-0.1911,-0.1869,-0.1724,-0.1544,-0.1483,-0.0957,-0.0626,-0.0414,-0.0226,0.0,0.0,0.0436,0.0913,0.1488,0.1644,0.1838,0.2114,0.2393,0.2512,0.2733,0.3245,0.3682,0.4046,0.4735,0.5607,0.6079,0.6478,0.6773,0.699,0.6974,0.6966,0.7002,0.7038,0.7087,0.7087,0.7022,0.699,0.7208,0.7208,0.7204,0.7312,0.7421,0.7679,0.7933,0.8041,0.815,0.8476,0.8801,0.8868,-1.2775,-1.2753,-1.2637,-1.2488,-1.2369,-1.2369,-1.2094,-1.1665,-1.1446,-1.0952,-1.0401,-1.0138,-0.9806,-0.952,-0.9696,-0.9947,-1.0066,-1.0078,-1.0232,-1.0463,-1.0397,-1.0299,-1.0311,-1.0212,-1.0103,-0.9973,-0.9733,-0.9415,-0.8955,-0.8546,-0.8132,-0.7684,-0.7137,-0.6828,-0.6573,-0.5984,-0.5559,-0.5411,-0.5165,-0.4935,-0.4834,-0.4809,-0.4603,-0.4351,-0.4027,-0.3819,-0.3624,-0.3302,-0.3339,-0.3387,-0.3231,-0.3119,-0.2932,-0.2652,-0.2252,-0.2016,-0.1835,-0.1768,-0.1794,-0.1789,-0.18,-0.1792,-0.1817,-0.1848,-0.1877,-0.1907,-0.1869,-0.1725,-0.1637,-0.1328,-0.0988,-0.0679,-0.047,-0.0256,0.0,0.0,0.0,0.0,0.0818,0.1351,0.1606,0.187,0.2259,0.2461,0.2694,0.3026,0.3459,0.3782,0.4068,0.4863,0.5686,0.608,0.6429,0.6721,0.69,0.6896,0.6993,0.7041,0.7126,0.717,0.734,0.7385,0.7498,0.7679,0.7607,0.753,0.7643,0.786,0.8078,0.8295,0.8403,0.8548,0.8837,0.9054,0.9127,-1.32,-1.3158,-1.3158,-1.3009,-1.2796,-1.2775,-1.2491,-1.21,-1.1887,-1.1447,-1.0872,-1.0768,-1.0454,-1.0101,-1.0259,-1.0564,-1.0799,-1.0755,-1.0766,-1.0787,-1.0701,-1.0581,-1.0494,-1.0321,-1.0212,-1.0103,-0.9973,-0.9805,-0.9425,-0.9097,-0.8768,-0.8421,-0.7941,-0.755,-0.7272,-0.6655,-0.6182,-0.5766,-0.5491,-0.5215,-0.4964,-0.4909,-0.4819,-0.4594,-0.4308,-0.4043,-0.3826,-0.348,-0.3396,-0.347,-0.3382,-0.3201,-0.313,-0.2862,-0.2571,-0.2292,-0.1996,-0.185,-0.1812,-0.1794,-0.1806,-0.1804,-0.1837,-0.1868,-0.1867,-0.1829,-0.1759,-0.1544,-0.1297,-0.1081,-0.0679,-0.0463,-0.0281,0.0,0.0,0.0,0.0,0.0369,0.0777,0.1199,0.1526,0.1895,0.2274,0.2606,0.2794,0.3154,0.3546,0.3942,0.4297,0.4914,0.5594,0.5987,0.6325,0.663,0.6786,0.6778,0.6933,0.7134,0.7258,0.7379,0.7639,0.786,0.8005,0.8078,0.8078,0.8005,0.8114,0.8259,0.8476,0.8657,0.8765,0.891,0.909,0.9235,0.9271,-1.3519,-1.3349,-1.337,-1.3243,-1.3073,-1.303,-1.2756,-1.2295,-1.2233,-1.1951,-1.1458,-1.147,-1.1258,-1.0939,-1.085,-1.1037,-1.1134,-1.109,-1.1068,-1.11,-1.0906,-1.0819,-1.0808,-1.0472,-1.0342,-1.0243,-1.0122,-0.9964,-0.9804,-0.9619,-0.9529,-0.9336,-0.8805,-0.8396,-0.8174,-0.749,-0.6811,-0.6362,-0.6042,-0.5651,-0.5292,-0.5282,-0.5042,-0.4739,-0.4425,-0.4209,-0.4002,-0.3683,-0.3603,-0.3572,-0.3578,-0.3495,-0.3413,-0.3193,-0.287,-0.25,-0.2136,-0.179,-0.1817,-0.18,-0.1814,-0.1816,-0.1873,-0.1899,-0.1812,-0.1684,-0.1575,-0.1514,-0.1019,-0.0648,-0.0463,-0.0247,0.0,0.0,0.0,0.0,0.0099,0.053,0.0902,0.1314,0.1737,0.2004,0.231,0.2633,0.292,0.3309,0.3665,0.4057,0.4488,0.5068,0.5584,0.6004,0.6344,0.6647,0.6806,0.6798,0.6991,0.7226,0.7478,0.7651,0.793,0.823,0.8367,0.8476,0.844,0.8476,0.8584,0.8693,0.8868,0.8941,0.9054,0.9157,0.9266,0.9374,0.9488,-1.4475,-1.3963,-1.3849,-1.3582,-1.3264,-1.3137,-1.2884,-1.2596,-1.253,-1.2343,-1.2072,-1.2168,-1.2049,-1.1757,-1.1549,-1.1449,-1.1499,-1.1424,-1.1338,-1.1295,-1.1122,-1.1024,-1.0959,-1.0786,-1.0603,-1.036,-1.0326,-1.0353,-1.0217,-1.0081,-1.0008,-1.0049,-0.9639,-0.929,-0.9013,-0.8411,-0.7758,-0.7104,-0.6477,-0.6067,-0.5864,-0.5652,-0.5413,-0.5227,-0.4797,-0.4498,-0.4239,-0.3959,-0.3734,-0.3631,-0.3537,-0.3526,-0.3452,-0.3248,-0.2955,-0.267,-0.2276,-0.1978,-0.1822,-0.181,-0.1805,-0.1834,-0.1864,-0.1836,-0.1707,-0.1568,-0.1266,-0.0926,-0.071,-0.0463,-0.0278,-0.0093,0.0,0.0,0.0,0.0,0.0292,0.0685,0.1118,0.1526,0.1941,0.2206,0.2511,0.2881,0.3242,0.3562,0.3881,0.42,0.4631,0.5101,0.5594,0.6034,0.6367,0.6661,0.6842,0.6914,0.7205,0.7463,0.7904,0.8093,0.8311,0.8545,0.8693,0.8868,0.8941,0.8977,0.9054,0.9085,0.9157,0.923,0.9302,0.9446,0.959,0.9699,0.9843,-1.5394,-1.4643,-1.4363,-1.3955,-1.3455,-1.3264,-1.3009,-1.2699,-1.2687,-1.259,-1.2506,-1.2581,-1.2616,-1.2499,-1.2143,-1.1951,-1.1876,-1.1834,-1.164,-1.1478,-1.1327,-1.1208,-1.1068,-1.0959,-1.0752,-1.0465,-1.0435,-1.0531,-1.0561,-1.0515,-1.0457,-1.0626,-1.0325,-1.0044,-0.9706,-0.9232,-0.8596,-0.7661,-0.6884,-0.6495,-0.6322,-0.6023,-0.5866,-0.5624,-0.5263,-0.4891,-0.4693,-0.4204,-0.3836,-0.3733,-0.3559,-0.3534,-0.3501,-0.3371,-0.3054,-0.2766,-0.2435,-0.2163,-0.1924,-0.18,-0.1797,-0.1768,-0.1682,-0.1524,-0.1414,-0.1328,-0.1143,-0.0617,-0.0401,-0.0216,0.0,0.0,0.0,0.0,0.0,0.0,0.0481,0.0838,0.12,0.1538,0.198,0.2525,0.2868,0.3257,0.3558,0.3845,0.4127,0.4407,0.4722,0.5109,0.556,0.6017,0.6519,0.6817,0.7053,0.7224,0.7458,0.7713,0.8119,0.8443,0.8636,0.8831,0.9027,0.9197,0.9363,0.9446,0.9446,0.9446,0.9446,0.9554,0.9699,0.9843,0.9951,1.0059,1.0209,-1.5953,-1.5311,-1.4845,-1.4292,-1.3625,-1.3489,-1.3115,-1.2699,-1.2699,-1.2699,-1.2729,-1.2744,-1.2923,-1.2897,-1.2719,-1.245,-1.2305,-1.2102,-1.1823,-1.1607,-1.1435,-1.1305,-1.1196,-1.1032,-1.0821,-1.0828,-1.0687,-1.0681,-1.0816,-1.0882,-1.0961,-1.1087,-1.0833,-1.0561,-1.0222,-0.9741,-0.9087,-0.8202,-0.7436,-0.6901,-0.6669,-0.6422,-0.6298,-0.6023,-0.5647,-0.5337,-0.529,-0.4508,-0.3996,-0.3895,-0.3703,-0.3556,-0.355,-0.3506,-0.3243,-0.2802,-0.2562,-0.2236,-0.1855,-0.1697,-0.1655,-0.1449,-0.1268,-0.1138,-0.105,-0.0741,-0.0556,-0.0463,-0.0247,0.0,0.0,0.0,0.0,0.0,0.0,0.0,0.0602,0.0893,0.1251,0.1583,0.2084,0.2695,0.3158,0.3485,0.375,0.3998,0.4098,0.4373,0.4601,0.4972,0.5464,0.5975,0.6606,0.7042,0.7378,0.7579,0.7737,0.795,0.8303,0.8604,0.8876,0.9092,0.9311,0.9463,0.9598,0.9718,0.9879,0.9951,0.9987,0.9987,1.0059,1.0167,1.0419,1.0606,1.075,-1.6645,-1.6097,-1.5638,-1.476,-1.3688,-1.3349,-1.303,-1.272,-1.2699,-1.2915,-1.3213,-1.3299,-1.3361,-1.3274,-1.3037,-1.2625,-1.2209,-1.2059,-1.1791,-1.1521,-1.1359,-1.1391,-1.1346,-1.1265,-1.1103,-1.1126,-1.0944,-1.0782,-1.0877,-1.108,-1.1135,-1.1179,-1.1157,-1.1015,-1.0664,-0.9967,-0.9253,-0.8713,-0.7987,-0.7442,-0.7378,-0.6832,-0.6566,-0.6466,-0.5922,-0.5592,-0.5314,-0.4676,-0.4262,-0.3972,-0.3739,-0.3622,-0.3584,-0.36,-0.3281,-0.2757,-0.2519,-0.2114,-0.1643,-0.1512,-0.1417,-0.1208,-0.1043,-0.0895,-0.071,-0.0556,-0.037,-0.0216,0.0,0.0,0.0,0.0,0.0,0.0,0.0186,0.0436,0.0753,0.1074,0.1464,0.1861,0.2393,0.2967,0.3367,0.3744,0.3962,0.4145,0.4241,0.4339,0.4574,0.4943,0.548,0.6083,0.6715,0.7355,0.7722,0.7899,0.8009,0.8228,0.8483,0.8731,0.8994,0.9377,0.9557,0.9709,0.9899,1.0138,1.0299,1.0455,1.0498,1.0389,1.0419,1.0491,1.0786,1.108,1.1201,-1.6985,-1.6569,-1.6149,-1.5248,-1.4053,-1.3493,-1.3137,-1.2957,-1.301,-1.3281,-1.3714,-1.3698,-1.367,-1.3514,-1.3231,-1.2753,-1.2297,-1.2117,-1.1804,-1.163,-1.1575,-1.1628,-1.1635,-1.1518,-1.1283,-1.1335,-1.1169,-1.1001,-1.0874,-1.121,-1.1208,-1.1189,-1.1271,-1.1165,-1.0767,-1.0015,-0.9285,-0.8798,-0.8322,-0.7774,-0.7642,-0.7204,-0.6871,-0.676,-0.6265,-0.5931,-0.5541,-0.4983,-0.4404,-0.4086,-0.3811,-0.3617,-0.3584,-0.3478,-0.3202,-0.2747,-0.2285,-0.1875,-0.1372,-0.1092,-0.1021,-0.0858,-0.0678,-0.0556,0.0,0.0,-0.0216,0.0,0.0,0.0,0.0,0.0,0.0,0.0185,0.0309,0.0558,0.0999,0.1352,0.1741,0.2168,0.2675,0.3171,0.3525,0.3868,0.4091,0.4238,0.4238,0.4406,0.4675,0.5077,0.5647,0.625,0.6886,0.7522,0.8089,0.8195,0.83,0.8377,0.8598,0.8788,0.908,0.9474,0.9783,0.9942,1.0173,1.0514,1.0725,1.0894,1.0822,1.0714,1.0822,1.0966,1.1074,1.1374,1.1486,-1.6943,-1.6569,-1.6335,-1.5734,-1.4864,-1.4053,-1.3621,-1.3527,-1.3718,-1.3935,-1.412,-1.3771,-1.3647,-1.3662,-1.3331,-1.2854,-1.2475,-1.2343,-1.2115,-1.1826,-1.1788,-1.1996,-1.1844,-1.161,-1.1368,-1.1421,-1.123,-1.0965,-1.083,-1.1127,-1.1123,-1.1027,-1.1063,-1.1035,-1.0766,-1.0128,-0.9354,-0.8589,-0.8189,-0.7781,-0.7432,-0.721,-0.7127,-0.696,-0.652,-0.613,-0.5824,-0.5011,-0.447,-0.4216,-0.3829,-0.3639,-0.3619,-0.3563,-0.3143,-0.2356,-0.2217,-0.1727,-0.099,-0.0632,-0.0517,-0.0493,0.0,0.0,0.0,0.0,0.0,0.0,0.0,0.0,0.0,0.0,0.0,0.0371,0.0494,0.0776,0.1219,0.1702,0.2099,0.2431,0.286,0.3331,0.3675,0.3996,0.4191,0.4305,0.4305,0.4473,0.4742,0.5245,0.5848,0.6451,0.7054,0.7655,0.8223,0.8456,0.8556,0.8623,0.8728,0.8974,0.9251,0.9653,0.9916,1.0153,1.054,1.0944,1.1126,1.1296,1.1208,1.1112,1.1296,1.144,1.1548,1.1617,1.1685,-1.7535,-1.7317,-1.7085,-1.6705,-1.6106,-1.5218,-1.4687,-1.4524,-1.4692,-1.4736,-1.4629,-1.4437,-1.4196,-1.3951,-1.3506,-1.3056,-1.2649,-1.2411,-1.2204,-1.1986,-1.1934,-1.1925,-1.1835,-1.1603,-1.1386,-1.1448,-1.1259,-1.1017,-1.1016,-1.1138,-1.1062,-1.0948,-1.0708,-1.0563,-1.0315,-0.9829,-0.9147,-0.8567,-0.818,-0.7826,-0.7493,-0.7299,-0.7182,-0.7154,-0.6604,-0.6219,-0.5963,-0.5011,-0.4456,-0.4211,-0.3765,-0.3639,-0.3581,-0.3532,-0.3014,-0.2276,-0.1971,-0.1228,-0.0579,-0.0184,-0.0153,0.0,0.0,0.0,0.0,0.0,0.0,0.0,0.0,0.0,0.0,0.0,0.0432,0.0588,0.0776,0.1127,0.1545,0.2039,0.2475,0.271,0.3067,0.3609,0.4037,0.4242,0.4398,0.4641,0.4708,0.4708,0.491,0.5476,0.6046,0.6652,0.7288,0.7856,0.8323,0.8551,0.8806,0.8884,0.9069,0.9312,0.9587,0.9938,1.0275,1.0607,1.098,1.1344,1.144,1.1486,1.1549,1.1592,1.1671,1.1721,1.1719,1.1759,1.1837,-1.7774,-1.7692,-1.7561,-1.7399,-1.703,-1.608,-1.5528,-1.5367,-1.5342,-1.5229,-1.5111,-1.4872,-1.4546,-1.4135,-1.3733,-1.3284,-1.2846,-1.271,-1.2325,-1.2131,-1.2017,-1.2002,-1.1857,-1.1576,-1.1516,-1.1497,-1.1242,-1.1005,-1.0921,-1.105,-1.0914,-1.0601,-1.0284,-1.0088,-0.9891,-0.9513,-0.9044,-0.8484,-0.8048,-0.7798,-0.7493,-0.7299,-0.721,-0.7043,-0.6659,-0.6158,-0.568,-0.5043,-0.4357,-0.4036,-0.3799,-0.362,-0.3514,-0.3308,-0.2805,-0.2135,-0.1265,-0.0641,-0.0185,0.0,0.0,0.0,0.0,0.0,0.0,0.0,0.0,0.0,0.0,0.0,0.0,0.0464,0.0654,0.0811,0.1132,0.149,0.1827,0.23,0.2706,0.2946,0.3354,0.3896,0.4361,0.4465,0.4638,0.4873,0.5141,0.5141,0.5141,0.5677,0.628,0.692,0.7397,0.7899,0.8361,0.8717,0.894,0.9147,0.9424,0.9689,0.9982,1.0338,1.0715,1.103,1.1231,1.1418,1.1581,1.1685,1.1703,1.1786,1.1857,1.1877,1.1904,1.1968,1.2039,-1.7692,-1.7709,-1.7692,-1.7707,-1.7497,-1.6614,-1.6167,-1.6057,-1.5519,-1.542,-1.5617,-1.4766,-1.4411,-1.4304,-1.3961,-1.3539,-1.3131,-1.3032,-1.2609,-1.221,-1.21,-1.2093,-1.1906,-1.1648,-1.1512,-1.1351,-1.1128,-1.0859,-1.0729,-1.0706,-1.0543,-1.0299,-0.9986,-0.9761,-0.9541,-0.9265,-0.8795,-0.8263,-0.7965,-0.766,-0.7349,-0.7176,-0.7137,-0.6952,-0.6575,-0.6106,-0.5571,-0.4948,-0.441,-0.4036,-0.377,-0.3545,-0.3367,-0.3269,-0.2471,-0.1567,-0.0582,0.0,0.0,0.0,0.0,0.0,0.0,0.0,0.0,0.0,0.0,0.0,0.0,0.0,0.0433,0.0657,0.0916,0.1176,0.1473,0.1811,0.2093,0.2473,0.2854,0.3231,0.3675,0.4135,0.4568,0.4772,0.4977,0.5242,0.551,0.5677,0.5748,0.5912,0.6518,0.7196,0.7603,0.7914,0.8349,0.8845,0.921,0.9483,0.9877,1.0163,1.0455,1.0733,1.1004,1.1266,1.1345,1.1504,1.1651,1.1773,1.1847,1.1938,1.2094,1.2219,1.2321,1.2254,1.2363,-1.7767,-1.7855,-1.7943,-1.7938,-1.7796,-1.7392,-1.7012,-1.6594,-1.6026,-1.5739,-1.559,-1.4774,-1.4398,-1.4369,-1.3952,-1.3604,-1.329,-1.295,-1.2621,-1.2317,-1.2013,-1.1824,-1.1639,-1.1468,-1.137,-1.1198,-1.099,-1.078,-1.0733,-1.0586,-1.0398,-1.0268,-0.9789,-0.9513,-0.9265,-0.8989,-0.8484,-0.8076,-0.7832,-0.7566,-0.7231,-0.705,-0.7015,-0.6814,-0.647,-0.5968,-0.5397,-0.4911,-0.4332,-0.3648,-0.3479,-0.33,-0.3047,-0.2785,-0.217,-0.1224,0.0,0.0,0.0,0.0,0.0,0.0,0.0,0.0,0.0,0.0,0.0,0.0,0.0281,0.0501,0.0755,0.0984,0.1215,0.1481,0.1784,0.2034,0.2352,0.2695,0.3078,0.3586,0.4037,0.4406,0.4839,0.5141,0.5346,0.5647,0.5882,0.6049,0.6217,0.6384,0.6686,0.733,0.779,0.8068,0.8561,0.9081,0.9451,0.9825,1.0254,1.0629,1.0958,1.1177,1.1335,1.1453,1.1496,1.159,1.1739,1.1847,1.1993,1.2271,1.2429,1.2587,1.27,1.2707,1.2849,-1.766,-1.7793,-1.8024,-1.7998,-1.7804,-1.7546,-1.706,-1.6456,-1.6128,-1.5826,-1.549,-1.4669,-1.4347,-1.436,-1.3928,-1.3581,-1.3401,-1.2967,-1.2568,-1.2138,-1.1785,-1.1614,-1.1419,-1.1296,-1.1149,-1.1002,-1.0811,-1.0647,-1.0655,-1.0485,-1.0284,-1.0064,-0.9596,-0.9292,-0.8961,-0.8546,-0.818,-0.7899,-0.77,-0.75,-0.724,-0.6969,-0.6905,-0.6734,-0.6365,-0.5793,-0.524,-0.48,-0.4104,-0.3411,-0.327,-0.3024,-0.2638,-0.2191,-0.1767,-0.0925,0.0,0.0,0.0,0.0,0.0,0.0,0.0,0.0,0.0,0.0,0.0,0.0284,0.054,0.0829,0.1057,0.1321,0.1553,0.1789,0.2038,0.2291,0.2603,0.2948,0.3423,0.3933,0.4339,0.4739,0.5074,0.5379,0.5714,0.6016,0.6183,0.625,0.6451,0.6652,0.692,0.7393,0.7833,0.8239,0.874,0.9234,0.9676,1.0117,1.0687,1.1074,1.1386,1.1511,1.1516,1.1577,1.1624,1.1732,1.184,1.2006,1.2159,1.2478,1.2848,1.3085,1.3237,1.3321,1.3518,-1.7458,-1.7576,-1.79,-1.7886,-1.7623,-1.7223,-1.6575,-1.5737,-1.5857,-1.5732,-1.5297,-1.4478,-1.4165,-1.4174,-1.3785,-1.3467,-1.3216,-1.2874,-1.2391,-1.1956,-1.1639,-1.1419,-1.1287,-1.1164,-1.1027,-1.0781,-1.0573,-1.0439,-1.0464,-1.0265,-0.9983,-0.9781,-0.9458,-0.9099,-0.8623,-0.8291,-0.7965,-0.7733,-0.7579,-0.743,-0.7223,-0.7067,-0.695,-0.6779,-0.6323,-0.5772,-0.5175,-0.4591,-0.3955,-0.3455,-0.3056,-0.2769,-0.2267,-0.1662,-0.1203,-0.0833,-0.034,0.0,0.0,0.0,0.0,0.0,0.0,0.032,0.0514,0.0448,0.0383,0.0608,0.09,0.113,0.1362,0.1603,0.1812,0.1949,0.2128,0.2441,0.2816,0.3224,0.373,0.4205,0.4641,0.501,0.5279,0.558,0.6016,0.6351,0.6455,0.6455,0.6623,0.6853,0.7158,0.7498,0.8021,0.8444,0.8774,0.9274,0.9828,1.036,1.0911,1.1279,1.1467,1.1543,1.1577,1.1604,1.1638,1.1843,1.1972,1.2142,1.2415,1.2838,1.3185,1.3606,1.3806,1.3938,1.4253,-1.7188,-1.7215,-1.7482,-1.7483,-1.739,-1.7293,-1.663,-1.5701,-1.5517,-1.5204,-1.4633,-1.4114,-1.3836,-1.3862,-1.3579,-1.3251,-1.2908,-1.2616,-1.2179,-1.1785,-1.1443,-1.1296,-1.1174,-1.1002,-1.088,-1.0683,-1.0425,-1.0171,-1.0248,-0.9987,-0.9751,-0.9719,-0.932,-0.8795,-0.8457,-0.8125,-0.7832,-0.751,-0.735,-0.7174,-0.6895,-0.6803,-0.6673,-0.6458,-0.6026,-0.5645,-0.507,-0.4565,-0.3877,-0.322,-0.2791,-0.246,-0.2128,-0.1389,-0.105,-0.0864,-0.0309,0.0,0.0,0.0281,0.0378,0.0509,0.061,0.0813,0.0849,0.0649,0.068,0.0973,0.1236,0.1438,0.1643,0.186,0.2041,0.2112,0.2249,0.2622,0.2995,0.3533,0.4037,0.444,0.4876,0.5211,0.545,0.5852,0.6254,0.6455,0.6489,0.6522,0.6723,0.6958,0.7225,0.7646,0.8293,0.8719,0.8967,0.9274,0.9787,1.0269,1.0764,1.1168,1.1541,1.1584,1.1584,1.1584,1.1638,1.188,1.2127,1.2419,1.2724,1.3187,1.3621,1.4014,1.4476,1.4691,1.4998,-1.6874,-1.681,-1.6875,-1.6922,-1.693,-1.6861,-1.6262,-1.5466,-1.5241,-1.4835,-1.4249,-1.3799,-1.3608,-1.3562,-1.3221,-1.3008,-1.2617,-1.2225,-1.1946,-1.159,-1.1321,-1.1149,-1.1002,-1.083,-1.0609,-1.0422,-1.0179,-1.0002,-1.0074,-0.9808,-0.9591,-0.9649,-0.9127,-0.8567,-0.8291,-0.7965,-0.7632,-0.7198,-0.7031,-0.6826,-0.6599,-0.6496,-0.6496,-0.6259,-0.5971,-0.5548,-0.4964,-0.4438,-0.3761,-0.3053,-0.2558,-0.2127,-0.179,-0.1297,-0.0864,-0.0494,-0.0062,0.0279,0.0437,0.0598,0.0732,0.087,0.0942,0.1052,0.1296,0.1124,0.1123,0.139,0.1689,0.1897,0.193,0.2079,0.2115,0.2185,0.2455,0.2793,0.3297,0.3835,0.4137,0.4339,0.4809,0.5279,0.5584,0.602,0.6388,0.6489,0.6489,0.6522,0.6723,0.7058,0.7359,0.7708,0.834,0.8708,0.8848,0.9194,0.9671,1.0158,1.0641,1.111,1.1478,1.157,1.1584,1.159,1.1723,1.199,1.2254,1.2568,1.3167,1.3761,1.4122,1.4438,1.4899,1.5322,1.5667,-1.6598,-1.6376,-1.6328,-1.6326,-1.6384,-1.6289,-1.5767,-1.5084,-1.495,-1.4607,-1.4042,-1.3562,-1.3567,-1.334,-1.2848,-1.2698,-1.2413,-1.1964,-1.1688,-1.1468,-1.1247,-1.1051,-1.087,-1.0674,-1.0364,-1.0128,-0.9962,-0.9983,-1.0056,-0.9728,-0.9529,-0.9559,-0.9009,-0.8318,-0.802,-0.7687,-0.7382,-0.6995,-0.6766,-0.6565,-0.6398,-0.6267,-0.6333,-0.6245,-0.6039,-0.5548,-0.4933,-0.4253,-0.3638,-0.3022,-0.2407,-0.1975,-0.1513,-0.1143,-0.062,-0.0186,0.0311,0.0626,0.0884,0.0987,0.1097,0.1176,0.1184,0.1328,0.1576,0.1647,0.1646,0.178,0.205,0.2153,0.2153,0.2188,0.2188,0.2324,0.2627,0.2995,0.3566,0.4104,0.4205,0.4339,0.4809,0.5346,0.5748,0.6154,0.6355,0.6455,0.6522,0.6556,0.669,0.7125,0.7493,0.7827,0.8321,0.8581,0.8765,0.9149,0.9578,1.0054,1.0556,1.1031,1.1422,1.1527,1.1584,1.1633,1.1757,1.1999,1.2402,1.2776,1.3438,1.4084,1.446,1.4776,1.5245,1.5667,1.6203,-1.6511,-1.6238,-1.6264,-1.6169,-1.5985,-1.6111,-1.5743,-1.5039,-1.4771,-1.4344,-1.3784,-1.3389,-1.3286,-1.3451,-1.2927,-1.2559,-1.2173,-1.1736,-1.1468,-1.1247,-1.1051,-1.0904,-1.0683,-1.0364,-0.9994,-0.9846,-0.9819,-0.9879,-0.9905,-0.9663,-0.9455,-0.9388,-0.8844,-0.8318,-0.7992,-0.766,-0.726,-0.6853,-0.657,-0.6413,-0.6266,-0.6189,-0.6198,-0.6101,-0.5947,-0.5486,-0.4933,-0.4253,-0.3638,-0.2991,-0.2347,-0.1853,-0.1362,-0.0868,-0.0342,0.022,0.0692,0.0951,0.1184,0.1357,0.1475,0.1517,0.1626,0.1839,0.1986,0.1986,0.2018,0.2018,0.2188,0.2188,0.2188,0.2188,0.2223,0.249,0.2759,0.3264,0.3768,0.4104,0.4342,0.4641,0.5044,0.5446,0.5815,0.615,0.6422,0.6489,0.6489,0.6556,0.6819,0.7221,0.7593,0.7956,0.8323,0.849,0.8656,0.9058,0.9484,0.9957,1.0496,1.105,1.1424,1.1527,1.1626,1.1633,1.1725,1.1932,1.2347,1.2955,1.3484,1.4143,1.4627,1.5037,1.5544,1.5974,1.6471]},{"header":{"parameterUnit":"m.s-1","parameterCategory":1,"la1":31.0,"la2":29.5877,"lo1":-88.7671,"lo2":-86.6584,"dy":0.0162,"dx":0.0185,"nx":115,"ny":88,"refTime":"2025-12-21T00:00:00:Z","depth":0,"parameterNumber":3,"parameterNumberName":"V-component_of_WINDS"},"data":[0.0,0.0,0.0,0.0,0.0,0.0,0.0,0.0,0.0,0.0,0.0,0.0,0.0,0.0,0.0,0.0,0.0,0.0,0.0,0.0,0.0,0.0,0.0,0.0,0.0,0.0,0.0,0.0,0.0,0.0,0.0,0.0,0.0,0.0,0.0,0.0,0.0,0.0,0.0,0.0,0.0,0.0,0.0,0.0,0.0,0.0,0.0,0.0,0.0,0.0,0.0,0.0,0.0,0.0,0.0,0.0,0.0,0.0,0.0,0.0,0.0,0.0,0.0,0.0,0.0,0.0,0.0,0.0,0.0,0.0,0.0,0.0,0.0,0.0,0.0,0.0,0.0,0.0,0.0,0.0,0.0,0.0,0.0,0.0,0.0,0.0,0.0,0.0,0.0,0.0,0.0,0.0,0.0,0.0,0.0,0.0,0.0,0.0,0.0,0.0,0.0,0.0,0.0,0.0,0.0,0.0,0.0,0.0,0.0,0.0,0.0,0.0,0.0,0.0,0.0,0.0,0.0,0.0,0.0,0.0,0.0,0.0,0.0,0.0,0.0,0.0,0.0,0.0,0.0,0.0,0.0,0.0,0.0,0.0,0.0,0.0,0.0,0.0,0.0,0.0,0.0,0.0,0.0,0.0,0.0,0.0,0.0,0.0,0.0,0.0,0.0,0.0,0.0,0.0,0.0,0.0,0.0,0.0,0.0,0.0,0.0,0.0,0.0,0.0,0.0,0.0,0.0,0.0,0.0,0.0,0.0,0.0,0.0,0.0,0.0,0.0,0.0,0.0,0.0,0.0,0.0,0.0,0.0,0.0,0.0,0.0,0.0,0.0,0.0,0.0,0.0,0.0,0.0,0.0,0.0,0.0,0.0,0.0,0.0,0.0,0.0,0.0,0.0,0.0,0.0,0.0,0.0,0.0,0.0,0.0,0.0,0.0,0.0,0.0,0.0,0.0,0.0,0.0,0.0,0.0,0.0,0.0,0.0,0.0,0.0,0.0,0.0,0.0,0.0,0.0,0.0,0.0,0.0,0.0,0.0,0.0,0.0,0.0,0.0,0.0,0.0,0.0,0.0,0.0,0.0,0.0,0.0,0.0,0.0,0.0,0.0,0.0,0.0,0.0,0.0,0.0,0.0,0.0,0.0,0.0,0.0,0.0,0.0,0.0,0.0,0.0,0.0,0.0,0.0,0.0,0.0,0.0,0.0,0.0,0.0,0.0,0.0,0.0,0.0,0.0,0.0,0.0,0.0,0.0,0.0,0.0,0.0,0.0,0.0,0.0,0.0,0.0,0.0,0.0,0.0,0.0,0.0,0.0,0.0,0.0,0.0,0.0,0.0,0.0,0.0,0.0,0.0,0.0,0.0,0.0,0.0,0.0,0.0,0.0,0.0,0.0,0.0,0.0,0.0,0.0,0.0,0.0,0.0,0.0,0.0,0.0,0.0,0.0,0.0,0.0,0.0,0.0,0.0,0.0,0.0,0.0,0.0,0.0,0.0,0.0,0.0,0.0,0.0,0.0,0.0,0.0,0.0,0.0,0.0,0.0,0.0,0.0,0.0,0.0,0.0,0.0,0.0,0.0,0.0,0.0,0.0,0.0,0.0,0.0,0.0,0.0,0.0,0.0,0.0,0.0,0.0,0.0,0.0,0.0,0.0,0.0,0.0,0.0,0.0,0.0,0.0,0.0,0.0,0.0,0.0,0.0,0.0,0.0,0.0,0.0,0.0,0.0,0.0,0.0,0.0,0.0,0.0,0.0,0.0,0.0,0.0,0.0,0.0,0.0,0.0,0.0,0.0,0.0,0.0,0.0,0.0,0.0,0.0,0.0,0.0,0.0,0.0,0.0,0.0,0.0,0.0,0.0,0.0,0.0,0.0,0.0,0.0,0.0,0.0,0.0,0.0,0.0,0.0,0.0,0.0,0.0,0.0,0.0,0.0,0.0,0.0,0.0,0.0,0.0,0.0,0.0,0.0,0.0,0.0,0.0,0.0,0.0,0.0,0.0,0.0,0.0,0.0,0.0,0.0,0.0,0.0,0.0,0.0,0.0,0.0,0.0,0.0,0.0,0.0,0.0,0.0,0.0,0.0,0.0,0.0,0.0,0.0,0.0,0.0,0.0,0.0,0.0,0.0,0.0,0.0,0.0,0.0,0.0,0.0,0.0,0.0,0.0,0.0,0.0,0.0,0.0,0.0,0.0,0.0,0.0,0.0,0.0,0.0,0.0,0.0,0.0,0.0,0.0,0.0,0.0,0.0,0.0,0.0,0.0,0.0,0.0,0.0,0.0,0.0,0.0,0.0,0.0,0.0,0.0,0.0,0.0,0.0,0.0,0.0,0.0,0.0,0.0,0.0,0.0,0.0,0.0,0.0,0.0,0.0,0.0,0.0,0.0,0.0,0.0,0.0,0.0,0.0,0.0,0.0,0.0,0.0,0.0,0.0,0.0,0.0,0.0,0.0,0.0,0.0,0.0,0.0,0.0,0.0,0.0,0.0,0.0,0.0,0.0,0.0,0.0,0.0,0.0,0.0,0.0,0.0,0.0,0.0,0.0,0.0,0.0,0.0,0.0,0.0,0.0,0.0,0.0,0.0,0.0,0.0,0.0,0.0,0.0,0.0,0.0,0.0,0.0,0.0,0.0,0.0,0.0,0.0,0.0,0.0,0.0,0.0,0.0,0.0,0.0,0.0,0.0,0.0,0.0,0.0,0.0,0.0,0.0,0.0,0.0,0.0,0.0,0.0,0.0,0.0,0.0,0.0,0.0,0.0,0.0,0.0,0.0,0.0,0.0,0.0,0.0,0.0,0.0,0.0,0.0,0.0,0.0,0.0,0.0,0.0,0.0,0.0,0.0,0.0,0.0,0.0,0.0,0.0,0.0,0.0,0.0,0.0,0.0,0.0,0.0,0.0,0.0,0.0,0.0,0.0,0.0,0.0,0.0,0.0,0.0,0.0,0.0,0.0,0.0,0.0,0.0,0.0,0.0,0.0,0.0,0.0,0.0,0.0,0.0,0.0,0.0,0.0,0.0,0.0,0.0,0.0,0.0,0.0,0.0,0.0,0.0,0.0,0.0,0.0,0.0,0.0,0.0,0.0,0.0,0.0,0.0,0.0,0.0,0.0,0.0,0.0,0.0,0.0,0.0,0.0,0.0,0.0,0.0,0.0,0.0,0.0,0.0,0.0,0.0,0.0,0.0,0.0,0.0,0.0,0.0,0.0,0.0,0.0,0.0,0.0,0.0,0.0,0.0,0.0,0.0,0.0,0.0,0.0,0.0,0.0,0.0,0.0,0.0,0.0,0.0,0.0,0.0,0.0,0.0,0.0,0.0,0.0,0.0,0.0,0.0,0.0,0.0,0.0,0.0,0.0,0.0,0.0,0.0,0.0,0.0,0.0,0.0,0.0,0.0,0.0,0.0,0.0,0.0,0.0,0.0,0.0,0.0,0.0,0.0,0.0,0.0,0.0,0.0,0.0,0.0,0.0,0.0,0.0,0.0,0.0,0.0,0.0,0.0,0.0,0.0,0.0,0.0,0.0,0.0,0.0,0.0,0.0,0.0,0.0,0.0,0.0,0.0,0.0,0.0,0.0,0.0,0.0,0.0,0.0,0.0,0.0,0.0,0.0,0.0,0.0,0.0,0.0,0.0,0.0,0.0,0.0,0.0,0.0,0.0,0.0,0.0,0.0,0.0,0.0,0.0,0.0,0.0,0.0,0.0,0.0,0.0,0.0,0.0,0.0,0.0,0.0,0.0,0.0,0.0,0.0,0.0,0.0,0.0,0.0,0.0,0.0,0.0,0.0,0.0,0.0,0.0,0.0,0.0,0.0,0.0,0.0,0.0,0.0,0.0,0.0,0.0,0.0,0.0,0.0,0.0,0.0,0.0,0.0,0.0,0.0,0.0,0.0,0.0,0.0,0.0,0.0,0.0,0.0,0.0,0.0,0.0,0.0,0.0,0.0,0.0,0.0,0.0,0.0,0.0,0.0,0.0,0.0,0.0,0.0,0.0,0.0,0.0,0.0,0.0,0.0,0.0,0.0,0.0,0.0,0.0,0.0,0.0,0.0,0.0,0.0,0.0,0.0,0.0,0.0,0.0,0.0,0.0,0.0,0.0,0.0,0.0,0.0,0.0,0.0,0.0,0.0,0.0,0.0,0.0,0.0,0.0,0.0,0.0,0.0,0.0,0.0,0.0,0.0,0.0,0.0,0.0,0.0,0.0,0.0,0.0,0.0,0.0,0.0,0.0,0.0,0.0,0.0,0.0,1.5297,0.0,0.0,0.0,0.0,0.0,0.0,0.0,0.0,0.0,0.0,0.0,0.0,0.0,0.0,0.0,0.0,0.0,0.0,0.0,0.0,0.0,0.0,0.0,0.0,0.0,0.0,0.0,0.0,0.0,0.0,0.0,0.0,0.0,0.0,0.0,0.0,0.0,0.0,0.0,0.0,0.0,0.0,0.0,0.0,0.0,0.0,0.0,0.0,0.0,0.0,0.0,0.0,0.0,0.0,0.0,0.0,0.0,0.0,0.0,0.0,0.0,0.0,0.0,0.0,0.0,0.0,0.0,0.0,0.0,0.0,0.0,0.0,0.0,0.0,0.0,0.0,0.0,0.0,0.0,0.0,0.0,0.0,0.0,0.0,0.0,0.0,0.0,0.0,0.0,0.0,0.0,0.0,0.0,0.0,0.0,0.0,0.0,0.0,0.0,0.0,0.0,0.0,0.0,0.0,0.0,0.0,0.0,0.0,0.0,0.0,1.4862,1.4904,1.5017,1.5134,1.5302,0.0,0.0,0.0,0.0,0.0,0.0,0.0,0.0,0.0,0.0,0.0,0.0,0.0,0.0,0.0,0.0,0.0,0.0,0.0,0.0,0.0,0.0,0.0,0.0,0.0,0.0,0.0,0.0,0.0,0.0,0.0,0.0,0.0,0.0,0.0,0.0,0.0,0.0,0.0,0.0,0.0,0.0,0.0,0.0,0.0,0.0,0.0,0.0,0.0,0.0,0.0,0.0,0.0,0.0,0.0,0.0,0.0,0.0,0.0,0.0,0.0,0.0,0.0,0.0,0.0,0.0,0.0,0.0,0.0,0.0,0.0,0.0,0.0,0.0,0.0,0.0,0.0,0.0,0.0,0.0,0.0,0.0,0.0,0.0,0.0,0.0,0.0,0.0,0.0,0.0,0.0,0.0,0.0,0.0,0.0,0.0,0.0,0.0,0.0,0.0,0.0,0.0,0.0,0.0,0.0,0.0,0.0,0.0,0.0,0.0,0.0,0.0,1.5545,1.5655,1.5909,0.0,0.0,0.0,0.0,0.0,0.0,0.0,0.0,0.0,0.0,0.0,0.0,0.0,0.0,0.0,0.0,0.0,0.0,0.0,0.0,0.0,0.0,0.0,0.0,0.0,0.0,0.0,0.0,0.0,0.0,0.0,0.0,0.0,0.0,0.0,0.0,0.0,0.0,0.0,0.0,0.0,0.0,0.0,0.0,0.0,0.0,0.0,0.0,0.0,0.0,0.0,0.0,0.0,0.0,0.0,0.0,0.0,0.0,0.0,0.0,0.0,0.0,0.0,0.0,0.0,0.0,0.0,0.0,0.0,0.0,0.0,0.0,0.0,0.0,0.0,0.0,0.0,0.0,0.0,0.0,0.0,0.0,0.0,0.0,0.0,0.0,0.0,0.0,0.0,0.0,0.0,0.0,0.0,0.0,0.0,0.0,0.0,0.0,0.0,0.0,0.0,0.0,0.0,0.0,0.0,0.0,0.0,0.0,0.0,0.0,1.5588,1.7036,1.7249,0.0,1.7643,0.0,0.0,0.0,0.0,0.0,0.0,0.0,0.0,0.0,0.0,0.0,0.0,0.0,0.0,0.0,0.0,0.0,0.0,0.0,0.0,0.0,0.0,0.0,0.0,0.0,0.0,0.0,0.0,0.0,0.0,0.0,0.0,0.0,0.0,0.0,0.0,0.0,0.0,0.0,0.0,0.0,0.0,0.0,0.0,0.0,0.0,0.0,0.0,0.0,0.0,0.0,0.0,0.0,0.0,0.0,0.0,0.0,0.0,0.0,0.0,0.0,0.0,0.0,0.0,0.0,0.0,0.0,0.0,0.0,0.0,0.0,0.0,0.0,0.0,0.0,0.0,0.0,0.0,0.0,0.0,0.0,0.0,0.0,0.0,0.0,0.0,0.0,0.0,0.0,0.0,0.0,0.0,0.0,0.0,0.0,0.0,0.0,0.0,0.0,0.0,0.0,0.0,0.0,0.0,0.0,0.0,0.0,0.0,0.0,0.0,1.6497,1.7326,1.7622,1.7772,0.0,0.0,0.0,0.0,0.0,0.0,0.0,0.0,0.0,0.0,0.0,0.0,0.0,0.0,0.0,0.0,0.0,0.0,0.0,0.0,0.0,0.0,0.0,0.0,0.0,0.0,0.0,0.0,0.0,0.0,0.0,0.0,0.0,0.0,0.0,0.0,0.0,0.0,0.0,0.0,0.0,0.0,0.0,0.0,0.0,0.0,0.0,0.0,0.0,0.0,0.0,0.0,0.0,0.0,0.0,0.0,0.0,0.0,0.0,0.0,0.0,0.0,0.0,0.0,0.0,0.0,0.0,0.0,0.0,0.0,0.0,0.0,0.0,0.0,0.0,0.0,0.0,0.0,0.0,0.0,0.0,0.0,0.0,0.0,0.0,0.0,0.0,0.0,0.0,0.0,0.0,0.0,0.0,0.0,0.0,0.0,0.0,0.0,0.0,0.0,0.0,0.0,0.0,0.0,0.0,0.0,0.0,0.0,0.0,0.0,1.6215,1.7071,1.7974,1.8164,1.8009,1.7487,0.0,0.0,0.0,0.0,0.0,0.0,0.0,0.0,0.0,0.0,0.0,0.0,0.0,0.0,0.0,0.0,0.0,0.0,0.0,0.0,0.0,0.0,0.0,0.0,0.0,0.0,0.0,0.0,0.0,0.0,0.0,0.0,0.0,0.0,0.0,0.0,0.0,0.0,0.0,0.0,0.0,0.0,0.0,0.0,0.0,0.0,0.0,0.0,0.0,0.0,0.0,0.0,0.0,0.0,0.0,0.0,0.0,0.0,0.0,0.0,0.0,0.0,0.0,0.0,0.0,0.0,0.0,0.0,0.0,0.0,0.0,0.0,0.0,0.0,0.0,0.0,0.0,0.0,0.0,0.0,0.0,0.0,0.0,0.0,0.0,0.0,0.0,0.0,0.0,0.0,0.0,0.0,0.0,0.0,0.0,0.0,0.0,0.0,0.0,0.0,0.0,0.0,0.0,0.0,0.0,0.0,0.0,0.0,1.7623,1.6488,1.7006,1.9556,1.9321,1.835,0.0,0.0,0.0,0.0,0.0,0.0,0.0,0.0,0.0,0.0,0.0,0.0,0.0,0.0,0.0,0.0,0.0,0.0,0.0,0.0,0.0,0.0,0.0,0.0,0.0,0.0,0.0,0.0,0.0,0.0,0.0,0.0,0.0,0.0,0.0,0.0,0.0,0.0,0.0,0.0,0.0,0.0,0.0,0.0,0.0,0.0,0.0,0.0,0.0,0.0,0.0,0.0,0.0,0.0,0.0,0.0,0.0,0.0,0.0,0.0,0.0,0.0,0.0,0.0,0.0,0.0,0.0,0.0,0.0,0.0,0.0,0.0,0.0,0.0,0.0,0.0,0.0,0.0,0.0,0.0,0.0,0.0,0.0,0.0,0.0,0.0,0.0,0.0,0.0,0.0,0.0,0.0,0.0,0.0,0.0,0.0,0.0,0.0,0.0,0.0,0.0,0.0,0.0,0.0,0.0,0.0,0.0,0.0,0.0,1.4194,1.4852,1.6926,2.0366,1.8122,1.7173,0.0,0.0,0.0,0.0,0.0,0.0,0.0,0.0,0.0,0.0,0.0,0.0,0.0,0.0,0.0,0.0,0.0,0.0,0.0,0.0,0.0,0.0,0.0,0.0,0.0,0.0,0.0,0.0,0.0,0.0,0.0,0.0,0.0,0.0,0.0,0.0,0.0,0.0,0.0,0.0,0.0,0.0,0.0,0.0,0.0,0.0,0.0,0.0,0.0,0.0,0.0,0.0,0.0,0.0,0.0,0.0,0.0,0.0,0.0,0.0,0.0,0.0,0.0,0.0,0.0,0.0,0.0,0.0,0.0,0.0,0.0,0.0,0.0,0.0,0.0,0.0,0.0,0.0,0.0,0.0,0.0,0.0,0.0,0.0,0.0,0.0,0.0,0.0,0.0,0.0,0.0,0.0,0.0,0.0,0.0,0.0,0.0,0.0,0.0,0.0,0.0,0.0,0.0,0.0,0.0,0.0,0.0,0.0,0.0,1.3277,0.0,1.7294,1.9576,1.7184,1.6021,0.0,0.0,0.0,0.0,0.0,0.0,0.0,0.0,0.0,0.0,0.0,0.0,0.0,0.0,0.0,0.0,0.0,0.0,0.0,0.0,0.0,0.0,0.0,0.0,0.0,0.0,0.0,0.0,0.0,0.0,0.0,0.0,0.0,0.0,0.0,0.0,0.0,0.0,0.0,0.0,0.0,0.0,0.0,0.0,0.0,0.0,0.0,0.0,0.0,0.0,0.0,0.0,0.0,0.0,0.0,0.0,0.0,0.0,0.0,0.0,0.0,0.0,0.0,0.0,0.0,0.0,0.0,0.0,0.0,0.0,0.0,0.0,0.0,0.0,0.0,0.0,0.0,0.0,0.0,0.0,0.0,0.0,0.0,0.0,0.0,0.0,0.0,0.0,0.0,0.0,0.0,0.0,0.0,0.0,0.0,0.0,0.0,0.0,0.0,0.0,0.0,0.0,0.0,0.0,0.0,0.0,0.0,0.0,1.1806,1.5472,1.7387,1.8024,1.7286,1.6769,1.5031,0.0,0.0,0.0,0.0,0.0,0.0,0.0,0.0,0.0,0.0,0.0,0.0,0.0,0.0,0.0,0.0,0.0,0.0,0.0,0.0,0.0,0.0,0.0,0.0,0.0,0.0,0.0,0.0,0.0,0.0,0.0,0.0,0.0,0.0,0.0,0.0,0.0,0.0,0.0,0.0,0.0,0.0,0.0,0.0,0.0,0.0,0.0,0.0,0.0,0.0,0.0,0.0,0.0,0.0,0.0,0.0,0.0,0.0,0.0,0.0,0.0,0.0,0.0,0.0,0.0,0.0,0.0,0.0,0.0,0.0,0.0,0.0,0.0,0.0,0.0,0.0,0.0,0.0,0.0,0.0,0.0,0.0,0.0,0.0,0.0,0.0,0.0,0.0,0.0,0.0,0.0,0.0,0.0,0.0,0.0,0.0,0.0,0.0,0.0,0.0,0.0,0.0,0.0,0.0,0.0,0.0,0.0,0.0,0.0,1.4078,1.5849,1.7567,1.8906,1.6244,1.5358,0.0,0.0,0.0,0.0,0.0,0.0,0.0,0.0,0.0,0.0,0.0,0.0,0.0,0.0,0.0,0.0,0.0,0.0,0.0,0.0,0.0,0.0,0.0,0.0,0.0,0.0,0.0,0.0,0.0,0.0,0.0,0.0,0.0,0.0,0.0,0.0,0.0,0.0,0.0,0.0,0.0,0.0,0.0,0.0,0.0,0.0,0.0,0.0,0.0,0.0,0.0,0.0,0.0,0.0,0.0,0.0,0.0,0.0,0.0,0.0,0.0,0.0,0.0,0.0,0.0,0.0,0.0,0.0,0.0,0.0,0.0,0.0,0.0,0.0,0.0,0.0,0.0,0.0,0.0,0.0,0.0,0.0,0.0,0.0,0.0,0.0,0.0,0.0,0.0,0.0,0.0,0.0,0.0,0.0,0.0,0.0,0.0,0.0,0.0,0.0,0.0,0.0,0.0,0.0,0.0,0.0,0.0,0.0,0.0,1.6295,1.7656,1.8749,1.9476,1.6788,1.594,1.7084,0.0,0.0,0.0,0.0,0.0,0.0,0.0,0.0,0.0,0.0,0.0,0.0,0.0,0.0,0.0,0.0,0.0,0.0,0.0,0.0,0.0,0.0,0.0,0.0,0.0,0.0,0.0,0.0,0.0,0.0,0.0,0.0,0.0,0.0,0.0,0.0,0.0,0.0,0.0,0.0,0.0,0.0,0.0,0.0,0.0,0.0,0.0,0.0,0.0,0.0,0.0,0.0,0.0,0.0,0.0,0.0,0.0,0.0,0.0,0.0,0.0,0.0,0.0,0.0,0.0,0.0,0.0,0.0,0.0,0.0,0.0,0.0,0.0,0.0,0.0,0.0,0.0,0.0,0.0,0.0,0.0,0.0,0.0,0.0,0.0,0.0,0.0,0.0,0.0,0.0,0.0,0.0,0.0,0.0,0.0,0.0,0.0,0.0,0.0,0.0,0.0,0.0,0.0,0.0,0.0,0.0,0.0,0.0,2.1127,2.2136,2.157,1.9412,1.8486,1.6888,0.0,0.0,0.0,0.0,0.0,0.0,0.0,0.0,0.0,0.0,0.0,0.0,0.0,0.0,0.0,0.0,0.0,0.0,0.0,0.0,0.0,0.0,0.0,0.0,0.0,0.0,0.0,0.0,0.0,0.0,0.0,0.0,0.0,0.0,0.0,0.0,0.0,0.0,0.0,0.0,0.0,0.0,0.0,0.0,0.0,0.0,0.0,0.0,0.0,0.0,0.0,0.0,0.0,0.0,0.0,0.0,0.0,0.0,0.0,0.0,0.0,0.0,0.0,0.0,0.0,0.0,0.0,0.0,0.0,0.0,0.0,0.0,0.0,0.0,0.0,0.0,0.0,0.0,0.0,0.0,0.0,0.0,0.0,0.0,0.0,0.0,0.0,0.0,0.0,0.0,0.0,0.0,0.0,0.0,0.0,0.0,0.0,0.0,0.0,0.0,0.0,0.0,0.0,0.0,0.0,0.0,0.0,0.0,0.0,2.3014,2.4654,2.5197,2.4537,2.2038,2.0374,0.0,0.0,0.0,0.0,0.0,0.0,0.0,0.0,0.0,0.0,0.0,0.0,0.0,0.0,0.0,0.0,0.0,0.0,0.0,0.0,0.0,0.0,0.0,0.0,0.0,0.0,0.0,0.0,0.0,0.0,0.0,0.0,0.0,0.0,0.0,0.0,0.0,0.0,0.0,0.0,0.0,0.0,0.0,0.0,0.0,0.0,0.0,0.0,0.0,0.0,0.0,0.0,0.0,0.0,0.0,0.0,0.0,0.0,0.0,0.0,0.0,0.0,0.0,0.0,0.0,0.0,0.0,0.0,0.0,0.0,0.0,0.0,0.0,0.0,0.0,0.0,0.0,0.0,0.0,0.0,0.0,0.0,0.0,0.0,0.0,0.0,0.0,0.0,0.0,0.0,0.0,0.0,0.0,0.0,0.0,0.0,0.0,0.0,0.0,0.0,0.0,0.0,0.0,0.0,0.0,0.0,0.0,0.0,2.2204,2.4783,2.6796,2.7977,2.8355,2.4804,2.2317,0.0,0.0,0.0,0.0,0.0,0.0,0.0,0.0,0.0,0.0,0.0,0.0,0.0,0.0,0.0,0.0,0.0,0.0,0.0,0.0,0.0,0.0,0.0,0.0,0.0,0.0,0.0,0.0,0.0,0.0,0.0,0.0,0.0,0.0,0.0,0.0,0.0,0.0,0.0,0.0,0.0,0.0,0.0,0.0,0.0,0.0,0.0,0.0,0.0,0.0,0.0,0.0,0.0,0.0,0.0,0.0,0.0,0.0,0.0,0.0,0.0,0.0,0.0,0.0,0.0,0.0,0.0,0.0,0.0,0.0,0.0,0.0,0.0,0.0,0.0,0.0,0.0,0.0,0.0,0.0,0.0,0.0,0.0,0.0,0.0,0.0,0.0,0.0,0.0,0.0,0.0,0.0,0.0,0.0,0.0,0.0,0.0,0.0,0.0,0.0,0.0,0.0,0.0,0.0,0.0,0.0,0.0,0.0,2.4025,2.6691,2.8635,3.0113,3.0897,2.6911,2.3468,0.0,0.0,0.0,0.0,0.0,0.0,0.0,0.0,0.0,0.0,0.0,0.0,0.0,0.0,0.0,0.0,0.0,0.0,0.0,0.0,0.0,0.0,0.0,0.0,0.0,0.0,0.0,0.0,0.0,0.0,0.0,0.0,0.0,0.0,0.0,0.0,0.0,0.0,0.0,0.0,0.0,0.0,0.0,0.0,0.0,0.0,0.0,0.0,0.0,0.0,0.0,0.0,0.0,0.0,0.0,0.0,0.0,0.0,0.0,0.0,0.0,0.0,0.0,0.0,0.0,0.0,0.0,0.0,0.0,0.0,0.0,0.0,0.0,0.0,0.0,0.0,0.0,0.0,0.0,0.0,0.0,0.0,0.0,0.0,0.0,0.0,0.0,0.0,0.0,0.0,0.0,0.0,0.0,0.0,0.0,0.0,0.0,0.0,0.0,0.0,0.0,0.0,0.0,0.0,0.0,0.0,0.0,0.0,2.5513,2.9488,3.0188,3.1287,3.2765,2.8671,2.5547,0.0,0.0,0.0,0.0,0.0,0.0,0.0,0.0,0.0,0.0,0.0,0.0,0.0,0.0,0.0,0.0,0.0,0.0,0.0,0.0,0.0,0.0,0.0,0.0,0.0,0.0,0.0,0.0,0.0,0.0,0.0,0.0,0.0,0.0,0.0,0.0,0.0,0.0,0.0,0.0,0.0,0.0,0.0,0.0,0.0,0.0,0.0,0.0,1.6179,0.0,0.0,0.0,0.0,0.0,0.0,0.0,0.0,0.0,0.0,0.0,0.0,0.0,0.0,0.0,0.0,0.0,0.0,0.0,0.0,0.0,0.0,0.0,0.0,0.0,0.0,0.0,0.0,0.0,0.0,0.0,0.0,0.0,0.0,0.0,0.0,0.0,0.0,0.0,0.0,0.0,0.0,0.0,0.0,0.0,0.0,0.0,0.0,0.0,0.0,0.0,0.0,0.0,0.0,0.0,0.0,0.0,0.0,0.0,2.6678,2.976,3.091,3.1836,3.2645,3.058,2.8001,0.0,0.0,0.0,0.0,0.0,0.0,0.0,0.0,0.0,0.0,0.0,0.0,0.0,0.0,0.0,0.0,0.0,0.0,0.0,0.0,0.0,0.0,0.0,0.0,0.0,0.0,0.0,0.0,0.0,0.0,0.0,0.0,0.0,0.0,0.0,0.0,0.0,0.0,0.0,0.0,0.0,0.0,0.0,0.0,0.0,0.0,0.0,0.0,0.0,0.0,0.0,0.0,0.0,0.0,0.0,0.0,0.0,0.0,0.0,0.0,0.0,0.0,0.0,0.0,0.0,0.0,0.0,0.0,0.0,0.0,0.0,0.0,0.0,0.0,0.0,0.0,0.0,0.0,0.0,0.0,0.0,0.0,0.0,0.0,0.0,0.0,0.0,0.0,0.0,0.0,0.0,0.0,0.0,0.0,0.0,0.0,0.0,0.0,0.0,0.0,0.0,0.0,0.0,0.0,0.0,0.0,0.0,2.4776,2.7526,2.9791,3.147,3.2421,3.2682,3.2449,3.0297,2.6066,0.0,0.0,0.0,0.0,0.0,0.0,0.0,0.0,0.0,0.0,0.0,0.0,0.0,0.0,0.0,0.0,0.0,0.0,0.0,0.0,0.0,0.0,0.0,0.0,0.0,0.0,0.0,0.0,0.0,0.0,0.0,0.0,0.0,0.0,0.0,0.0,0.0,0.0,1.4869,1.729,0.0,0.0,0.0,0.0,0.0,0.0,0.0,0.0,1.9554,0.0,0.0,0.0,0.0,0.0,0.0,0.0,0.0,0.0,0.0,0.0,0.0,0.0,0.0,0.0,0.0,0.0,0.0,0.0,0.0,0.0,0.0,0.0,0.0,0.0,0.0,0.0,0.0,0.0,0.0,0.0,0.0,0.0,0.0,0.0,0.0,0.0,0.0,0.0,0.0,0.0,0.0,0.0,0.0,0.0,0.0,0.0,0.0,0.0,0.0,0.0,0.0,0.0,0.0,0.0,0.0,2.453,2.519,2.7849,3.2565,3.3041,3.3867,3.5215,3.3935,3.1199,2.7004,0.0,0.0,0.0,0.0,0.0,0.0,0.0,0.0,0.0,0.0,0.0,0.0,0.0,0.0,0.0,0.0,0.0,0.0,0.0,0.0,0.0,0.0,0.0,0.0,0.0,0.0,0.0,0.0,0.0,0.0,0.0,0.0,0.0,0.0,0.0,0.0,0.0,0.0,0.0,2.0386,2.1421,0.0,0.0,0.0,0.0,0.0,0.0,0.0,0.0,1.9854,0.0,0.0,0.0,0.0,0.0,0.0,0.0,0.0,0.0,0.0,0.0,0.0,0.0,0.0,0.0,0.0,0.0,0.0,0.0,0.0,0.0,0.0,0.0,0.0,0.0,0.0,0.0,0.0,0.0,0.0,0.0,0.0,0.0,0.0,0.0,0.0,0.0,0.0,0.0,0.0,0.0,0.0,0.0,0.0,0.0,0.0,0.0,0.0,0.0,0.0,0.0,0.0,0.0,0.0,0.0,2.451,2.6508,2.8965,3.1989,3.2929,3.3787,3.4593,3.2953,3.0452,0.0,0.0,0.0,0.0,0.0,0.0,0.0,0.0,0.0,0.0,0.0,0.0,0.0,0.0,0.0,0.0,0.0,0.0,0.0,0.0,0.0,0.0,0.0,0.0,0.0,0.0,0.0,0.0,0.0,0.0,0.0,0.0,0.0,0.0,0.0,0.0,0.0,0.0,0.0,0.0,2.197,2.3384,2.5749,0.0,0.0,0.0,0.0,0.0,0.0,2.1806,2.1157,0.0,0.0,0.0,0.0,0.0,0.0,0.0,0.0,0.0,0.0,0.0,0.0,0.0,0.0,0.0,0.0,0.0,0.0,0.0,0.0,0.0,0.0,0.0,0.0,0.0,0.0,0.0,0.0,0.0,0.0,0.0,0.0,0.0,0.0,0.0,0.0,0.0,0.0,0.0,0.0,0.0,0.0,0.0,0.0,0.0,0.0,0.0,0.0,0.0,0.0,0.0,0.0,0.0,0.0,0.0,2.4144,2.7319,2.9781,3.1365,3.2539,3.3394,3.3854,3.1705,2.9323,0.0,0.0,0.0,0.0,0.0,0.0,0.0,0.0,0.0,0.0,0.0,0.0,0.0,0.0,0.0,0.0,0.0,0.0,0.0,0.0,0.0,0.0,0.0,0.0,0.0,0.0,0.0,0.0,0.0,0.0,0.0,0.0,0.0,0.0,0.0,0.0,0.0,0.0,0.0,0.0,0.0,2.5623,2.7682,2.5704,0.0,0.0,0.0,0.0,2.5335,2.4881,0.0,0.0,0.0,0.0,0.0,0.0,0.0,0.0,0.0,0.0,0.0,0.0,0.0,0.0,0.0,0.0,0.0,0.0,0.0,0.0,0.0,0.0,0.0,0.0,0.0,0.0,0.0,0.0,0.0,0.0,0.0,0.0,0.0,0.0,0.0,0.0,0.0,0.0,0.0,0.0,0.0,0.0,0.0,0.0,0.0,0.0,0.0,0.0,0.0,0.0,0.0,0.0,0.0,0.0,0.0,0.0,2.4184,2.6209,2.9125,3.285,3.2578,3.3356,3.5566,3.1797,2.8437,0.0,0.0,0.0,0.0,0.0,0.0,0.0,0.0,0.0,0.0,0.0,0.0,0.0,0.0,0.0,0.0,0.0,0.0,0.0,0.0,0.0,0.0,0.0,0.0,0.0,0.0,0.0,0.0,0.0,0.0,0.0,0.0,0.0,0.0,0.0,0.0,0.0,0.0,0.0,0.0,0.0,2.8519,2.9574,2.7393,2.6167,0.0,0.0,2.7442,2.9015,3.0546,0.0,0.0,0.0,0.0,0.0,0.0,0.0,0.0,0.0,0.0,0.0,0.0,0.0,0.0,0.0,0.0,0.0,0.0,0.0,0.0,0.0,0.0,0.0,0.0,0.0,0.0,0.0,0.0,0.0,0.0,0.0,0.0,0.0,0.0,0.0,0.0,0.0,0.0,0.0,0.0,0.0,0.0,0.0,0.0,0.0,0.0,0.0,0.0,0.0,0.0,0.0,0.0,0.0,0.0,0.0,2.2257,2.5641,2.8422,3.1014,3.3281,3.3511,3.4088,3.5243,3.1015,2.7773,0.0,0.0,0.0,0.0,0.0,0.0,0.0,0.0,0.0,0.0,0.0,0.0,0.0,0.0,0.0,0.0,0.0,0.0,0.0,0.0,0.0,0.0,0.0,0.0,0.0,0.0,0.0,0.0,0.0,0.0,0.0,0.0,0.0,0.0,0.0,0.0,0.0,0.0,0.0,0.0,0.0,0.0,3.1311,3.042,0.0,0.0,0.0,3.0525,3.096,0.0,0.0,0.0,0.0,0.0,0.0,0.0,0.0,0.0,0.0,0.0,0.0,0.0,0.0,0.0,0.0,0.0,0.0,0.0,0.0,0.0,0.0,0.0,0.0,0.0,0.0,0.0,0.0,0.0,0.0,0.0,0.0,0.0,0.0,0.0,0.0,0.0,0.0,0.0,0.0,0.0,0.0,0.0,0.0,0.0,0.0,0.0,0.0,0.0,0.0,0.0,0.0,0.0,0.0,0.0,0.0,0.0,2.6782,3.0308,3.2655,3.3704,3.4121,3.4576,3.4922,3.1206,0.0,0.0,0.0,0.0,0.0,0.0,0.0,0.0,0.0,0.0,0.0,0.0,0.0,0.0,0.0,0.0,0.0,0.0,0.0,0.0,0.0,0.0,0.0,0.0,0.0,0.0,0.0,1.0689,0.0,0.0,0.0,0.0,0.0,0.0,0.0,0.0,0.0,0.0,0.0,0.0,0.0,0.0,3.2545,3.3624,3.3868,3.4644,0.0,0.0,3.4187,3.4343,3.6044,3.5315,0.0,0.0,0.0,0.0,0.0,0.0,0.0,0.0,0.0,0.0,0.0,0.0,0.0,0.0,0.0,0.0,0.0,0.0,0.0,0.0,0.0,0.0,0.0,0.0,0.0,0.0,0.0,0.0,0.0,0.0,0.0,0.0,0.0,0.0,0.0,0.0,0.0,0.0,0.0,0.0,0.0,0.0,0.0,0.0,0.0,0.0,0.0,0.0,0.0,0.0,0.0,0.0,0.0,0.0,0.0,2.6795,3.0311,3.2925,3.452,3.3875,3.4249,3.5694,3.3152,2.9804,0.0,0.0,0.0,0.0,0.0,0.0,0.0,0.0,0.0,0.0,0.0,0.0,0.0,0.0,0.0,0.0,0.0,0.0,0.0,0.0,0.0,0.0,0.0,0.0,0.0,0.0,0.0,0.0,0.0,0.0,0.0,0.0,0.0,0.0,0.0,0.0,0.0,0.0,0.0,0.0,0.0,3.4523,3.685,3.7379,3.8754,0.0,0.0,3.9219,4.0854,4.1935,4.0307,3.3328,0.0,0.0,0.0,0.0,0.0,0.0,0.0,0.0,0.0,0.0,0.0,0.0,0.0,0.0,0.0,0.0,0.0,0.0,0.0,0.0,0.0,0.0,0.0,0.0,0.0,0.0,0.0,0.0,0.0,0.0,0.0,0.0,0.0,0.0,0.0,0.0,0.0,0.0,0.0,0.0,0.0,0.0,0.0,0.0,0.0,0.0,0.0,0.0,0.0,0.0,0.0,0.0,0.0,2.4193,2.7587,3.164,3.4278,3.5358,3.5107,3.5249,3.5867,3.3382,3.0194,0.0,0.0,0.0,0.0,0.0,0.0,0.0,0.0,0.0,0.0,0.0,0.0,0.0,0.0,0.0,0.0,0.0,0.0,0.0,0.0,0.0,0.0,0.0,0.0,0.0,0.0,0.0,0.0,1.7189,1.8553,1.8491,0.0,0.0,0.0,0.0,0.0,0.0,0.0,0.0,0.0,0.0,3.7317,4.0471,4.1503,0.0,0.0,4.3242,4.2188,4.2118,4.1757,3.9362,3.3167,3.0351,0.0,0.0,0.0,0.0,0.0,0.0,0.0,0.0,0.0,0.0,0.0,0.0,0.0,0.0,0.0,0.0,0.0,0.0,0.0,0.0,0.0,0.0,0.0,0.0,0.0,0.0,0.0,0.0,0.0,0.0,0.0,0.0,0.0,0.0,0.0,0.0,0.0,0.0,0.0,0.0,0.0,0.0,0.0,0.0,0.0,0.0,0.0,0.0,0.0,0.0,0.0,0.0,2.467,2.8061,3.2457,3.5122,3.5926,3.5912,3.5899,3.5853,3.3877,3.1166,0.0,0.0,0.0,0.0,0.0,0.0,0.0,0.0,0.0,0.0,0.0,0.0,0.0,0.0,0.0,0.0,0.0,0.0,0.0,0.0,0.0,0.0,0.0,0.0,0.0,0.0,0.0,0.0,1.9358,2.0249,1.9255,0.0,0.0,0.0,0.0,0.0,0.0,0.0,0.0,0.0,0.0,4.024,4.2899,4.3877,4.4533,4.5251,4.4137,4.2952,4.2103,4.1179,3.8986,3.4305,0.0,0.0,0.0,0.0,0.0,0.0,0.0,0.0,0.0,0.0,0.0,0.0,0.0,0.0,0.0,0.0,0.0,0.0,0.0,0.0,0.0,0.0,0.0,0.0,0.0,0.0,0.0,0.0,0.0,0.0,1.4102,0.0,0.0,0.0,0.0,0.0,0.0,0.0,0.0,0.0,0.0,0.0,0.0,0.0,0.0,0.0,0.0,0.0,0.0,0.0,0.0,0.0,0.0,2.4709,2.8101,3.2493,3.5155,3.5965,3.5942,3.589,3.5853,3.5058,3.2975,2.9441,0.0,0.0,0.0,0.0,0.0,0.0,0.0,0.0,0.0,0.0,0.0,0.0,0.0,0.0,0.0,0.0,0.0,0.0,0.0,0.0,0.0,0.0,0.0,0.0,0.0,0.0,1.6979,1.8094,1.8471,0.0,0.0,0.0,0.0,0.0,0.0,0.0,0.0,0.0,0.0,3.8495,4.3189,4.3646,4.3936,4.4432,4.5045,4.29,4.1195,4.1351,4.1063,4.0144,0.0,0.0,0.0,0.0,0.0,0.0,0.0,0.0,0.0,0.0,0.0,0.0,0.0,0.0,0.0,0.0,0.0,0.0,0.0,0.0,0.0,0.0,0.0,0.0,0.0,0.0,0.0,1.6114,1.4624,0.0,0.0,0.0,0.0,0.0,0.0,0.0,0.0,0.0,0.0,0.0,2.3836,2.4961,0.0,0.0,0.0,0.0,0.0,0.0,0.0,0.0,0.0,0.0,0.0,0.0,2.6118,2.9005,3.3311,3.5695,3.6004,3.5943,3.5937,3.5954,3.4596,3.1925,2.7888,0.0,0.0,0.0,0.0,0.0,0.0,0.0,0.0,0.0,0.0,0.0,0.0,0.0,0.0,0.0,0.0,0.0,0.0,0.0,0.0,0.0,0.0,0.0,0.0,0.0,1.7945,0.0,0.0,0.0,0.0,0.0,0.0,0.0,0.0,0.0,0.0,0.0,3.2665,3.7621,3.9652,4.1804,4.4931,4.5418,4.623,0.0,0.0,0.0,0.0,0.0,0.0,0.0,0.0,0.0,0.0,0.0,0.0,0.0,0.0,3.8034,3.1316,2.9959,2.9966,3.0379,0.0,0.0,0.0,0.0,0.0,0.0,0.0,0.0,0.0,0.0,0.0,0.0,0.0,0.0,1.8966,0.0,1.7905,0.0,0.0,0.0,0.0,0.0,0.0,0.0,0.0,2.4698,2.6352,2.691,2.8354,2.8396,0.0,2.7301,2.5367,0.0,0.0,0.0,0.0,0.0,0.0,0.0,0.0,2.717,2.9471,3.3743,3.6014,3.6009,3.5956,3.5954,3.5965,3.4329,3.1769,2.8355,2.5741,2.3579,0.0,0.0,0.0,0.0,0.0,0.0,0.0,0.0,0.0,0.0,0.0,0.0,0.0,0.0,0.0,0.0,0.0,0.0,0.0,0.0,0.0,0.0,0.0,2.0642,0.0,0.0,0.0,0.0,0.0,0.0,0.0,0.0,0.0,3.0274,3.3209,3.7067,4.1934,4.2736,4.3515,4.5281,0.0,0.0,0.0,0.0,0.0,0.0,0.0,3.8116,3.9113,3.7848,3.7414,3.9488,4.2177,4.3924,4.3583,0.0,0.0,3.7725,3.6171,3.6351,3.7298,3.8022,3.8601,3.9096,4.0585,4.1679,0.0,0.0,0.0,0.0,0.0,0.0,0.0,0.0,2.0615,2.1494,0.0,2.1209,0.0,0.0,0.0,0.0,0.0,2.3238,0.0,0.0,2.8037,2.9583,2.9641,3.0542,3.0891,3.0843,3.0781,3.0347,2.9297,2.4531,0.0,0.0,0.0,0.0,0.0,0.0,2.7784,2.9661,3.3825,3.6028,3.6019,3.6018,3.5975,3.5928,3.4336,3.2628,3.084,2.8395,2.6289,2.4569,2.1229,0.0,0.0,0.0,0.0,0.0,0.0,0.0,0.0,0.0,0.0,0.0,0.0,0.0,0.0,0.0,0.0,0.0,0.0,0.0,0.0,2.3176,0.0,0.0,0.0,0.0,0.0,0.0,0.0,0.0,0.0,0.0,3.4077,3.8184,4.223,4.4662,0.0,0.0,0.0,0.0,4.5931,4.216,4.0743,4.0083,3.9503,4.0739,4.2537,4.4635,0.0,0.0,4.8236,4.9182,4.9286,4.7026,4.9372,5.0697,4.7951,4.5249,4.4178,4.5672,4.5375,4.5506,4.6996,4.8334,4.9444,2.7713,0.0,0.0,0.0,0.0,2.4903,2.5198,2.567,2.5691,2.5315,2.4542,2.4089,0.0,0.0,0.0,0.0,0.0,0.0,2.7656,2.8943,3.1155,3.2499,3.3171,3.4616,3.4999,3.4399,3.4384,3.4277,3.3924,3.1309,2.7099,2.1517,0.0,0.0,0.0,0.0,2.9204,3.2147,3.4715,3.6022,3.6019,3.6012,3.57,3.508,3.4581,3.3532,3.1778,3.1005,2.9528,2.7187,2.5543,0.0,0.0,0.0,0.0,0.0,0.0,0.0,0.0,0.0,0.0,0.0,0.0,0.0,0.0,0.0,0.0,0.0,0.0,0.0,2.2371,2.5089,2.5568,0.0,0.0,0.0,0.0,0.0,0.0,0.0,0.0,0.0,4.2569,4.2524,4.301,0.0,0.0,4.3692,4.3269,4.4806,4.6292,4.7167,0.0,0.0,0.0,4.6672,4.5978,4.8876,5.1244,5.2631,5.2401,5.3327,5.4078,5.3843,5.4654,5.5381,5.5703,5.2791,5.0728,5.1446,5.1554,5.1904,5.3445,5.4217,5.4645,3.0978,2.9014,2.7912,2.7681,2.8085,2.7786,2.7875,2.8203,2.7926,2.7611,2.7219,2.6898,2.6464,2.5978,2.5575,0.0,0.0,0.0,3.0095,3.1226,3.3277,3.4294,3.4666,3.6662,3.7168,3.6374,3.6705,3.7078,3.7371,3.5307,3.2202,2.8083,0.0,0.0,2.631,2.8531,3.0855,3.3242,3.5067,3.6029,3.6024,3.6019,3.5745,3.5245,3.4895,3.4195,3.3183,3.2478,3.1353,2.9803,2.8593,2.66,0.0,0.0,0.0,0.0,0.0,0.0,0.0,0.0,0.0,0.0,0.0,1.56,1.2848,0.0,0.0,0.0,2.2473,2.4349,2.6186,2.7621,0.0,0.0,0.0,0.0,0.0,0.0,0.0,3.6028,4.0248,4.4005,4.6856,4.6848,4.6964,4.8226,4.6806,4.5767,4.607,0.0,4.9391,5.0684,5.0411,5.0706,5.2471,5.0955,5.0537,5.3666,5.5731,5.7086,5.7433,5.8312,5.9119,5.9533,5.9631,5.9931,6.0911,5.8823,5.7043,5.7212,5.7213,5.7634,5.8855,5.9071,5.9234,3.2983,3.2861,3.1463,3.075,3.0416,2.9712,2.932,2.915,2.8412,2.901,3.0474,2.9604,2.9803,3.0697,2.9897,0.0,3.1049,3.1699,3.2102,3.2409,3.4817,3.549,3.4853,3.7264,3.7936,3.7153,3.7912,3.8766,3.9499,3.7047,3.591,3.5995,3.2763,3.0625,2.9833,3.144,3.2694,3.3515,3.5152,3.6003,3.6031,3.6031,3.6031,3.5991,3.5244,3.4775,3.4664,3.3167,3.2264,3.2158,3.0695,2.9373,2.8317,0.0,0.0,0.0,0.0,0.0,0.0,0.0,0.0,0.0,0.0,0.0,0.0,0.0,0.0,0.0,2.8041,0.0,3.2079,3.0746,0.0,0.0,0.0,3.1494,3.3191,3.6215,3.9061,4.1478,0.0,0.0,4.8457,0.0,5.2757,5.3473,5.2596,5.177,5.139,5.2927,5.4008,5.2927,5.291,5.3064,5.3823,5.4511,5.6025,5.8548,6.0472,6.1555,6.221,6.2934,6.3658,6.3421,6.368,6.3608,6.3587,6.3235,6.327,6.2297,6.1998,6.2118,6.2703,6.2835,6.2815,3.4665,3.4595,3.4227,3.3349,3.2115,3.1931,3.1826,3.1782,3.1599,3.175,3.2109,3.1263,3.1123,3.1453,3.1352,3.2133,3.3617,3.3729,3.4525,3.5814,3.7053,3.7505,3.7443,3.8696,3.883,3.7994,3.762,3.8201,3.9533,3.7053,3.6497,3.761,3.5661,3.3828,3.2399,3.3374,3.4365,3.5195,3.5625,3.5895,3.5985,3.6022,3.6022,3.6023,3.5786,3.5393,3.4726,3.4332,3.3786,3.3131,3.2708,3.1782,3.0153,2.6478,0.0,0.0,0.0,0.0,0.0,0.0,0.0,0.0,0.0,2.0883,1.59,0.0,2.4571,0.0,3.1752,3.5127,3.495,3.5107,0.0,0.0,3.6648,3.723,3.992,4.2248,4.4145,4.5348,4.8163,5.0864,5.3087,5.3938,5.5171,5.7117,5.4762,5.2745,5.2719,5.4135,5.522,5.519,5.6261,5.7695,5.8963,6.0706,6.1839,6.2724,6.3158,6.3463,6.3623,6.3747,6.3868,6.3863,6.3765,6.3908,6.4453,6.453,6.4667,6.4855,6.3974,6.3213,6.3949,6.4166,6.4279,3.5208,3.5166,3.5145,3.456,3.3684,3.3385,3.3245,3.3207,3.2821,3.2668,3.2672,3.27,3.2961,3.3338,3.3481,3.4284,3.5514,3.5508,3.6187,3.7509,3.8304,3.8324,3.7644,3.8861,3.8852,3.7699,3.7606,3.812,3.9001,3.7648,3.747,3.8403,3.7472,3.6322,3.4993,3.5003,3.5273,3.5728,3.5815,3.6249,3.7068,3.6368,3.5793,3.5377,3.4984,3.4208,3.2967,3.2536,3.2067,3.164,3.1601,3.1172,3.0115,2.7238,2.4895,0.0,0.0,0.0,0.0,0.0,0.0,0.0,0.0,0.0,0.0,0.0,2.6706,0.0,3.4254,0.0,3.7566,3.8268,3.956,4.1471,4.161,4.27,4.5564,4.7188,4.871,5.029,5.2194,5.4122,5.5939,5.6886,5.7878,5.9342,5.8004,5.6735,5.6392,5.7114,5.7901,5.876,5.9795,6.0984,6.2396,6.3423,6.4243,6.4582,6.4696,6.4762,6.5084,6.5125,6.5093,6.5106,6.498,6.5009,6.5446,6.5479,6.5578,6.5743,6.5217,6.4748,6.5006,6.5095,6.5216,3.5191,3.5222,3.5177,3.5196,3.5234,3.4593,3.4217,3.3963,3.3239,3.285,3.2828,3.3768,3.4584,3.5244,3.5347,3.5911,3.6701,3.6765,3.7282,3.8132,3.8954,3.8495,3.7151,3.8611,3.8546,3.715,3.786,3.8319,3.8549,3.8463,3.85,3.8656,3.8549,3.8052,3.7265,3.6447,3.598,3.5874,3.6,3.6796,3.8239,3.6653,3.5383,3.4609,3.3632,3.242,3.0902,3.0052,2.9663,2.9734,2.985,2.9929,3.0013,2.77,2.6334,0.0,2.3176,0.0,0.0,0.0,0.0,0.0,0.0,0.0,0.0,2.8746,3.0072,3.2516,3.6579,3.9418,4.037,4.1256,4.2733,4.5198,4.6188,4.7651,4.9956,5.112,5.2557,5.4772,5.5942,5.6902,5.7758,5.9299,6.0282,6.0475,6.0857,6.0794,6.0456,6.0208,6.0759,6.2585,6.3016,6.3328,6.4011,6.4369,6.479,6.5392,6.5581,6.5806,6.6406,6.6526,6.6535,6.6528,6.6384,6.6312,6.6316,6.6235,6.619,6.6118,6.5986,6.5863,6.5782,6.5763,6.5742,3.5434,3.5984,3.5979,3.6323,3.6856,3.6725,3.5951,3.4786,3.4669,3.423,3.3637,3.3948,3.4225,3.4364,3.4489,3.5022,3.5894,3.6523,3.7292,3.8194,3.9007,3.9242,3.9,3.9315,3.8962,3.8089,3.8218,3.87,3.9445,3.8737,3.8769,3.9438,3.8734,3.8241,3.8064,0.0,0.0,0.0,3.683,3.7031,3.7302,3.5618,3.462,3.4418,3.2944,0.0,3.1694,3.15,3.1422,3.1459,3.2114,0.0,0.0,0.0,0.0,0.0,0.0,0.0,0.0,0.0,0.0,0.0,3.2767,3.2166,2.957,3.2899,3.6068,3.8067,4.0899,4.3262,4.4806,4.5744,4.7031,4.8862,4.9783,5.0786,5.1992,5.3457,5.4691,5.5078,5.6492,5.7784,5.8641,5.9659,6.0555,6.1179,6.149,6.1527,6.1323,6.132,6.1751,6.273,6.4013,6.4912,6.5112,6.5696,6.6083,6.6429,6.6468,6.6504,6.6652,6.6648,6.6575,6.6607,6.6488,6.6402,6.6394,6.6351,6.6322,6.619,6.616,6.6112,6.5984,6.5958,6.5903,3.604,0.0,3.6733,3.6923,0.0,3.7235,3.6831,3.6124,3.5775,3.5195,3.4454,3.4622,3.472,3.4767,3.4892,3.543,3.6278,3.6642,3.7527,3.8807,3.92,3.9438,3.9434,3.9434,3.9042,3.8249,3.8277,3.8556,3.8999,3.8632,3.8687,3.9099,3.8632,3.8417,3.8397,3.8827,3.8828,3.8315,3.7929,3.816,3.8965,3.7341,3.6014,3.5146,0.0,0.0,0.0,0.0,0.0,0.0,0.0,0.0,0.0,0.0,0.0,3.3856,3.2673,3.2662,3.4338,3.4914,3.5686,3.7008,3.8322,3.7596,3.4124,3.7398,4.0346,4.2102,4.3907,4.5795,4.7882,4.851,4.9329,5.0575,5.1456,5.2258,5.319,5.4375,5.5331,5.5918,5.7321,5.8531,5.896,6.0168,6.1062,6.1529,6.1568,6.1607,6.1646,6.1958,6.2659,6.3945,6.519,6.6008,6.6086,6.6359,6.6709,6.6709,6.6709,6.6709,6.6709,6.6663,6.6585,6.6578,6.6507,6.6439,6.6469,6.6441,6.6355,6.6306,6.6298,6.6205,6.6112,6.6046,6.5984,3.684,3.75,3.7455,3.7485,3.763,3.763,3.7595,3.7435,0.0,0.0,0.0,3.5309,3.5327,3.5398,3.5518,3.5982,3.6642,3.6745,3.7672,3.9171,3.9345,3.9506,3.9654,3.9666,3.9316,3.8717,3.8731,3.8807,3.8872,3.8923,3.8945,3.8949,3.896,3.8972,3.9022,3.9659,3.9997,3.9909,3.9099,3.9366,4.0728,3.9145,3.7566,3.6133,3.5117,3.3472,3.1242,3.1984,3.2375,3.2218,3.2645,3.3239,3.4038,3.4273,3.5133,3.6814,3.6813,3.7831,4.0215,4.0404,4.0868,4.1959,4.2532,4.1848,3.9507,4.143,4.3517,4.5215,4.6204,4.7657,4.9889,5.0241,5.067,5.1528,5.2365,5.3164,5.4018,5.4888,5.5723,5.6505,5.7949,5.8999,5.9038,6.0518,6.1568,6.1568,6.1568,6.1763,6.2075,6.2698,6.3595,6.4995,6.5969,6.667,6.6709,6.667,6.6709,6.6709,6.6709,6.6709,6.6702,6.6663,6.6588,6.6585,6.656,6.6516,6.6505,6.6477,6.641,6.6402,6.6338,6.6298,6.619,6.6097,6.5964,3.7564,3.8218,3.8244,3.8629,3.9263,3.9269,3.8916,3.8233,3.6828,3.6198,3.6107,3.556,3.5296,3.5316,3.5433,3.5579,3.5743,3.6456,3.7369,0.0,3.9149,3.987,4.0575,4.0663,4.0628,4.0544,4.0537,4.0571,4.0645,4.0615,4.0664,4.0714,4.0718,4.0719,4.0761,4.0881,4.0925,4.0897,3.9987,3.9646,3.9874,3.8123,3.7094,3.6815,3.5378,3.4011,3.2947,3.3692,3.3809,3.3142,3.5124,3.6697,3.7614,3.8358,3.9609,4.1248,4.0779,4.1171,4.3008,4.3122,4.3853,4.5363,4.5,4.4129,4.3104,4.3971,4.5304,4.6945,4.7893,4.8874,5.0008,5.0788,5.1527,5.2415,5.3256,5.4058,5.4903,5.574,5.6349,5.6585,5.7947,5.8999,5.9232,6.0555,6.1568,6.1568,6.1685,6.2114,6.3361,6.3865,6.4332,6.5229,6.6125,6.6631,6.6709,6.6709,6.6709,6.6709,6.6709,6.6709,6.6709,6.6663,6.6588,6.6585,6.6525,6.6516,6.6508,6.6505,6.6481,6.6414,6.6403,6.6345,6.621,6.6124,6.605,3.8374,3.9066,3.9074,3.9269,3.9595,3.9626,3.9443,3.9055,3.7997,3.7045,3.6249,3.5518,3.5223,3.5289,3.5381,3.5447,3.5531,3.6389,3.7312,3.8211,3.9114,3.9965,4.0771,4.0863,4.0942,4.0971,4.0976,4.0965,4.0981,4.1031,4.1079,4.1123,4.1115,4.1109,4.1109,4.1109,4.1109,4.1071,4.065,4.0474,4.0476,3.9675,3.898,3.8552,3.8198,3.7416,3.6169,3.738,3.7653,3.6794,3.7889,3.8942,3.983,4.0692,4.1746,4.2992,4.319,4.3781,4.4998,4.5116,4.5458,4.6231,4.5948,4.555,4.5156,4.5467,4.6402,4.8001,4.8597,4.9345,5.0671,5.157,5.2269,5.2646,5.3801,5.4721,5.5211,5.5972,5.6663,5.7167,5.8219,5.9155,5.9661,6.083,6.1568,6.1607,6.1958,6.2932,6.453,6.4839,6.5114,6.5969,6.6437,6.667,6.6709,6.6709,6.6709,6.6709,6.6709,6.6709,6.6707,6.6624,6.6591,6.6578,6.6521,6.6516,6.6508,6.6508,6.6497,6.6481,6.6424,6.6358,6.6279,6.6438,6.6637,3.9024,3.967,3.9602,3.9595,3.9595,3.9638,3.9662,3.9611,3.8869,3.7904,3.6834,3.6028,3.5743,3.5848,3.5894,3.5992,3.6136,3.6731,3.7584,3.8457,3.9167,3.9959,4.0754,4.0891,4.093,4.0997,4.1009,4.1031,4.1033,4.1084,4.1089,4.1088,4.1115,4.1109,4.1109,4.1109,4.1109,4.1109,4.1304,4.1273,4.1089,4.1284,4.0939,4.0246,4.0909,4.0562,3.8973,4.0262,4.0691,3.9909,4.019,4.0774,4.1624,4.23,4.3171,4.4193,4.4708,4.5383,4.6171,4.6288,4.6281,4.6315,4.631,4.6384,4.6576,4.6609,4.7188,4.8554,4.8989,4.9774,5.1141,5.2157,5.2777,5.2998,5.4314,5.5235,5.5528,5.6098,5.6831,5.7611,5.8468,5.9365,6.0222,6.1073,6.1653,6.1999,6.2776,6.4023,6.5112,6.554,6.6008,6.6437,6.6709,6.6709,6.6709,6.6709,6.6709,6.6709,6.6709,6.6709,6.6702,6.6663,6.6627,6.6575,6.6563,6.6516,6.6508,6.6508,6.6508,6.6501,6.6449,6.6454,6.6637,6.6918,6.7164,3.942,3.9546,3.9564,3.9595,3.9595,3.9602,3.9626,3.9599,3.8777,3.8459,3.8357,3.7675,3.7389,3.7478,3.7483,3.7537,3.7598,3.7824,3.8341,3.9126,3.938,3.9959,4.0754,4.0869,4.0954,4.1013,4.105,4.1068,4.107,4.111,4.111,4.111,4.1109,4.1109,4.1109,4.1109,4.1109,4.1109,4.1809,4.181,4.1188,4.1812,4.1812,4.1034,4.1736,4.1386,3.9794,4.0608,4.0688,4.0027,4.1301,4.2523,4.3306,4.3518,4.4309,4.5832,4.5377,4.5388,4.621,4.6287,4.6286,4.6282,4.6281,4.6629,4.7326,4.7481,4.7829,4.8761,4.9539,5.032,5.1297,5.2235,5.3049,5.3739,5.4672,5.5525,5.6171,5.6439,5.6831,5.7691,5.8622,5.9405,6.0338,6.1181,6.1939,6.2701,6.3984,6.5034,6.5501,6.6047,6.6476,6.667,6.6709,6.6709,6.6709,6.6709,6.6709,6.6709,6.6709,6.6709,6.6699,6.6666,6.6585,6.6578,6.6521,6.6512,6.6508,6.6508,6.6508,6.6501,6.65,6.6588,6.7159,6.7448,6.7425,3.9502,3.9546,3.9577,3.9614,3.967,3.9645,3.962,3.9674,3.9336,3.9226,3.9258,3.8958,3.8409,3.7656,3.7706,3.775,3.784,3.8391,3.8893,3.9349,3.992,4.0429,4.0765,4.0849,4.0941,4.1013,4.1045,4.106,4.1028,4.1062,4.105,4.1041,4.105,4.1057,4.1057,4.1065,4.1109,4.1109,4.1421,4.1419,4.1226,4.1887,4.1927,4.1265,4.1888,4.1771,4.0797,4.138,4.1424,4.0695,4.1255,4.2006,4.2873,4.3435,4.4265,4.5404,4.5694,4.5936,4.6289,4.6288,4.6287,4.6286,4.6284,4.6672,4.7528,4.8032,4.8653,4.9432,4.9894,5.0437,5.1375,5.2624,5.3634,5.4092,5.518,5.6111,5.6446,5.6483,5.699,5.8318,5.8903,5.9645,6.0891,6.1851,6.2685,6.3521,6.4686,6.554,6.6047,6.6476,6.667,6.6709,6.6709,6.6709,6.6709,6.6709,6.6709,6.6709,6.6709,6.6709,6.6702,6.6624,6.6585,6.6585,6.6521,6.6512,6.6508,6.6508,6.6508,6.6501,6.6469,6.664,6.7377,6.7913,6.8276,3.9533,3.9595,3.962,3.9662,3.9692,3.9656,3.9662,3.9655,3.946,3.9347,3.9365,3.9351,3.8834,3.7983,3.8161,3.8333,3.8487,3.9107,3.9473,3.9654,4.0335,4.0694,4.0772,4.085,4.0907,4.0948,4.0978,4.1001,4.0974,4.0967,4.099,4.098,4.0991,4.1002,4.1009,4.1059,4.1067,4.1148,4.1499,4.1575,4.1304,4.212,4.2159,4.1302,4.1887,4.1926,4.1148,4.1659,4.1706,4.1134,4.1338,4.1853,4.2721,4.359,4.446,4.5291,4.5929,4.6287,4.6289,4.6289,4.6288,4.6327,4.6482,4.7027,4.7885,4.8702,4.9557,5.0334,5.0446,5.0792,5.1414,5.2975,5.3946,5.4094,5.5498,5.6509,5.6499,5.6536,5.72,5.876,5.9077,5.9851,6.1602,6.2717,6.3553,6.4391,6.5236,6.593,6.6515,6.667,6.6709,6.6709,6.6709,6.6709,6.6709,6.6709,6.6709,6.6709,6.6709,6.6709,6.6707,6.6621,6.6585,6.6578,6.6514,6.6516,6.6508,6.6508,6.6508,6.6501,6.6516,6.6825,6.7918,6.8476,6.9227,3.9502,3.9526,3.9623,3.9708,3.9714,3.9702,3.967,3.9557,3.8844,3.851,3.8539,3.8505,3.848,3.8493,3.9142,3.9855,4.0038,4.0067,4.0167,4.029,4.0504,4.0637,4.07,4.0765,4.0848,4.0922,4.0926,4.0917,4.0972,4.0976,4.0976,4.0972,4.0972,4.0986,4.1001,4.1006,4.1055,4.1299,4.2508,4.2666,4.1536,4.2705,4.2666,4.1341,4.1848,4.1887,4.1227,4.1165,4.1173,4.1135,4.1823,4.2655,4.3591,4.4459,4.5326,4.6077,4.624,4.6284,4.6287,4.6289,4.6289,4.6406,4.6992,4.7851,4.867,4.949,5.0346,5.1235,5.1234,5.1308,5.1612,5.3014,5.395,5.4105,5.555,5.6486,5.6603,5.6677,5.7383,5.8709,5.9255,6.0265,6.2518,6.3634,6.4314,6.5152,6.6025,6.6634,6.6637,6.6712,6.6712,6.6709,6.6709,6.6709,6.6709,6.6709,6.6709,6.6709,6.6709,6.6707,6.6691,6.6633,6.6603,6.6569,6.651,6.6516,6.6512,6.6508,6.6508,6.6505,6.6505,6.7013,6.833,6.8761,6.9553,3.9571,3.9613,3.9686,3.9714,3.9739,3.9737,3.9418,3.889,3.8542,3.8093,3.7662,3.7564,3.7642,3.7758,3.8072,3.891,4.0025,4.021,4.0307,4.0377,4.0496,4.0644,4.0701,4.0769,4.0859,4.0899,4.0871,4.084,4.0847,4.0847,4.0886,4.0893,4.0919,4.0937,4.095,4.0974,4.1262,4.1854,4.2528,4.2456,4.1987,4.2464,4.22,4.1226,4.138,4.1386,4.1127,4.1094,4.1338,4.1901,4.1715,4.2463,4.4342,4.5361,4.5953,4.6273,4.6279,4.6284,4.6287,4.6289,4.6289,4.6367,4.7109,4.8008,4.8828,4.9686,5.0544,5.1167,5.1397,5.1588,5.2322,5.333,5.399,5.4225,5.5512,5.6605,5.6722,5.7073,5.7816,5.8947,5.9962,6.1206,6.2092,6.3361,6.4283,6.4741,6.5853,6.658,6.6695,6.6695,6.6727,6.6714,6.6709,6.6709,6.6709,6.6709,6.6709,6.6709,6.6707,6.6696,6.6683,6.6612,6.6581,6.6591,6.6542,6.6512,6.6508,6.6508,6.6508,6.6508,6.6508,6.7161,6.8738,6.892,6.9834,3.9608,3.9698,3.9728,3.9749,3.9773,3.9789,3.9292,3.8579,3.8227,3.7568,3.6878,3.6748,3.677,3.6895,3.7182,3.7979,3.9153,3.9352,3.9438,3.9538,3.9684,3.9925,4.0226,4.0291,4.0492,4.0754,4.0759,4.0771,4.0787,4.0787,4.0787,4.0793,4.0866,4.0893,4.0949,4.1213,4.1738,4.226,4.2821,4.3023,4.2794,4.2955,4.2734,4.2002,4.1648,4.1346,4.1134,4.11,4.1503,4.2186,4.2073,4.3015,4.5167,4.5949,4.6303,4.6309,4.6278,4.6283,4.6286,4.6289,4.6406,4.6719,4.7539,4.8398,4.9258,5.0117,5.0819,5.1248,5.1403,5.175,5.264,5.3491,5.4111,5.4499,5.5708,5.6605,5.6644,5.7309,5.8246,5.9456,6.0743,6.1636,6.2212,6.3364,6.4209,6.4558,6.586,6.6661,6.6697,6.6697,6.6732,6.6714,6.6709,6.6709,6.6707,6.6702,6.6694,6.6694,6.6691,6.6683,6.666,6.663,6.6601,6.657,6.6585,6.652,6.6508,6.6508,6.6508,6.6508,6.6586,6.701,6.8093,6.8874,6.9735,3.9698,3.9714,3.9789,3.9806,3.9785,3.9862,3.9445,3.8525,3.7807,3.6949,3.6055,3.598,3.598,3.6173,3.6732,3.7374,3.7557,3.7636,3.784,3.8111,3.8161,3.8684,3.9385,3.9528,3.9934,4.0619,4.0668,4.0727,4.0774,4.0815,4.0818,4.0823,4.0829,4.0899,4.0944,4.1728,4.222,4.2754,4.3893,4.4253,4.38,4.4218,4.419,4.3437,4.2686,4.1995,4.1289,4.1224,4.1666,4.2539,4.3172,4.4466,4.5792,4.6261,4.63,4.6304,4.6315,4.6281,4.6283,4.6366,4.6797,4.7422,4.8359,4.9258,4.9961,5.082,5.1328,5.1366,5.1522,5.1832,5.2759,5.3615,5.4392,5.5204,5.6059,5.6566,5.6761,5.7348,5.8519,6.008,6.125,6.2031,6.2846,6.3644,6.4404,6.5139,6.6048,6.6722,6.6722,6.6724,6.6714,6.6709,6.6709,6.6709,6.6702,6.673,6.668,6.6672,6.6669,6.666,6.663,6.6598,6.6581,6.6553,6.6535,6.6508,6.6508,6.6508,6.6508,6.6508,6.6625,6.6819,6.7674,6.8564,6.9312,3.965,3.9704,3.9722,3.9749,3.9779,3.9802,3.9099,3.7823,3.7499,3.6555,3.537,3.5166,3.5186,3.5237,3.5561,3.5775,3.5898,3.6014,3.6662,3.7662,3.7976,3.8488,3.9143,3.9315,3.975,4.0482,4.064,4.0688,4.0726,4.0754,4.0808,4.0811,4.0809,4.1147,4.1678,4.2097,4.2706,4.3962,4.4525,4.4653,4.4465,4.4669,4.4413,4.3693,4.3302,4.3044,4.2847,4.2317,4.2721,4.4058,4.3875,4.4232,4.5245,4.5982,4.6294,4.63,4.6305,4.6313,4.636,4.6833,4.7265,4.7812,4.8945,4.9805,5.0234,5.0937,5.1367,5.1484,5.1914,5.2655,5.3507,5.4363,5.4983,5.5282,5.6059,5.6605,5.68,5.7815,5.9416,6.0938,6.1563,6.1836,6.226,6.3176,6.4251,6.4726,6.5827,6.6695,6.6695,6.6732,6.6729,6.6714,6.6712,6.6702,6.6688,6.6708,6.6687,6.6636,6.6633,6.6627,6.6594,6.6574,6.6553,6.6538,6.652,6.6512,6.6508,6.6508,6.6508,6.6508,6.6547,6.7014,6.7635,6.8284,6.8924,3.9583,3.965,3.9706,3.9722,3.9754,3.9772,3.8855,3.7483,3.7364,3.6409,3.506,3.4868,3.485,3.4879,3.495,3.505,3.5145,3.5261,3.5844,3.6853,3.7419,3.7991,3.8811,3.9454,3.9981,4.0434,4.0576,4.0623,4.0716,4.0742,4.0765,4.0796,4.0792,4.125,4.2086,4.2511,4.3384,4.4639,4.5082,4.5252,4.5262,4.5266,4.5017,4.4581,4.4228,4.4246,4.4436,4.3792,4.3806,4.4753,4.4685,4.4924,4.5473,4.6011,4.6243,4.6249,4.6258,4.6306,4.6393,4.7063,4.777,4.8241,4.9374,5.0312,5.0625,5.1172,5.1445,5.1914,5.2383,5.3203,5.4292,5.4916,5.5419,5.58,5.6259,5.6723,5.7112,5.8244,5.9338,6.0353,6.0664,6.086,6.1441,6.2629,6.3822,6.4296,6.5634,6.6695,6.6695,6.6693,6.6722,6.6709,6.6699,6.6688,6.6674,6.6687,6.6656,6.6643,6.6594,6.6577,6.6553,6.6546,6.6531,6.6524,6.6508,6.6508,6.6508,6.6508,6.6508,6.6508,6.6508,6.678,6.7208,6.7678,6.8357,3.9521,3.9595,3.9688,3.9712,3.9692,3.9696,3.8767,3.7419,3.7311,3.6376,3.5158,3.4917,3.495,3.4955,3.5079,3.5166,3.519,3.5269,3.5339,3.5764,3.6477,3.7437,3.8294,3.9597,4.0296,4.0446,4.0469,4.0576,4.0703,4.0681,4.0752,4.0808,4.0822,4.1316,4.2296,4.3047,4.3842,4.4909,4.5613,4.5937,4.5996,4.5983,4.6,4.5985,4.5315,4.5245,4.5709,4.5222,4.4884,4.509,4.5683,4.6002,4.6201,4.6232,4.6188,4.6192,4.6249,4.6375,4.6537,4.729,4.8116,4.8939,4.9762,5.0467,5.1209,5.1484,5.1875,5.25,5.2891,5.3633,5.4881,5.5427,5.5777,5.6397,5.658,5.6921,5.7699,5.848,5.9025,5.922,5.922,5.9572,6.0665,6.216,6.3391,6.4435,6.5732,6.6527,6.6714,6.6717,6.6709,6.6699,6.6724,6.6702,6.6684,6.662,6.663,6.6567,6.6556,6.6546,6.6531,6.6524,6.652,6.6512,6.6508,6.6508,6.6508,6.6508,6.6508,6.6508,6.6508,6.6508,6.6742,6.7247,6.7728,3.9558,3.9589,3.9608,3.9638,3.9712,3.9692,3.8771,3.7381,3.7311,3.6391,3.5154,3.4917,3.4964,3.5057,3.5092,3.517,3.5249,3.5281,3.5273,3.5456,3.6799,3.7815,3.8658,3.9708,4.0298,4.0334,4.044,4.0492,4.0637,4.0664,4.0749,4.0814,4.084,4.1568,4.2925,4.3335,4.428,4.5455,4.5846,4.6004,4.6051,4.6064,4.6088,4.608,4.5901,4.5918,4.6174,4.5987,4.5888,4.5872,4.603,4.6189,4.6231,4.6219,4.6215,4.6223,4.6226,4.6549,4.7193,4.7944,4.8811,4.9718,5.05,5.1127,5.1362,5.199,5.242,5.2927,5.3749,5.4726,5.5312,5.5858,5.6325,5.6515,5.6664,5.6966,5.7624,5.8011,5.8363,5.8986,5.9611,6.0354,6.1324,6.2711,6.4092,6.502,6.5929,6.6712,6.6714,6.6704,6.6702,6.6724,6.6708,6.6681,6.6653,6.6626,6.656,6.6531,6.6524,6.6524,6.6516,6.6512,6.6512,6.6508,6.6508,6.6508,6.6508,6.6508,6.6508,6.6508,6.6508,6.6508,6.6508,6.6815,6.7203,3.9495,3.9595,3.9595,3.9608,3.9638,3.9682,3.8751,3.7467,3.7279,3.6414,3.5182,3.4927,3.4973,3.5066,3.5106,3.5162,3.5271,3.5237,3.522,3.5463,3.6835,3.8218,3.9252,4.0015,4.0234,4.0311,4.0377,4.0488,4.0594,4.064,4.0701,4.0772,4.0809,4.174,4.3293,4.3539,4.4323,4.565,4.6002,4.6002,4.6002,4.6054,4.6083,4.6108,4.613,4.6187,4.6173,4.6217,4.6191,4.621,4.6212,4.621,4.6216,4.6203,4.62,4.6207,4.6212,4.6578,4.7454,4.8285,4.9154,5.0022,5.0924,5.1316,5.1552,5.2181,5.2768,5.3353,5.4567,5.535,5.5858,5.6328,5.6562,5.6638,5.6907,5.733,5.7786,5.8171,5.8558,5.9142,5.9885,6.0744,6.1602,6.318,6.4418,6.5344,6.6135,6.6544,6.6727,6.6709,6.6691,6.6713,6.6684,6.665,6.6623,6.6563,6.6546,6.6516,6.6508,6.6508,6.6508,6.6508,6.6508,6.6508,6.6508,6.6508,6.6508,6.6508,6.6508,6.6508,6.6508,6.6508,6.6505,6.6489,6.6876,3.9501,3.9577,3.9583,3.9595,3.9595,3.9595,3.8692,3.739,3.7262,3.6372,3.5153,3.4974,3.4973,3.4992,3.5092,3.5187,3.5204,3.5395,3.5649,3.6147,3.7238,3.8492,3.982,4.0027,4.0187,4.0275,4.0334,4.0444,4.0546,4.0605,4.0681,4.0757,4.0804,4.1781,4.3138,4.3503,4.4401,4.5688,4.6002,4.6002,4.6002,4.601,4.6076,4.6111,4.613,4.6148,4.6171,4.6219,4.6187,4.62,4.6188,4.6195,4.6203,4.619,4.6188,4.6273,4.641,4.6812,4.7636,4.8553,4.9382,5.0285,5.1033,5.1467,5.1741,5.2488,5.331,5.409,5.4951,5.5774,5.6321,5.6598,5.6718,5.6914,5.7499,5.7807,5.8188,5.8683,5.9143,5.9299,6.0041,6.09,6.2029,6.327,6.4702,6.5826,6.6422,6.6592,6.6727,6.6704,6.6683,6.6663,6.6624,6.6613,6.6553,6.6535,6.6524,6.6508,6.6508,6.6508,6.6508,6.6508,6.6508,6.6508,6.6508,6.6508,6.6508,6.6508,6.6508,6.6508,6.6508,6.6505,6.6497,6.6473,6.667,3.9469,3.9546,3.9571,3.9595,3.9595,3.9595,3.8686,3.7228,3.7289,3.64,3.5143,3.4898,3.4945,3.4982,3.5086,3.5092,3.5335,3.5842,3.6682,3.8046,3.8224,3.8952,3.9802,4.0007,4.0094,4.0191,4.028,4.0394,4.0504,4.0569,4.064,4.0697,4.0974,4.1676,4.3166,4.3617,4.4326,4.5688,4.6002,4.6002,4.6004,4.6059,4.6083,4.6117,4.6146,4.6206,4.6213,4.6217,4.6219,4.6224,4.6273,4.6396,4.6321,4.629,4.633,4.6489,4.6924,4.7557,4.8465,4.929,5.0155,5.0944,5.1339,5.1691,5.2435,5.3222,5.4082,5.494,5.5806,5.6317,5.6553,5.6597,5.6912,5.7382,5.7812,5.8474,5.9409,5.94,5.9467,6.0162,6.0979,6.1993,6.3516,6.4441,6.5525,6.6301,6.6553,6.6679,6.6732,6.6707,6.6674,6.6645,6.6598,6.6553,6.6535,6.6524,6.6516,6.6508,6.6508,6.6508,6.6508,6.6508,6.6508,6.6508,6.6508,6.6508,6.6508,6.6508,6.6505,6.6508,6.6501,6.6485,6.6465,6.6406,6.642,3.9425,3.9476,3.9558,3.9533,3.954,3.9533,3.8614,3.7341,3.7201,3.6368,3.5103,3.4893,3.4941,3.4988,3.5391,3.5665,3.5878,3.6516,3.7499,3.8484,3.8719,3.912,3.9754,3.9938,4.0012,4.0118,4.022,4.03,4.044,4.0523,4.0605,4.0746,4.1144,4.2097,4.3313,4.3845,4.479,4.5727,4.6002,4.6002,4.6004,4.6054,4.6081,4.6113,4.6187,4.6364,4.68,4.6812,4.7042,4.7278,4.7371,4.7185,4.687,4.6802,4.6967,4.7437,4.7365,4.8227,4.9171,4.984,5.0432,5.1335,5.1765,5.2196,5.2899,5.3802,5.47,5.5362,5.603,5.6623,5.6627,5.6594,5.7027,5.7733,5.8281,5.9061,5.9998,5.9992,6.0256,6.1379,6.2431,6.3481,6.4647,6.5537,6.6004,6.6627,6.664,6.6767,6.6746,6.6717,6.666,6.662,6.657,6.6535,6.652,6.6512,6.6512,6.6508,6.6508,6.6508,6.6508,6.6508,6.6508,6.6508,6.6508,6.6508,6.6508,6.6508,6.6493,6.6477,6.6465,6.6449,6.6428,6.6355,6.6329,3.9399,3.9444,3.9495,3.9501,3.9501,3.9464,3.8527,3.7154,3.711,3.6249,3.4999,3.4866,3.4873,3.5088,3.5813,3.6293,3.6839,3.7337,3.8229,3.8925,3.9044,3.937,3.9813,3.9905,3.9949,4.0091,4.0148,4.0257,4.036,4.0456,4.0696,4.0956,4.1622,4.2604,4.3557,4.4344,4.5134,4.5872,4.5997,4.6002,4.6002,4.6004,4.603,4.6111,4.645,4.6785,4.7306,4.759,4.7985,4.8715,4.8896,4.8512,4.7927,4.7585,4.7871,4.8653,4.8116,4.8589,4.9684,5.0275,5.0709,5.1414,5.2196,5.2742,5.3211,5.4265,5.5164,5.5671,5.6221,5.6615,5.662,5.6631,5.7104,5.7966,5.8828,5.957,6.035,6.062,6.1396,6.2792,6.349,6.4268,6.5316,6.6246,6.656,6.679,6.6803,6.6775,6.6755,6.6717,6.6657,6.6607,6.6563,6.6527,6.6512,6.6392,6.6431,6.6431,6.6431,6.6466,6.6466,6.6508,6.6508,6.6508,6.6508,6.6505,6.6497,6.6485,6.6431,6.6406,6.6385,6.6416,6.6381,6.6336,6.6312,3.9242,3.9263,3.9373,3.9399,3.9436,3.9399,3.8452,3.7075,3.7073,3.6131,3.4808,3.4716,3.4869,3.5095,3.5763,3.6854,3.7988,3.8464,3.8903,3.9445,3.9564,3.9759,3.978,3.9873,3.9911,3.9949,4.0043,4.0153,4.0257,4.036,4.0879,4.1509,4.1998,4.2885,4.3986,4.467,4.5221,4.5889,4.5983,4.5997,4.5999,4.6004,4.61,4.6264,4.6755,4.7325,4.7692,4.8245,4.8674,4.883,4.951,4.9322,4.8703,4.8021,4.8077,4.8632,4.8752,4.9105,5.0121,5.0786,5.114,5.157,5.2313,5.3133,5.3835,5.4733,5.5592,5.6141,5.6419,5.6619,5.6621,5.6593,5.7418,5.8436,5.914,5.9805,6.0976,6.1522,6.2024,6.342,6.4119,6.4778,6.5669,6.6441,6.671,6.678,6.6796,6.6773,6.6752,6.6668,6.66,6.6559,6.6521,6.6531,6.6508,6.6353,6.6275,6.6272,6.6268,6.638,6.638,6.6466,6.6508,6.6485,6.6485,6.6446,6.6435,6.6422,6.6432,6.6403,6.639,6.6376,6.6336,6.6293,6.6245,3.9099,3.9106,3.9184,3.9232,3.9229,3.9229,3.8578,3.7567,3.7511,3.6681,3.554,3.521,3.5061,3.522,3.6184,3.7613,3.8834,3.9234,3.9477,3.9739,3.9757,3.9823,3.9779,3.9845,3.9873,3.9905,3.9965,4.0081,4.0186,4.0754,4.1237,4.1839,4.2649,4.3728,4.4478,4.5073,4.5482,4.5932,4.6,4.5986,4.5997,4.5999,4.6217,4.679,4.7211,4.7856,4.8772,4.9147,4.9693,5.0002,5.013,5.0098,4.9718,4.9069,4.8541,4.9256,4.9458,4.9851,5.0593,5.1219,5.1531,5.2118,5.2859,5.3757,5.4616,5.5475,5.6141,5.6458,5.6617,5.6625,5.6593,5.6597,5.7459,5.8749,5.9219,6.0,6.1133,6.1601,6.2455,6.3501,6.4003,6.466,6.5703,6.6321,6.6703,6.6806,6.6707,6.6611,6.6516,6.6424,6.6241,6.6166,6.6016,6.5672,6.5654,6.5615,6.584,6.5953,6.6062,6.6136,6.6353,6.6427,6.6453,6.6432,6.6441,6.641,6.6437,6.6411,6.6385,6.6358,6.6345,6.6326,6.6288,6.6259,6.6249,3.8957,3.8971,3.8971,3.9021,3.9092,3.9099,3.8657,3.8085,3.7988,3.7225,3.6053,3.5921,3.5647,3.5667,3.6759,3.8256,3.9609,3.9621,3.9658,3.9653,3.9676,3.9749,3.9772,3.9817,3.9845,3.9873,3.9905,4.0068,4.052,4.1035,4.1586,4.2454,4.3778,4.452,4.4804,4.5374,4.5796,4.5928,4.5962,4.5994,4.6022,4.6224,4.6587,4.7434,4.7736,4.866,4.9657,5.0153,5.055,5.0819,5.0747,5.0524,5.0724,4.9918,4.9582,4.9986,5.0116,5.0591,5.1101,5.1375,5.1726,5.2469,5.3445,5.4343,5.5203,5.5868,5.6574,5.6619,5.6626,5.663,5.6597,5.66,5.7343,5.8437,5.9101,5.9687,6.0859,6.1522,6.1909,6.2801,6.3575,6.4308,6.5116,6.5417,6.5644,6.5666,6.5607,6.5624,6.5562,6.5636,6.5582,6.5547,6.5319,6.4779,6.4566,6.4488,6.4943,6.5472,6.5615,6.572,6.6083,6.6411,6.6394,6.6385,6.6385,6.6394,6.6381,6.6363,6.6336,6.6312,6.6298,6.6279,6.6254,6.6234,6.6229,3.8848,3.8906,3.8899,3.8943,3.9,3.9014,3.8612,3.7981,3.8001,3.7476,3.669,3.6727,3.6752,3.6929,3.7607,3.865,3.9313,3.9569,3.9575,3.9607,3.9661,3.9684,3.9728,3.9777,3.9811,3.9877,3.9948,4.0431,4.1032,4.1357,4.2219,4.3342,4.3891,4.4488,4.5204,4.5521,4.5746,4.581,4.5893,4.6021,4.6221,4.6812,4.7231,4.7852,4.8745,4.9666,5.0153,5.0687,5.1123,5.1086,5.1164,5.0778,5.0392,5.0837,5.0543,5.0328,5.0189,5.0476,5.1218,5.1531,5.196,5.282,5.3639,5.4381,5.5361,5.6107,5.6619,5.662,5.6631,5.6598,5.66,5.6601,5.7148,5.789,5.8711,5.9414,6.039,6.0779,6.1243,6.1783,6.2437,6.3328,6.4138,6.4321,6.4465,6.4485,6.4544,6.4599,6.4688,6.4841,6.4642,6.4565,6.4415,6.3913,6.3425,6.3347,6.3837,6.4676,6.5001,6.5256,6.5773,6.613,6.6349,6.6336,6.634,6.6336,6.6322,6.6307,6.6245,6.6235,6.6259,6.6205,6.619,6.6175,6.6198,3.846,3.869,3.8773,3.8826,3.8935,3.8979,3.8857,3.8623,3.8562,3.813,3.7643,3.794,3.8142,3.8233,3.8296,3.8652,3.9371,3.9514,3.9539,3.9552,3.9601,3.9668,3.9686,3.9734,3.9743,3.9968,4.038,4.1139,4.1656,4.2091,4.271,4.3743,4.4395,4.4908,4.5443,4.5518,4.5595,4.582,4.6268,4.6875,4.7333,4.7753,4.8213,4.8705,4.9534,5.015,5.0682,5.1018,5.0996,5.0729,5.0579,5.0424,5.0155,5.0403,5.0578,5.0946,5.0847,5.1055,5.1374,5.1843,5.2508,5.3367,5.4226,5.5165,5.5872,5.6345,5.6626,5.6594,5.6597,5.66,5.6601,5.6601,5.7109,5.7734,5.8281,5.8867,5.953,5.9801,6.0263,6.0801,6.1336,6.2187,6.3036,6.3606,6.3863,6.3963,6.4023,6.4081,6.4208,6.4368,6.3935,6.3385,6.3235,6.3047,6.2478,6.2195,6.2634,6.3351,6.4085,6.4455,6.5333,6.5736,6.6032,6.6245,6.6235,6.623,6.6259,6.6215,6.6205,6.6195,6.6185,6.6165,6.6144,6.6128,6.6107,3.8101,3.8396,3.8544,3.8735,3.887,3.8935,3.9021,3.9082,3.9045,3.8748,3.8488,3.8792,3.9191,3.927,3.8809,3.8786,3.9381,3.9475,3.9533,3.954,3.9583,3.9657,3.9656,3.9686,3.9865,4.0102,4.0715,4.1658,4.2456,4.287,4.3246,4.4049,4.4722,4.5306,4.554,4.5758,4.5961,4.6561,4.7117,4.7724,4.822,4.8613,4.9104,4.9604,5.0076,5.0506,5.1074,5.1273,5.0871,5.0605,5.05,5.0541,5.0465,5.0591,5.0846,5.1175,5.127,5.1478,5.1839,5.2352,5.3134,5.3994,5.5052,5.5878,5.6349,5.6625,5.6629,5.6598,5.66,5.6601,5.6601,5.6601,5.6875,5.7305,5.7773,5.8281,5.8748,5.9095,5.948,5.998,6.0475,6.0885,6.1808,6.2806,6.3259,6.3438,6.3499,6.3519,6.3536,6.3584,6.3154,6.2484,6.2355,6.2245,6.1904,6.1609,6.1857,6.2258,6.2994,6.3858,6.4778,6.5422,6.579,6.5963,6.6098,6.6165,6.6165,6.6165,6.6165,6.6149,6.6128,6.6107,6.6091,6.6074,6.6091,3.7871,3.8135,3.836,3.8611,3.8811,3.8899,3.8986,3.9082,3.9082,3.9082,3.9031,3.915,3.9626,3.9839,3.9363,3.9039,3.9249,3.9353,3.9438,3.9502,3.9552,3.9671,3.9782,3.995,4.021,4.0855,4.1417,4.2346,4.3278,4.3745,4.4168,4.4781,4.5124,4.563,4.6107,4.645,4.7021,4.7579,4.814,4.8338,4.8804,4.9192,4.972,4.9951,5.0545,5.105,5.1133,5.1208,5.1133,5.0906,5.0959,5.0852,5.0774,5.0934,5.1186,5.133,5.1577,5.1866,5.2311,5.2707,5.3216,5.4199,5.5337,5.6395,5.6592,5.6597,5.6599,5.66,5.6601,5.6601,5.6601,5.664,5.6719,5.6914,5.7305,5.7617,5.8083,5.847,5.8815,5.9237,5.969,6.0213,6.0895,6.1972,6.2426,6.2568,6.2522,6.2542,6.2369,6.2302,6.2064,6.1703,6.156,6.1512,6.1473,6.1448,6.1625,6.1953,6.2537,6.3482,6.443,6.4952,6.5474,6.5768,6.5946,6.6007,6.6102,6.6091,6.6085,6.6085,6.6074,6.6058,6.6019,6.6029,6.6005,3.851,3.8742,3.8888,3.8895,3.8788,3.8906,3.9014,3.9075,3.9082,3.9382,3.9777,3.9748,3.9933,3.9962,3.9465,3.9147,3.932,3.9366,3.9488,3.9527,3.9614,3.989,4.0146,4.0534,4.0902,4.1705,4.2319,4.2844,4.3625,4.4541,4.5292,4.5683,4.5809,4.6326,4.6889,4.7401,4.8023,4.864,4.9041,4.9245,4.9926,5.0201,5.0512,5.0604,5.0749,5.1062,5.1092,5.1193,5.0955,5.0821,5.1074,5.1004,5.085,5.1084,5.134,5.1528,5.1853,5.234,5.2826,5.3299,5.4122,5.5377,5.624,5.6594,5.6597,5.6599,5.66,5.6601,5.6601,5.6601,5.6601,5.6601,5.664,5.6719,5.6875,5.7108,5.7495,5.792,5.8341,5.8799,5.9248,5.9731,6.0453,6.1214,6.1474,6.1697,6.1612,6.1566,6.1549,6.152,6.1475,6.1418,6.1313,6.1279,6.1234,6.129,6.1354,6.1719,6.2079,6.2873,6.3743,6.4675,6.5162,6.5456,6.5743,6.5865,6.5958,6.6013,6.6046,6.6063,6.6019,6.6007,6.5999,6.599,6.6049,3.866,3.9094,3.9228,3.921,3.9073,3.8981,3.8979,3.908,3.9309,3.9837,4.0474,4.0067,3.9911,3.9882,3.94,3.9106,3.9374,3.9634,3.9851,4.0065,4.0365,4.0635,4.0998,4.1356,4.1744,4.258,4.3188,4.3715,4.423,4.5595,4.6239,4.6605,4.6947,4.7534,4.7946,4.8548,4.9051,4.9577,4.9897,5.0143,5.0756,5.0859,5.0905,5.092,5.1023,5.1063,5.1107,5.1164,5.0982,5.0852,5.0912,5.0926,5.085,5.0936,5.1424,5.188,5.2333,5.2857,5.3498,5.409,5.5069,5.6165,5.648,5.6599,5.6601,5.6601,5.6601,5.6601,5.6601,5.6601,5.6601,5.6601,5.6601,5.6679,5.664,5.6872,5.7218,5.764,5.8021,5.8436,5.9041,5.9877,6.0327,6.1049,6.1387,6.1573,6.1573,6.1561,6.1541,6.1509,6.146,6.1401,6.1333,6.1259,6.1186,6.1212,6.1237,6.1305,6.1669,6.2037,6.2863,6.3871,6.4734,6.5065,6.5385,6.5687,6.5851,6.5982,6.5993,6.6011,6.5993,6.597,6.5952,6.598,6.6198,3.8166,3.9094,3.9193,3.9438,3.9691,3.9073,3.8936,3.9217,3.9771,4.0398,4.0789,3.9711,3.9423,3.9749,3.9201,3.9196,3.9564,4.0137,4.0574,4.0821,4.1279,4.1748,4.1995,4.2222,4.2611,4.3284,4.3818,4.4288,4.5004,4.6017,4.6782,4.7647,4.828,4.8767,4.9067,4.992,5.0469,5.0644,5.0631,5.0735,5.0866,5.0898,5.091,5.0933,5.103,5.1079,5.1114,5.1161,5.1094,5.1076,5.1146,5.1238,5.1357,5.1361,5.1858,5.2642,5.2766,5.3644,5.4991,5.5192,5.5779,5.6443,5.6601,5.6601,5.6601,5.6601,5.6601,5.6601,5.6601,5.6601,5.6601,5.6601,5.6601,5.6639,5.6638,5.6909,5.7292,5.7787,5.8282,5.8621,5.9541,6.0416,6.0631,6.0963,6.138,6.1568,6.1568,6.1556,6.1536,6.1495,6.1441,6.1381,6.1314,6.1242,6.1168,6.1137,6.1123,6.1113,6.1375,6.1892,6.2364,6.3173,6.3962,6.4558,6.5169,6.5617,6.5824,6.5954,6.6088,6.6183,6.5954,6.5929,6.591,6.6096,6.6481,3.8757,3.9708,3.9766,4.0266,4.0887,4.0434,4.0215,4.0315,4.0503,4.0487,4.0194,3.9599,3.927,3.9192,3.9224,3.9376,4.0042,4.028,4.0792,4.1629,4.205,4.2459,4.2767,4.3114,4.3536,4.4165,4.4536,4.4918,4.5884,4.6617,4.7559,4.8506,4.932,4.983,5.0002,5.0418,5.0586,5.0687,5.0751,5.0846,5.0897,5.0925,5.0902,5.0906,5.102,5.1107,5.1098,5.1161,5.1252,5.1351,5.1425,5.163,5.2025,5.2146,5.257,5.3467,5.3909,5.4908,5.5856,5.6171,5.625,5.6523,5.6601,5.6601,5.6601,5.6601,5.6601,5.6601,5.6601,5.6601,5.6601,5.664,5.6639,5.6755,5.6909,5.7372,5.7792,5.8402,5.8893,5.9117,5.9765,6.0635,6.1078,6.1142,6.1444,6.1544,6.1539,6.1539,6.1523,6.1436,6.1383,6.1359,6.1287,6.1217,6.1155,6.1084,6.1206,6.1273,6.1601,6.2079,6.2511,6.297,6.3747,6.4683,6.5175,6.5589,6.5929,6.6198,6.6346,6.6378,6.6404,6.6474,6.6673,6.6904,6.7128,3.8777,3.9971,4.0028,4.0864,4.1822,4.1149,4.0985,4.1171,4.0763,4.0263,4.0015,3.9646,3.9101,3.8836,3.9187,3.963,4.0512,4.125,4.1693,4.2481,4.2879,4.337,4.3774,4.397,4.4228,4.4758,4.4984,4.5404,4.6267,4.716,4.8234,4.9343,5.0128,5.0287,5.0446,5.0558,5.0644,5.0701,5.0812,5.0851,5.0897,5.0925,5.0898,5.0921,5.1012,5.1075,5.1091,5.1197,5.1417,5.1639,5.1892,5.2179,5.2734,5.3139,5.352,5.4333,5.522,5.5973,5.6406,5.6523,5.6523,5.6601,5.6601,5.6601,5.6601,5.6601,5.6601,5.6601,5.664,5.664,5.668,5.6678,5.7105,5.7221,5.7645,5.8106,5.8761,5.9369,5.9743,5.9967,6.0219,6.0969,6.1408,6.1439,6.1505,6.1487,6.1465,6.1465,6.1465,6.1418,6.1359,6.1329,6.1352,6.129,6.1189,6.106,6.1186,6.1432,6.1904,6.2495,6.2805,6.3262,6.4031,6.4612,6.4934,6.5378,6.6102,6.6481,6.6795,6.7058,6.7244,6.7359,6.7513,6.766,6.7846,3.8212,3.9834,3.9971,4.1029,4.2306,4.1316,4.1241,4.1829,4.0362,4.0106,4.0617,3.9102,3.8609,3.8774,3.9562,4.0245,4.079,4.2132,4.2912,4.3474,4.391,4.4357,4.453,4.4638,4.4714,4.4795,4.5052,4.556,4.6473,4.78,4.9075,4.9925,5.0347,5.0511,5.0553,5.0604,5.0688,5.0738,5.0825,5.0872,5.0878,5.1061,5.1184,5.1289,5.1457,5.1593,5.1653,5.1678,5.204,5.2384,5.2678,5.3202,5.3605,5.3924,5.4553,5.5251,5.613,5.6406,5.6562,5.6601,5.6601,5.664,5.6758,5.668,5.6601,5.6601,5.6601,5.668,5.6758,5.6758,5.6756,5.734,5.7922,5.8269,5.8692,5.9269,5.9924,6.0418,6.0792,6.1008,6.1179,6.1541,6.1471,6.1495,6.1518,6.1456,6.1433,6.1418,6.145,6.1396,6.1373,6.1376,6.1367,6.1406,6.1348,6.1476,6.1857,6.229,6.2585,6.3053,6.3322,6.3711,6.4458,6.4928,6.4756,6.5243,6.6288,6.6981,6.7404,6.7705,6.8154,6.8211,6.8351,6.8403,6.8582,3.7832,3.8954,3.9601,4.0588,4.1672,4.2053,4.204,4.166,4.0751,4.0276,3.9831,3.8931,3.8572,3.8625,3.9606,4.0511,4.1518,4.2525,4.3478,4.4134,4.4541,4.4713,4.4802,4.4846,4.4871,4.4914,4.5126,4.5779,4.7313,4.8627,4.9585,5.033,5.0505,5.0558,5.0604,5.0654,5.0701,5.0807,5.0885,5.1004,5.125,5.1591,5.1753,5.1977,5.2454,5.2631,5.2732,5.2819,5.3183,5.343,5.352,5.3962,5.472,5.4851,5.5231,5.608,5.6484,5.6601,5.6601,5.6601,5.664,5.6836,5.7148,5.7031,5.6836,5.6758,5.6797,5.7031,5.7304,5.7459,5.769,5.8195,5.862,5.9005,5.9465,6.0122,6.0697,6.0956,6.129,6.138,6.1586,6.1561,6.1489,6.1465,6.1487,6.146,6.1438,6.1421,6.1405,6.1388,6.1355,6.136,6.1501,6.1544,6.2147,6.2389,6.2769,6.3146,6.3395,6.3729,6.4188,6.4626,6.5114,6.5371,6.5404,6.5942,6.6789,6.7404,6.8013,6.8717,6.9165,6.9177,6.9156,6.9194,6.9327,3.771,3.8596,3.9436,4.0604,4.188,4.2623,4.2358,4.1379,4.0879,4.0242,3.9451,3.8846,3.8758,3.9253,4.0236,4.126,4.218,4.3254,4.4103,4.4426,4.4764,4.4808,4.4858,4.4889,4.4926,4.4962,4.525,4.589,4.7691,4.9328,5.0407,5.0451,5.0542,5.0599,5.0659,5.073,5.0751,5.0954,5.1142,5.133,5.1722,5.2272,5.2674,5.2933,5.3529,5.3712,5.3808,5.3849,5.4024,5.4307,5.4433,5.4838,5.5562,5.5777,5.5831,5.6516,5.6562,5.6601,5.6601,5.6601,5.6797,5.7148,5.7617,5.7773,5.7851,5.789,5.7851,5.7929,5.82,5.8431,5.874,5.9048,5.9315,5.9621,6.0239,6.0855,6.1155,6.1374,6.1467,6.1554,6.1566,6.1497,6.147,6.1484,6.1453,6.1425,6.1408,6.1401,6.1381,6.1359,6.1329,6.1314,6.1574,6.1797,6.2438,6.2959,6.3327,6.3654,6.4076,6.4446,6.4987,6.5282,6.5519,6.5865,6.6134,6.675,6.7366,6.809,6.8737,6.9434,6.9963,6.9959,6.993,6.9954,7.0155,3.7761,3.8567,3.9449,4.0952,4.2676,4.2965,4.2214,4.0863,4.0775,4.0195,3.94,3.8918,3.9116,3.9818,4.0903,4.1913,4.2811,4.3812,4.4397,4.4718,4.4802,4.4858,4.4852,4.4882,4.4956,4.5016,4.5346,4.6018,4.7694,4.9214,5.0189,5.0467,5.0568,5.0634,5.0678,5.0733,5.0825,5.0979,5.1674,5.2248,5.2434,5.3007,5.3693,5.3754,5.3927,5.4068,5.405,5.4181,5.4427,5.5009,5.5423,5.5751,5.6126,5.6421,5.655,5.6556,5.66,5.6601,5.668,5.6797,5.7226,5.7617,5.8047,5.8593,5.8904,5.8709,5.8592,5.8669,5.8899,5.9169,5.9437,5.9978,6.0402,6.0554,6.0939,6.1279,6.142,6.1517,6.1528,6.1575,6.1544,6.1515,6.1492,6.1466,6.1425,6.1391,6.1419,6.1419,6.1402,6.1337,6.1341,6.134,6.1707,6.2045,6.2433,6.2993,6.362,6.405,6.4553,6.5005,6.5448,6.5673,6.5865,6.6019,6.6211,6.7167,6.7898,6.8423,6.9088,7.0123,7.0496,7.0615,7.0616,7.0471,7.0448,3.7498,3.783,3.938,4.1125,4.2772,4.2937,4.215,4.0835,4.0822,4.0064,3.8943,3.8843,3.9275,4.0258,4.1178,4.2187,4.3231,4.409,4.4577,4.4764,4.4852,4.4889,4.492,4.4962,4.4992,4.5039,4.538,4.6118,4.7701,4.8952,4.9876,5.0439,5.0594,5.0688,5.0706,5.076,5.0885,5.1013,5.2298,5.2717,5.2597,5.3711,5.4594,5.4816,5.5022,5.5455,5.5511,5.5672,5.5881,5.6158,5.6181,5.6352,5.6522,5.6584,5.6631,5.6595,5.6601,5.664,5.6875,5.7187,5.7694,5.8318,5.8903,5.9604,5.9877,5.9489,5.9332,5.9445,5.9635,5.9904,6.0251,6.087,6.1333,6.1448,6.1521,6.1585,6.1646,6.1617,6.1586,6.1559,6.1526,6.1498,6.1517,6.148,6.144,6.1419,6.1416,6.1412,6.1391,6.1364,6.1334,6.144,6.1947,6.2283,6.2564,6.2993,6.3587,6.4381,6.4974,6.5421,6.5871,6.5904,6.5904,6.5904,6.6211,6.716,6.791,6.8254,6.9072,7.0297,7.0692,7.0655,7.0561,7.0437,7.0372,3.7512,3.7755,3.9516,4.1106,4.2368,4.2941,4.2294,4.1092,4.0968,4.0077,3.8753,3.8832,3.952,4.0607,4.1458,4.2548,4.3642,4.4362,4.468,4.4815,4.4883,4.4926,4.4962,4.5004,4.5057,4.5141,4.5676,4.6555,4.7778,4.875,4.9629,5.0373,5.0629,5.0687,5.0733,5.0825,5.0876,5.1018,5.2736,5.3196,5.3028,5.4379,5.5402,5.5743,5.5932,5.6329,5.6383,5.6388,5.6437,5.648,5.6465,5.6483,5.6573,5.6626,5.6595,5.6599,5.664,5.6757,5.7186,5.7692,5.8316,5.9056,5.9563,6.0264,6.0924,6.0614,6.0575,6.0687,6.0719,6.0986,6.0985,6.1449,6.1526,6.1602,6.1631,6.1655,6.163,6.1599,6.158,6.1566,6.1531,6.1492,6.1505,6.1464,6.1426,6.1416,6.1416,6.1412,6.1391,6.1353,6.1318,6.1393,6.1783,6.2206,6.2462,6.2926,6.3526,6.4359,6.5113,6.551,6.5724,6.5827,6.5904,6.5942,6.6276,6.7141,6.7768,6.8227,6.9148,7.0386,7.0593,7.0569,7.0473,7.0383,7.0307,3.7721,3.8115,3.9788,4.1052,4.1995,4.2994,4.2523,4.1234,4.1075,4.0202,3.8911,3.904,4.0111,4.1133,4.2025,4.3212,4.4107,4.4554,4.4789,4.4846,4.4902,4.495,4.4954,4.5001,4.5114,4.5448,4.6004,4.6839,4.7821,4.8766,4.9601,5.035,5.061,5.0729,5.0816,5.0868,5.0913,5.1401,5.2495,5.3466,5.4312,5.5271,5.5853,5.6177,5.6278,5.6329,5.6386,5.6402,5.6445,5.6482,5.655,5.6567,5.6581,5.6629,5.6832,5.6835,5.6991,5.7379,5.7884,5.8351,5.9169,5.991,6.0301,6.0845,6.1464,6.1618,6.1579,6.1576,6.1606,6.1642,6.1642,6.168,6.168,6.1714,6.1702,6.1646,6.1615,6.1582,6.1575,6.1566,6.1531,6.1487,6.145,6.145,6.143,6.1419,6.1412,6.1409,6.1394,6.1345,6.1301,6.126,6.1392,6.179,6.2119,6.2616,6.3145,6.3704,6.4374,6.5048,6.5615,6.5795,6.5904,6.5974,6.6468,6.698,6.7741,6.8308,6.9335,7.0203,7.0485,7.0459,7.0399,7.0307,7.0185,3.8142,3.9022,4.0067,4.1114,4.2191,4.3019,4.2531,4.125,4.114,4.0297,3.9334,3.98,4.074,4.1631,4.2614,4.3618,4.4457,4.4776,4.4846,4.4902,4.495,4.4986,4.5039,4.5114,4.5197,4.5589,4.6194,4.698,4.8012,4.8858,4.9655,5.0502,5.064,5.0729,5.0821,5.0872,5.1049,5.1617,5.256,5.3681,5.4209,5.5122,5.6025,5.6272,5.6288,5.6335,5.6386,5.6402,5.6445,5.6483,5.6592,5.661,5.6741,5.6829,5.7069,5.7539,5.7652,5.8117,5.866,5.9242,6.0099,6.045,6.0837,6.13,6.1687,6.1687,6.1647,6.1647,6.168,6.168,6.168,6.168,6.1718,6.1668,6.1657,6.1632,6.1603,6.1582,6.1605,6.1544,6.1512,6.1478,6.1444,6.1411,6.1423,6.1416,6.1416,6.1409,6.1341,6.1295,6.1289,6.1204,6.1155,6.1132,6.1345,6.1998,6.2527,6.3086,6.3791,6.4728,6.5416,6.5795,6.5936,6.5974,6.6077,6.6397,6.7235,6.8035,6.8768,6.9513,7.0131,7.0364,7.0294,7.0238,7.0123]}]]